<?xml version='1.0' encoding='UTF-8'?>
<gpx version="1.1" creator="https://www.komoot.de" xmlns="http://www.topografix.com/GPX/1/1" xmlns:xsi="http://www.w3.org/2001/XMLSchema-instance" xsi:schemaLocation="http://www.topografix.com/GPX/1/1 http://www.topografix.com/GPX/1/1/gpx.xsd">
  <metadata>
    <name>AgriVarese Gravel</name>
    <author>
      <link href="https://www.komoot.de">
        <text>komoot</text>
        <type>text/html</type>
      </link>
    </author>
  </metadata>
  <trk>
    <name>AgriVarese Gravel</name>
    <trkseg>
      <trkpt lat="45.818631" lon="8.824092">
        <ele>384.968342</ele>
        <time>2024-03-20T12:04:10.417Z</time>
      </trkpt>
      <trkpt lat="45.818588" lon="8.824224">
        <ele>384.968342</ele>
        <time>2024-03-20T12:04:14.394Z</time>
      </trkpt>
      <trkpt lat="45.818263" lon="8.825221">
        <ele>384.968342</ele>
        <time>2024-03-20T12:04:41.672Z</time>
      </trkpt>
      <trkpt lat="45.818131" lon="8.825407">
        <ele>385.137522</ele>
        <time>2024-03-20T12:04:47.211Z</time>
      </trkpt>
      <trkpt lat="45.817813" lon="8.825900">
        <ele>385.650740</ele>
        <time>2024-03-20T12:05:02.299Z</time>
      </trkpt>
      <trkpt lat="45.817704" lon="8.826065">
        <ele>385.824433</ele>
        <time>2024-03-20T12:05:07.821Z</time>
      </trkpt>
      <trkpt lat="45.817639" lon="8.826160">
        <ele>385.926144</ele>
        <time>2024-03-20T12:05:10.551Z</time>
      </trkpt>
      <trkpt lat="45.817596" lon="8.826182">
        <ele>385.976189</ele>
        <time>2024-03-20T12:05:11.802Z</time>
      </trkpt>
      <trkpt lat="45.817492" lon="8.826205">
        <ele>386.091544</ele>
        <time>2024-03-20T12:05:14.932Z</time>
      </trkpt>
      <trkpt lat="45.817432" lon="8.826280">
        <ele>386.178777</ele>
        <time>2024-03-20T12:05:17.611Z</time>
      </trkpt>
      <trkpt lat="45.817382" lon="8.826396">
        <ele>386.282982</ele>
        <time>2024-03-20T12:05:20.097Z</time>
      </trkpt>
      <trkpt lat="45.817384" lon="8.826528">
        <ele>386.383856</ele>
        <time>2024-03-20T12:05:22.431Z</time>
      </trkpt>
      <trkpt lat="45.817436" lon="8.826576">
        <ele>386.451638</ele>
        <time>2024-03-20T12:05:23.923Z</time>
      </trkpt>
      <trkpt lat="45.817490" lon="8.826681">
        <ele>386.551336</ele>
        <time>2024-03-20T12:05:26.778Z</time>
      </trkpt>
      <trkpt lat="45.817488" lon="8.826796">
        <ele>386.639225</ele>
        <time>2024-03-20T12:05:28.647Z</time>
      </trkpt>
      <trkpt lat="45.817372" lon="8.827453">
        <ele>386.663343</ele>
        <time>2024-03-20T12:05:38.964Z</time>
      </trkpt>
      <trkpt lat="45.817293" lon="8.827961">
        <ele>386.156154</ele>
        <time>2024-03-20T12:05:46.028Z</time>
      </trkpt>
      <trkpt lat="45.817286" lon="8.828254">
        <ele>385.870475</ele>
        <time>2024-03-20T12:05:49.882Z</time>
      </trkpt>
      <trkpt lat="45.817254" lon="8.829290">
        <ele>384.859963</ele>
        <time>2024-03-20T12:06:03.529Z</time>
      </trkpt>
      <trkpt lat="45.817234" lon="8.829757">
        <ele>384.386867</ele>
        <time>2024-03-20T12:06:09.490Z</time>
      </trkpt>
      <trkpt lat="45.817224" lon="8.830151">
        <ele>383.692229</ele>
        <time>2024-03-20T12:06:14.415Z</time>
      </trkpt>
      <trkpt lat="45.817221" lon="8.830315">
        <ele>383.403182</ele>
        <time>2024-03-20T12:06:16.364Z</time>
      </trkpt>
      <trkpt lat="45.817216" lon="8.830546">
        <ele>382.995993</ele>
        <time>2024-03-20T12:06:19.059Z</time>
      </trkpt>
      <trkpt lat="45.817222" lon="8.830646">
        <ele>382.819154</ele>
        <time>2024-03-20T12:06:20.255Z</time>
      </trkpt>
      <trkpt lat="45.817377" lon="8.831161">
        <ele>381.830800</ele>
        <time>2024-03-20T12:06:27.050Z</time>
      </trkpt>
      <trkpt lat="45.817604" lon="8.831941">
        <ele>380.341544</ele>
        <time>2024-03-20T12:06:37.622Z</time>
      </trkpt>
      <trkpt lat="45.817698" lon="8.832009">
        <ele>380.075421</ele>
        <time>2024-03-20T12:06:40.131Z</time>
      </trkpt>
      <trkpt lat="45.817731" lon="8.832114">
        <ele>379.873558</ele>
        <time>2024-03-20T12:06:50.021Z</time>
      </trkpt>
      <trkpt lat="45.817646" lon="8.832221">
        <ele>379.639881</ele>
        <time>2024-03-20T12:06:52.957Z</time>
      </trkpt>
      <trkpt lat="45.817724" lon="8.832538">
        <ele>379.155696</ele>
        <time>2024-03-20T12:06:57.498Z</time>
      </trkpt>
      <trkpt lat="45.817914" lon="8.832587">
        <ele>378.756759</ele>
        <time>2024-03-20T12:07:02.419Z</time>
      </trkpt>
      <trkpt lat="45.817942" lon="8.832594">
        <ele>378.698024</ele>
        <time>2024-03-20T12:07:03.105Z</time>
      </trkpt>
      <trkpt lat="45.818072" lon="8.832760">
        <ele>378.338392</ele>
        <time>2024-03-20T12:07:07.342Z</time>
      </trkpt>
      <trkpt lat="45.818235" lon="8.833144">
        <ele>377.690826</ele>
        <time>2024-03-20T12:07:14.935Z</time>
      </trkpt>
      <trkpt lat="45.818271" lon="8.833220">
        <ele>377.558477</ele>
        <time>2024-03-20T12:07:19.382Z</time>
      </trkpt>
      <trkpt lat="45.818303" lon="8.833192">
        <ele>377.481022</ele>
        <time>2024-03-20T12:07:21.980Z</time>
      </trkpt>
      <trkpt lat="45.818329" lon="8.833254">
        <ele>377.376807</ele>
        <time>2024-03-20T12:07:25.483Z</time>
      </trkpt>
      <trkpt lat="45.818383" lon="8.833205">
        <ele>377.244770</ele>
        <time>2024-03-20T12:07:29.919Z</time>
      </trkpt>
      <trkpt lat="45.818488" lon="8.833457">
        <ele>376.821909</ele>
        <time>2024-03-20T12:07:33.510Z</time>
      </trkpt>
      <trkpt lat="45.818755" lon="8.833446">
        <ele>376.269912</ele>
        <time>2024-03-20T12:07:38.355Z</time>
      </trkpt>
      <trkpt lat="45.818785" lon="8.833511">
        <ele>376.160278</ele>
        <time>2024-03-20T12:07:39.379Z</time>
      </trkpt>
      <trkpt lat="45.818812" lon="8.833577">
        <ele>376.128158</ele>
        <time>2024-03-20T12:07:40.532Z</time>
      </trkpt>
      <trkpt lat="45.818841" lon="8.833640">
        <ele>376.096470</ele>
        <time>2024-03-20T12:07:41.516Z</time>
      </trkpt>
      <trkpt lat="45.819053" lon="8.834108">
        <ele>375.862207</ele>
        <time>2024-03-20T12:07:49.578Z</time>
      </trkpt>
      <trkpt lat="45.819493" lon="8.835083">
        <ele>375.374708</ele>
        <time>2024-03-20T12:08:05.978Z</time>
      </trkpt>
      <trkpt lat="45.819624" lon="8.835815">
        <ele>375.092048</ele>
        <time>2024-03-20T12:08:18.220Z</time>
      </trkpt>
      <trkpt lat="45.819709" lon="8.836608">
        <ele>375.317379</ele>
        <time>2024-03-20T12:08:32.309Z</time>
      </trkpt>
      <trkpt lat="45.819808" lon="8.837075">
        <ele>375.454469</ele>
        <time>2024-03-20T12:08:41.106Z</time>
      </trkpt>
      <trkpt lat="45.819852" lon="8.837338">
        <ele>375.530430</ele>
        <time>2024-03-20T12:08:46.114Z</time>
      </trkpt>
      <trkpt lat="45.819916" lon="8.837690">
        <ele>375.632597</ele>
        <time>2024-03-20T12:08:52.387Z</time>
      </trkpt>
      <trkpt lat="45.819928" lon="8.837761">
        <ele>375.653115</ele>
        <time>2024-03-20T12:08:53.521Z</time>
      </trkpt>
      <trkpt lat="45.819921" lon="8.837921">
        <ele>375.698139</ele>
        <time>2024-03-20T12:08:56.458Z</time>
      </trkpt>
      <trkpt lat="45.819958" lon="8.838893">
        <ele>375.783283</ele>
        <time>2024-03-20T12:09:11.362Z</time>
      </trkpt>
      <trkpt lat="45.819961" lon="8.839047">
        <ele>375.778212</ele>
        <time>2024-03-20T12:09:13.887Z</time>
      </trkpt>
      <trkpt lat="45.819961" lon="8.839306">
        <ele>375.769685</ele>
        <time>2024-03-20T12:09:17.748Z</time>
      </trkpt>
      <trkpt lat="45.819965" lon="8.839486">
        <ele>375.763756</ele>
        <time>2024-03-20T12:09:21.011Z</time>
      </trkpt>
      <trkpt lat="45.819979" lon="8.840858">
        <ele>375.718585</ele>
        <time>2024-03-20T12:09:41.791Z</time>
      </trkpt>
      <trkpt lat="45.819958" lon="8.841045">
        <ele>375.669968</ele>
        <time>2024-03-20T12:09:44.694Z</time>
      </trkpt>
      <trkpt lat="45.819947" lon="8.841208">
        <ele>375.624644</ele>
        <time>2024-03-20T12:09:47.101Z</time>
      </trkpt>
      <trkpt lat="45.819623" lon="8.841750">
        <ele>375.427009</ele>
        <time>2024-03-20T12:09:57.796Z</time>
      </trkpt>
      <trkpt lat="45.819069" lon="8.842602">
        <ele>375.104499</ele>
        <time>2024-03-20T12:10:14.699Z</time>
      </trkpt>
      <trkpt lat="45.818939" lon="8.842801">
        <ele>375.029007</ele>
        <time>2024-03-20T12:10:18.976Z</time>
      </trkpt>
      <trkpt lat="45.818807" lon="8.843008">
        <ele>374.879683</ele>
        <time>2024-03-20T12:10:22.801Z</time>
      </trkpt>
      <trkpt lat="45.818750" lon="8.843094">
        <ele>374.801921</ele>
        <time>2024-03-20T12:10:25.085Z</time>
      </trkpt>
      <trkpt lat="45.818432" lon="8.843602">
        <ele>374.354511</ele>
        <time>2024-03-20T12:10:34.714Z</time>
      </trkpt>
      <trkpt lat="45.818270" lon="8.843745">
        <ele>374.175692</ele>
        <time>2024-03-20T12:10:38.518Z</time>
      </trkpt>
      <trkpt lat="45.818232" lon="8.843779">
        <ele>374.133589</ele>
        <time>2024-03-20T12:10:39.773Z</time>
      </trkpt>
      <trkpt lat="45.818036" lon="8.844086">
        <ele>373.860789</ele>
        <time>2024-03-20T12:10:45.436Z</time>
      </trkpt>
      <trkpt lat="45.818014" lon="8.844125">
        <ele>373.827914</ele>
        <time>2024-03-20T12:10:46.292Z</time>
      </trkpt>
      <trkpt lat="45.817947" lon="8.844307">
        <ele>373.693047</ele>
        <time>2024-03-20T12:10:49.228Z</time>
      </trkpt>
      <trkpt lat="45.817862" lon="8.844524">
        <ele>373.529943</ele>
        <time>2024-03-20T12:10:52.437Z</time>
      </trkpt>
      <trkpt lat="45.817570" lon="8.844991">
        <ele>372.993630</ele>
        <time>2024-03-20T12:11:00.740Z</time>
      </trkpt>
      <trkpt lat="45.817196" lon="8.845592">
        <ele>372.124772</ele>
        <time>2024-03-20T12:11:11.409Z</time>
      </trkpt>
      <trkpt lat="45.816800" lon="8.846234">
        <ele>371.200249</ele>
        <time>2024-03-20T12:11:22.793Z</time>
      </trkpt>
      <trkpt lat="45.816507" lon="8.846706">
        <ele>370.517911</ele>
        <time>2024-03-20T12:11:31.004Z</time>
      </trkpt>
      <trkpt lat="45.816138" lon="8.847302">
        <ele>369.602989</ele>
        <time>2024-03-20T12:11:41.469Z</time>
      </trkpt>
      <trkpt lat="45.815669" lon="8.848035">
        <ele>368.461000</ele>
        <time>2024-03-20T12:11:54.289Z</time>
      </trkpt>
      <trkpt lat="45.815252" lon="8.848702">
        <ele>367.487982</ele>
        <time>2024-03-20T12:12:06.371Z</time>
      </trkpt>
      <trkpt lat="45.814857" lon="8.849370">
        <ele>366.893770</ele>
        <time>2024-03-20T12:12:17.982Z</time>
      </trkpt>
      <trkpt lat="45.814717" lon="8.849586">
        <ele>366.693692</ele>
        <time>2024-03-20T12:12:21.980Z</time>
      </trkpt>
      <trkpt lat="45.814149" lon="8.850506">
        <ele>365.860017</ele>
        <time>2024-03-20T12:12:39.331Z</time>
      </trkpt>
      <trkpt lat="45.813920" lon="8.851266">
        <ele>365.833498</ele>
        <time>2024-03-20T12:12:52.508Z</time>
      </trkpt>
      <trkpt lat="45.813367" lon="8.852004">
        <ele>365.856178</ele>
        <time>2024-03-20T12:13:10.994Z</time>
      </trkpt>
      <trkpt lat="45.812792" lon="8.852733">
        <ele>365.185759</ele>
        <time>2024-03-20T12:13:28.011Z</time>
      </trkpt>
      <trkpt lat="45.812619" lon="8.852990">
        <ele>364.522125</ele>
        <time>2024-03-20T12:13:33.155Z</time>
      </trkpt>
      <trkpt lat="45.812474" lon="8.853033">
        <ele>364.127553</ele>
        <time>2024-03-20T12:13:35.986Z</time>
      </trkpt>
      <trkpt lat="45.812453" lon="8.853031">
        <ele>364.071468</ele>
        <time>2024-03-20T12:13:36.390Z</time>
      </trkpt>
      <trkpt lat="45.812351" lon="8.853094">
        <ele>363.775534</ele>
        <time>2024-03-20T12:13:38.551Z</time>
      </trkpt>
      <trkpt lat="45.812120" lon="8.853370">
        <ele>362.974438</ele>
        <time>2024-03-20T12:13:43.894Z</time>
      </trkpt>
      <trkpt lat="45.812091" lon="8.853448">
        <ele>362.810235</ele>
        <time>2024-03-20T12:13:44.994Z</time>
      </trkpt>
      <trkpt lat="45.812092" lon="8.853505">
        <ele>362.704327</ele>
        <time>2024-03-20T12:13:45.670Z</time>
      </trkpt>
      <trkpt lat="45.812009" lon="8.853682">
        <ele>362.308083</ele>
        <time>2024-03-20T12:13:48.141Z</time>
      </trkpt>
      <trkpt lat="45.811878" lon="8.853863">
        <ele>361.823421</ele>
        <time>2024-03-20T12:13:51.164Z</time>
      </trkpt>
      <trkpt lat="45.811314" lon="8.854152">
        <ele>358.847761</ele>
        <time>2024-03-20T12:14:00.399Z</time>
      </trkpt>
      <trkpt lat="45.811025" lon="8.854299">
        <ele>356.705752</ele>
        <time>2024-03-20T12:14:04.932Z</time>
      </trkpt>
      <trkpt lat="45.810651" lon="8.854494">
        <ele>353.925899</ele>
        <time>2024-03-20T12:14:10.738Z</time>
      </trkpt>
      <trkpt lat="45.810145" lon="8.854757">
        <ele>350.166286</ele>
        <time>2024-03-20T12:14:18.732Z</time>
      </trkpt>
      <trkpt lat="45.810062" lon="8.854799">
        <ele>349.551460</ele>
        <time>2024-03-20T12:14:20.004Z</time>
      </trkpt>
      <trkpt lat="45.809923" lon="8.854952">
        <ele>348.385126</ele>
        <time>2024-03-20T12:14:22.693Z</time>
      </trkpt>
      <trkpt lat="45.809755" lon="8.855215">
        <ele>347.185744</ele>
        <time>2024-03-20T12:14:26.447Z</time>
      </trkpt>
      <trkpt lat="45.809514" lon="8.855695">
        <ele>345.196850</ele>
        <time>2024-03-20T12:14:32.865Z</time>
      </trkpt>
      <trkpt lat="45.809259" lon="8.856080">
        <ele>343.411249</ele>
        <time>2024-03-20T12:14:38.820Z</time>
      </trkpt>
      <trkpt lat="45.809139" lon="8.856352">
        <ele>342.328962</ele>
        <time>2024-03-20T12:14:42.461Z</time>
      </trkpt>
      <trkpt lat="45.809062" lon="8.856642">
        <ele>341.285593</ele>
        <time>2024-03-20T12:14:46.086Z</time>
      </trkpt>
      <trkpt lat="45.808943" lon="8.858311">
        <ele>336.000220</ele>
        <time>2024-03-20T12:15:06.383Z</time>
      </trkpt>
      <trkpt lat="45.808917" lon="8.858664">
        <ele>334.907913</ele>
        <time>2024-03-20T12:15:10.432Z</time>
      </trkpt>
      <trkpt lat="45.808866" lon="8.858875">
        <ele>334.220691</ele>
        <time>2024-03-20T12:15:12.959Z</time>
      </trkpt>
      <trkpt lat="45.808703" lon="8.859085">
        <ele>333.253531</ele>
        <time>2024-03-20T12:15:16.357Z</time>
      </trkpt>
      <trkpt lat="45.808468" lon="8.859211">
        <ele>332.146007</ele>
        <time>2024-03-20T12:15:20.236Z</time>
      </trkpt>
      <trkpt lat="45.807424" lon="8.859554">
        <ele>323.954077</ele>
        <time>2024-03-20T12:15:36.024Z</time>
      </trkpt>
      <trkpt lat="45.807075" lon="8.859781">
        <ele>320.954419</ele>
        <time>2024-03-20T12:15:41.563Z</time>
      </trkpt>
      <trkpt lat="45.806905" lon="8.859978">
        <ele>319.243722</ele>
        <time>2024-03-20T12:15:44.719Z</time>
      </trkpt>
      <trkpt lat="45.806691" lon="8.860289">
        <ele>317.083796</ele>
        <time>2024-03-20T12:15:49.166Z</time>
      </trkpt>
      <trkpt lat="45.806398" lon="8.860828">
        <ele>314.228033</ele>
        <time>2024-03-20T12:15:56.214Z</time>
      </trkpt>
      <trkpt lat="45.805979" lon="8.861598">
        <ele>310.146774</ele>
        <time>2024-03-20T12:16:06.663Z</time>
      </trkpt>
      <trkpt lat="45.805733" lon="8.862059">
        <ele>307.721111</ele>
        <time>2024-03-20T12:16:13.214Z</time>
      </trkpt>
      <trkpt lat="45.805467" lon="8.862638">
        <ele>306.418603</ele>
        <time>2024-03-20T12:16:21.536Z</time>
      </trkpt>
      <trkpt lat="45.805333" lon="8.862861">
        <ele>306.074710</ele>
        <time>2024-03-20T12:16:25.318Z</time>
      </trkpt>
      <trkpt lat="45.805149" lon="8.863014">
        <ele>305.718347</ele>
        <time>2024-03-20T12:16:29.282Z</time>
      </trkpt>
      <trkpt lat="45.805083" lon="8.863032">
        <ele>305.605776</ele>
        <time>2024-03-20T12:16:30.757Z</time>
      </trkpt>
      <trkpt lat="45.804963" lon="8.863162">
        <ele>305.353808</ele>
        <time>2024-03-20T12:16:33.564Z</time>
      </trkpt>
      <trkpt lat="45.804919" lon="8.863368">
        <ele>305.102144</ele>
        <time>2024-03-20T12:16:36.702Z</time>
      </trkpt>
      <trkpt lat="45.804919" lon="8.863387">
        <ele>305.079951</ele>
        <time>2024-03-20T12:16:37.051Z</time>
      </trkpt>
      <trkpt lat="45.804968" lon="8.863573">
        <ele>304.847693</ele>
        <time>2024-03-20T12:16:39.917Z</time>
      </trkpt>
      <trkpt lat="45.805053" lon="8.863674">
        <ele>304.662752</ele>
        <time>2024-03-20T12:16:42.080Z</time>
      </trkpt>
      <trkpt lat="45.805185" lon="8.863709">
        <ele>304.437826</ele>
        <time>2024-03-20T12:16:45.102Z</time>
      </trkpt>
      <trkpt lat="45.805386" lon="8.863895">
        <ele>304.037035</ele>
        <time>2024-03-20T12:16:49.923Z</time>
      </trkpt>
      <trkpt lat="45.805702" lon="8.864390">
        <ele>303.817083</ele>
        <time>2024-03-20T12:17:00.006Z</time>
      </trkpt>
      <trkpt lat="45.806045" lon="8.864746">
        <ele>303.626948</ele>
        <time>2024-03-20T12:17:08.567Z</time>
      </trkpt>
      <trkpt lat="45.806287" lon="8.864889">
        <ele>303.509403</ele>
        <time>2024-03-20T12:17:14.055Z</time>
      </trkpt>
      <trkpt lat="45.806536" lon="8.864988">
        <ele>303.393359</ele>
        <time>2024-03-20T12:17:19.540Z</time>
      </trkpt>
      <trkpt lat="45.807022" lon="8.865049">
        <ele>303.229839</ele>
        <time>2024-03-20T12:17:29.958Z</time>
      </trkpt>
      <trkpt lat="45.807022" lon="8.865049">
        <ele>303.229839</ele>
        <time>2024-03-20T12:17:29.958Z</time>
      </trkpt>
      <trkpt lat="45.807210" lon="8.864972">
        <ele>303.259413</ele>
        <time>2024-03-20T12:17:34.193Z</time>
      </trkpt>
      <trkpt lat="45.807425" lon="8.864807">
        <ele>303.296296</ele>
        <time>2024-03-20T12:17:39.566Z</time>
      </trkpt>
      <trkpt lat="45.808075" lon="8.864459">
        <ele>303.401241</ele>
        <time>2024-03-20T12:17:55.649Z</time>
      </trkpt>
      <trkpt lat="45.808451" lon="8.864396">
        <ele>303.458503</ele>
        <time>2024-03-20T12:18:04.558Z</time>
      </trkpt>
      <trkpt lat="45.808579" lon="8.864460">
        <ele>303.479007</ele>
        <time>2024-03-20T12:18:07.980Z</time>
      </trkpt>
      <trkpt lat="45.808646" lon="8.864446">
        <ele>303.496738</ele>
        <time>2024-03-20T12:18:09.576Z</time>
      </trkpt>
      <trkpt lat="45.808707" lon="8.864402">
        <ele>303.564624</ele>
        <time>2024-03-20T12:18:11.172Z</time>
      </trkpt>
      <trkpt lat="45.808786" lon="8.864245">
        <ele>303.698825</ele>
        <time>2024-03-20T12:18:14.708Z</time>
      </trkpt>
      <trkpt lat="45.809119" lon="8.863893">
        <ele>304.110093</ele>
        <time>2024-03-20T12:18:25.723Z</time>
      </trkpt>
      <trkpt lat="45.809268" lon="8.863785">
        <ele>304.276077</ele>
        <time>2024-03-20T12:18:30.002Z</time>
      </trkpt>
      <trkpt lat="45.809395" lon="8.863693">
        <ele>304.417536</ele>
        <time>2024-03-20T12:18:34.009Z</time>
      </trkpt>
      <trkpt lat="45.810429" lon="8.862966">
        <ele>305.755919</ele>
        <time>2024-03-20T12:19:07.005Z</time>
      </trkpt>
      <trkpt lat="45.810852" lon="8.862626">
        <ele>306.563913</ele>
        <time>2024-03-20T12:19:21.337Z</time>
      </trkpt>
      <trkpt lat="45.811725" lon="8.861697">
        <ele>308.327036</ele>
        <time>2024-03-20T12:19:56.096Z</time>
      </trkpt>
      <trkpt lat="45.811985" lon="8.861469">
        <ele>308.594103</ele>
        <time>2024-03-20T12:20:05.466Z</time>
      </trkpt>
      <trkpt lat="45.812328" lon="8.861250">
        <ele>308.923142</ele>
        <time>2024-03-20T12:20:16.263Z</time>
      </trkpt>
      <trkpt lat="45.812571" lon="8.861180">
        <ele>309.140365</ele>
        <time>2024-03-20T12:20:23.048Z</time>
      </trkpt>
      <trkpt lat="45.812563" lon="8.861270">
        <ele>309.195789</ele>
        <time>2024-03-20T12:20:24.446Z</time>
      </trkpt>
      <trkpt lat="45.812594" lon="8.861391">
        <ele>309.274540</ele>
        <time>2024-03-20T12:20:26.854Z</time>
      </trkpt>
      <trkpt lat="45.812689" lon="8.861467">
        <ele>309.369870</ele>
        <time>2024-03-20T12:20:30.286Z</time>
      </trkpt>
      <trkpt lat="45.812621" lon="8.861622">
        <ele>309.481750</ele>
        <time>2024-03-20T12:20:32.923Z</time>
      </trkpt>
      <trkpt lat="45.812322" lon="8.861821">
        <ele>309.770625</ele>
        <time>2024-03-20T12:20:41.038Z</time>
      </trkpt>
      <trkpt lat="45.812273" lon="8.861912">
        <ele>309.840872</ele>
        <time>2024-03-20T12:20:42.690Z</time>
      </trkpt>
      <trkpt lat="45.812253" lon="8.862060">
        <ele>309.756510</ele>
        <time>2024-03-20T12:20:45.185Z</time>
      </trkpt>
      <trkpt lat="45.812318" lon="8.863074">
        <ele>309.056135</ele>
        <time>2024-03-20T12:20:59.578Z</time>
      </trkpt>
      <trkpt lat="45.812334" lon="8.863155">
        <ele>308.998230</ele>
        <time>2024-03-20T12:21:00.981Z</time>
      </trkpt>
      <trkpt lat="45.812354" lon="8.863254">
        <ele>308.927335</ele>
        <time>2024-03-20T12:21:02.387Z</time>
      </trkpt>
      <trkpt lat="45.812467" lon="8.863727">
        <ele>308.583426</ele>
        <time>2024-03-20T12:21:08.948Z</time>
      </trkpt>
      <trkpt lat="45.812483" lon="8.863859">
        <ele>308.491274</ele>
        <time>2024-03-20T12:21:10.718Z</time>
      </trkpt>
      <trkpt lat="45.812457" lon="8.864273">
        <ele>308.205372</ele>
        <time>2024-03-20T12:21:16.202Z</time>
      </trkpt>
      <trkpt lat="45.812350" lon="8.864948">
        <ele>307.711892</ele>
        <time>2024-03-20T12:21:25.355Z</time>
      </trkpt>
      <trkpt lat="45.812169" lon="8.866047">
        <ele>306.896195</ele>
        <time>2024-03-20T12:21:40.623Z</time>
      </trkpt>
      <trkpt lat="45.812201" lon="8.866401">
        <ele>306.638349</ele>
        <time>2024-03-20T12:21:45.375Z</time>
      </trkpt>
      <trkpt lat="45.812277" lon="8.866712">
        <ele>306.400298</ele>
        <time>2024-03-20T12:21:50.104Z</time>
      </trkpt>
      <trkpt lat="45.812418" lon="8.867209">
        <ele>306.337807</ele>
        <time>2024-03-20T12:21:58.360Z</time>
      </trkpt>
      <trkpt lat="45.812684" lon="8.867874">
        <ele>306.691436</ele>
        <time>2024-03-20T12:22:11.875Z</time>
      </trkpt>
      <trkpt lat="45.812861" lon="8.868112">
        <ele>306.851958</ele>
        <time>2024-03-20T12:22:17.749Z</time>
      </trkpt>
      <trkpt lat="45.813125" lon="8.868222">
        <ele>307.033869</ele>
        <time>2024-03-20T12:22:25.398Z</time>
      </trkpt>
      <trkpt lat="45.813750" lon="8.868298">
        <ele>307.461871</ele>
        <time>2024-03-20T12:22:43.394Z</time>
      </trkpt>
      <trkpt lat="45.814430" lon="8.868261">
        <ele>308.034596</ele>
        <time>2024-03-20T12:23:12.768Z</time>
      </trkpt>
      <trkpt lat="45.814575" lon="8.868303">
        <ele>308.159095</ele>
        <time>2024-03-20T12:23:19.351Z</time>
      </trkpt>
      <trkpt lat="45.814973" lon="8.868547">
        <ele>308.523365</ele>
        <time>2024-03-20T12:23:37.446Z</time>
      </trkpt>
      <trkpt lat="45.816214" lon="8.869529">
        <ele>308.710364</ele>
        <time>2024-03-20T12:24:29.668Z</time>
      </trkpt>
      <trkpt lat="45.816283" lon="8.869556">
        <ele>308.694978</ele>
        <time>2024-03-20T12:24:32.222Z</time>
      </trkpt>
      <trkpt lat="45.816480" lon="8.869540">
        <ele>308.652531</ele>
        <time>2024-03-20T12:24:39.300Z</time>
      </trkpt>
      <trkpt lat="45.816699" lon="8.869456">
        <ele>308.603765</ele>
        <time>2024-03-20T12:24:47.455Z</time>
      </trkpt>
      <trkpt lat="45.817243" lon="8.869106">
        <ele>308.499446</ele>
        <time>2024-03-20T12:25:08.867Z</time>
      </trkpt>
      <trkpt lat="45.817440" lon="8.869026">
        <ele>308.475417</ele>
        <time>2024-03-20T12:25:16.190Z</time>
      </trkpt>
      <trkpt lat="45.817934" lon="8.868989">
        <ele>308.417359</ele>
        <time>2024-03-20T12:25:34.072Z</time>
      </trkpt>
      <trkpt lat="45.818352" lon="8.868806">
        <ele>308.366067</ele>
        <time>2024-03-20T12:25:50.265Z</time>
      </trkpt>
      <trkpt lat="45.818566" lon="8.868786">
        <ele>308.340898</ele>
        <time>2024-03-20T12:25:58.336Z</time>
      </trkpt>
      <trkpt lat="45.819068" lon="8.868813">
        <ele>308.656760</ele>
        <time>2024-03-20T12:26:17.727Z</time>
      </trkpt>
      <trkpt lat="45.819743" lon="8.869165">
        <ele>309.471483</ele>
        <time>2024-03-20T12:26:46.723Z</time>
      </trkpt>
      <trkpt lat="45.820213" lon="8.869221">
        <ele>310.006486</ele>
        <time>2024-03-20T12:27:07.338Z</time>
      </trkpt>
      <trkpt lat="45.820711" lon="8.869388">
        <ele>311.089437</ele>
        <time>2024-03-20T12:27:32.533Z</time>
      </trkpt>
      <trkpt lat="45.820814" lon="8.869382">
        <ele>311.462935</ele>
        <time>2024-03-20T12:27:37.778Z</time>
      </trkpt>
      <trkpt lat="45.820923" lon="8.869331">
        <ele>311.878330</ele>
        <time>2024-03-20T12:27:43.490Z</time>
      </trkpt>
      <trkpt lat="45.821010" lon="8.869422">
        <ele>312.268408</ele>
        <time>2024-03-20T12:27:49.362Z</time>
      </trkpt>
      <trkpt lat="45.821068" lon="8.869409">
        <ele>312.481102</ele>
        <time>2024-03-20T12:27:52.408Z</time>
      </trkpt>
      <trkpt lat="45.821101" lon="8.869444">
        <ele>312.629784</ele>
        <time>2024-03-20T12:27:54.561Z</time>
      </trkpt>
      <trkpt lat="45.821165" lon="8.869425">
        <ele>312.866580</ele>
        <time>2024-03-20T12:27:57.935Z</time>
      </trkpt>
      <trkpt lat="45.821180" lon="8.869368">
        <ele>313.020425</ele>
        <time>2024-03-20T12:28:00.100Z</time>
      </trkpt>
      <trkpt lat="45.821204" lon="8.869358">
        <ele>313.110974</ele>
        <time>2024-03-20T12:28:01.378Z</time>
      </trkpt>
      <trkpt lat="45.821540" lon="8.869703">
        <ele>314.607945</ele>
        <time>2024-03-20T12:28:24.016Z</time>
      </trkpt>
      <trkpt lat="45.821693" lon="8.869798">
        <ele>315.211968</ele>
        <time>2024-03-20T12:28:33.464Z</time>
      </trkpt>
      <trkpt lat="45.821981" lon="8.869787">
        <ele>316.255822</ele>
        <time>2024-03-20T12:28:50.244Z</time>
      </trkpt>
      <trkpt lat="45.822251" lon="8.869819">
        <ele>317.393431</ele>
        <time>2024-03-20T12:29:07.100Z</time>
      </trkpt>
      <trkpt lat="45.822619" lon="8.869795">
        <ele>319.301639</ele>
        <time>2024-03-20T12:29:31.969Z</time>
      </trkpt>
      <trkpt lat="45.822885" lon="8.869933">
        <ele>320.766806</ele>
        <time>2024-03-20T12:29:51.823Z</time>
      </trkpt>
      <trkpt lat="45.823081" lon="8.869939">
        <ele>321.782317</ele>
        <time>2024-03-20T12:30:05.375Z</time>
      </trkpt>
      <trkpt lat="45.823139" lon="8.869910">
        <ele>322.100473</ele>
        <time>2024-03-20T12:30:09.389Z</time>
      </trkpt>
      <trkpt lat="45.823178" lon="8.869944">
        <ele>322.336854</ele>
        <time>2024-03-20T12:30:12.410Z</time>
      </trkpt>
      <trkpt lat="45.823296" lon="8.869952">
        <ele>322.948775</ele>
        <time>2024-03-20T12:30:20.120Z</time>
      </trkpt>
      <trkpt lat="45.823550" lon="8.869936">
        <ele>324.265763</ele>
        <time>2024-03-20T12:30:35.759Z</time>
      </trkpt>
      <trkpt lat="45.823641" lon="8.869848">
        <ele>324.834188</ele>
        <time>2024-03-20T12:30:42.148Z</time>
      </trkpt>
      <trkpt lat="45.823800" lon="8.869888">
        <ele>325.670369</ele>
        <time>2024-03-20T12:30:51.261Z</time>
      </trkpt>
      <trkpt lat="45.823945" lon="8.869987">
        <ele>326.440754</ele>
        <time>2024-03-20T12:31:00.009Z</time>
      </trkpt>
      <trkpt lat="45.824101" lon="8.870029">
        <ele>327.100541</ele>
        <time>2024-03-20T12:31:08.662Z</time>
      </trkpt>
      <trkpt lat="45.824229" lon="8.870141">
        <ele>327.723734</ele>
        <time>2024-03-20T12:31:16.630Z</time>
      </trkpt>
      <trkpt lat="45.824382" lon="8.870041">
        <ele>328.422599</ele>
        <time>2024-03-20T12:31:25.880Z</time>
      </trkpt>
      <trkpt lat="45.824586" lon="8.870067">
        <ele>329.273940</ele>
        <time>2024-03-20T12:31:37.704Z</time>
      </trkpt>
      <trkpt lat="45.824695" lon="8.869872">
        <ele>329.998075</ele>
        <time>2024-03-20T12:31:48.128Z</time>
      </trkpt>
      <trkpt lat="45.824745" lon="8.869858">
        <ele>330.209839</ele>
        <time>2024-03-20T12:31:51.211Z</time>
      </trkpt>
      <trkpt lat="45.824992" lon="8.869574">
        <ele>331.525515</ele>
        <time>2024-03-20T12:32:10.869Z</time>
      </trkpt>
      <trkpt lat="45.825100" lon="8.869562">
        <ele>331.975801</ele>
        <time>2024-03-20T12:32:17.215Z</time>
      </trkpt>
      <trkpt lat="45.825432" lon="8.869594">
        <ele>333.358994</ele>
        <time>2024-03-20T12:32:36.471Z</time>
      </trkpt>
      <trkpt lat="45.825678" lon="8.869710">
        <ele>334.469198</ele>
        <time>2024-03-20T12:32:50.883Z</time>
      </trkpt>
      <trkpt lat="45.826202" lon="8.869701">
        <ele>336.743569</ele>
        <time>2024-03-20T12:33:19.915Z</time>
      </trkpt>
      <trkpt lat="45.826462" lon="8.869747">
        <ele>337.880536</ele>
        <time>2024-03-20T12:33:34.719Z</time>
      </trkpt>
      <trkpt lat="45.827491" lon="8.869723">
        <ele>342.732299</ele>
        <time>2024-03-20T12:34:37.698Z</time>
      </trkpt>
      <trkpt lat="45.828024" lon="8.869818">
        <ele>346.092208</ele>
        <time>2024-03-20T12:35:11.841Z</time>
      </trkpt>
      <trkpt lat="45.828261" lon="8.869959">
        <ele>347.697161</ele>
        <time>2024-03-20T12:35:28.339Z</time>
      </trkpt>
      <trkpt lat="45.828261" lon="8.869959">
        <ele>347.697161</ele>
        <time>2024-03-20T12:35:28.346Z</time>
      </trkpt>
      <trkpt lat="45.828541" lon="8.870212">
        <ele>349.767027</ele>
        <time>2024-03-20T12:35:50.779Z</time>
      </trkpt>
      <trkpt lat="45.828703" lon="8.870402">
        <ele>351.075830</ele>
        <time>2024-03-20T12:36:05.757Z</time>
      </trkpt>
      <trkpt lat="45.828907" lon="8.870804">
        <ele>353.609221</ele>
        <time>2024-03-20T12:36:32.030Z</time>
      </trkpt>
      <trkpt lat="45.829023" lon="8.871225">
        <ele>356.976849</ele>
        <time>2024-03-20T12:36:59.159Z</time>
      </trkpt>
      <trkpt lat="45.829121" lon="8.872096">
        <ele>363.539836</ele>
        <time>2024-03-20T12:37:57.228Z</time>
      </trkpt>
      <trkpt lat="45.829113" lon="8.872272">
        <ele>364.851821</ele>
        <time>2024-03-20T12:38:08.929Z</time>
      </trkpt>
      <trkpt lat="45.829036" lon="8.872500">
        <ele>366.736537</ele>
        <time>2024-03-20T12:38:26.255Z</time>
      </trkpt>
      <trkpt lat="45.828947" lon="8.872670">
        <ele>368.318263</ele>
        <time>2024-03-20T12:38:40.062Z</time>
      </trkpt>
      <trkpt lat="45.828766" lon="8.872879">
        <ele>370.798312</ele>
        <time>2024-03-20T12:39:02.220Z</time>
      </trkpt>
      <trkpt lat="45.828666" lon="8.872940">
        <ele>371.957897</ele>
        <time>2024-03-20T12:39:12.439Z</time>
      </trkpt>
      <trkpt lat="45.828585" lon="8.873126">
        <ele>373.568785</ele>
        <time>2024-03-20T12:39:27.012Z</time>
      </trkpt>
      <trkpt lat="45.828549" lon="8.873194">
        <ele>374.195994</ele>
        <time>2024-03-20T12:39:32.337Z</time>
      </trkpt>
      <trkpt lat="45.828306" lon="8.873696">
        <ele>378.685192</ele>
        <time>2024-03-20T12:40:12.298Z</time>
      </trkpt>
      <trkpt lat="45.828306" lon="8.873780">
        <ele>379.302120</ele>
        <time>2024-03-20T12:40:17.601Z</time>
      </trkpt>
      <trkpt lat="45.828392" lon="8.873930">
        <ele>380.728754</ele>
        <time>2024-03-20T12:40:30.121Z</time>
      </trkpt>
      <trkpt lat="45.828420" lon="8.874045">
        <ele>381.623433</ele>
        <time>2024-03-20T12:40:37.950Z</time>
      </trkpt>
      <trkpt lat="45.828409" lon="8.874214">
        <ele>382.870035</ele>
        <time>2024-03-20T12:40:48.996Z</time>
      </trkpt>
      <trkpt lat="45.828332" lon="8.874541">
        <ele>385.405070</ele>
        <time>2024-03-20T12:41:10.631Z</time>
      </trkpt>
      <trkpt lat="45.827766" lon="8.875916">
        <ele>395.892675</ele>
        <time>2024-03-20T12:42:43.164Z</time>
      </trkpt>
      <trkpt lat="45.827519" lon="8.876163">
        <ele>398.435400</ele>
        <time>2024-03-20T12:43:07.552Z</time>
      </trkpt>
      <trkpt lat="45.827078" lon="8.877605">
        <ele>407.171076</ele>
        <time>2024-03-20T12:44:32.066Z</time>
      </trkpt>
      <trkpt lat="45.826877" lon="8.878357">
        <ele>410.359753</ele>
        <time>2024-03-20T12:45:12.227Z</time>
      </trkpt>
      <trkpt lat="45.826962" lon="8.879004">
        <ele>412.966359</ele>
        <time>2024-03-20T12:45:42.707Z</time>
      </trkpt>
      <trkpt lat="45.826852" lon="8.879896">
        <ele>416.305797</ele>
        <time>2024-03-20T12:46:19.124Z</time>
      </trkpt>
      <trkpt lat="45.826751" lon="8.880179">
        <ele>416.355733</ele>
        <time>2024-03-20T12:46:30.815Z</time>
      </trkpt>
      <trkpt lat="45.826370" lon="8.880362">
        <ele>416.446285</ele>
        <time>2024-03-20T12:46:49.348Z</time>
      </trkpt>
      <trkpt lat="45.826011" lon="8.880448">
        <ele>416.528316</ele>
        <time>2024-03-20T12:47:03.716Z</time>
      </trkpt>
      <trkpt lat="45.825196" lon="8.880887">
        <ele>416.198064</ele>
        <time>2024-03-20T12:47:32.420Z</time>
      </trkpt>
      <trkpt lat="45.824762" lon="8.881252">
        <ele>413.775527</ele>
        <time>2024-03-20T12:47:47.302Z</time>
      </trkpt>
      <trkpt lat="45.823185" lon="8.880254">
        <ele>405.425095</ele>
        <time>2024-03-20T12:48:35.901Z</time>
      </trkpt>
      <trkpt lat="45.822991" lon="8.880287">
        <ele>404.465866</ele>
        <time>2024-03-20T12:48:41.336Z</time>
      </trkpt>
      <trkpt lat="45.822848" lon="8.880480">
        <ele>403.501952</ele>
        <time>2024-03-20T12:48:46.761Z</time>
      </trkpt>
      <trkpt lat="45.822420" lon="8.882617">
        <ele>398.198005</ele>
        <time>2024-03-20T12:49:33.215Z</time>
      </trkpt>
      <trkpt lat="45.822327" lon="8.882968">
        <ele>397.806556</ele>
        <time>2024-03-20T12:49:42.161Z</time>
      </trkpt>
      <trkpt lat="45.822202" lon="8.883971">
        <ele>396.744402</ele>
        <time>2024-03-20T12:49:58.182Z</time>
      </trkpt>
      <trkpt lat="45.822183" lon="8.884308">
        <ele>396.573320</ele>
        <time>2024-03-20T12:50:04.879Z</time>
      </trkpt>
      <trkpt lat="45.822470" lon="8.884440">
        <ele>396.775936</ele>
        <time>2024-03-20T12:50:17.841Z</time>
      </trkpt>
      <trkpt lat="45.822618" lon="8.884575">
        <ele>396.893836</ele>
        <time>2024-03-20T12:50:25.867Z</time>
      </trkpt>
      <trkpt lat="45.823178" lon="8.885597">
        <ele>397.502933</ele>
        <time>2024-03-20T12:51:04.026Z</time>
      </trkpt>
      <trkpt lat="45.823425" lon="8.886167">
        <ele>397.676915</ele>
        <time>2024-03-20T12:51:21.034Z</time>
      </trkpt>
      <trkpt lat="45.823695" lon="8.886484">
        <ele>397.549807</ele>
        <time>2024-03-20T12:51:33.512Z</time>
      </trkpt>
      <trkpt lat="45.823934" lon="8.887045">
        <ele>397.382856</ele>
        <time>2024-03-20T12:51:49.749Z</time>
      </trkpt>
      <trkpt lat="45.824916" lon="8.888626">
        <ele>397.273212</ele>
        <time>2024-03-20T12:52:42.869Z</time>
      </trkpt>
      <trkpt lat="45.825142" lon="8.889158">
        <ele>397.414905</ele>
        <time>2024-03-20T12:52:59.504Z</time>
      </trkpt>
      <trkpt lat="45.825216" lon="8.889559">
        <ele>397.509242</ele>
        <time>2024-03-20T12:53:11.126Z</time>
      </trkpt>
      <trkpt lat="45.825242" lon="8.889950">
        <ele>397.598565</ele>
        <time>2024-03-20T12:53:22.415Z</time>
      </trkpt>
      <trkpt lat="45.825151" lon="8.890418">
        <ele>397.878534</ele>
        <time>2024-03-20T12:53:36.807Z</time>
      </trkpt>
      <trkpt lat="45.825161" lon="8.890707">
        <ele>398.162426</ele>
        <time>2024-03-20T12:53:45.549Z</time>
      </trkpt>
      <trkpt lat="45.825120" lon="8.891214">
        <ele>398.663192</ele>
        <time>2024-03-20T12:54:01.205Z</time>
      </trkpt>
      <trkpt lat="45.825153" lon="8.891785">
        <ele>399.225335</ele>
        <time>2024-03-20T12:54:18.911Z</time>
      </trkpt>
      <trkpt lat="45.825114" lon="8.892321">
        <ele>399.754074</ele>
        <time>2024-03-20T12:54:35.504Z</time>
      </trkpt>
      <trkpt lat="45.825116" lon="8.892638">
        <ele>400.065101</ele>
        <time>2024-03-20T12:54:45.383Z</time>
      </trkpt>
      <trkpt lat="45.825225" lon="8.892983">
        <ele>400.609617</ele>
        <time>2024-03-20T12:54:57.306Z</time>
      </trkpt>
      <trkpt lat="45.825546" lon="8.893769">
        <ele>402.130390</ele>
        <time>2024-03-20T12:55:27.320Z</time>
      </trkpt>
      <trkpt lat="45.825617" lon="8.894144">
        <ele>402.779059</ele>
        <time>2024-03-20T12:55:40.915Z</time>
      </trkpt>
      <trkpt lat="45.825719" lon="8.894388">
        <ele>403.254028</ele>
        <time>2024-03-20T12:55:51.377Z</time>
      </trkpt>
      <trkpt lat="45.825903" lon="8.894689">
        <ele>403.922405</ele>
        <time>2024-03-20T12:56:05.438Z</time>
      </trkpt>
      <trkpt lat="45.826059" lon="8.895035">
        <ele>404.642486</ele>
        <time>2024-03-20T12:56:20.229Z</time>
      </trkpt>
      <trkpt lat="45.826142" lon="8.895430">
        <ele>405.529966</ele>
        <time>2024-03-20T12:56:35.283Z</time>
      </trkpt>
      <trkpt lat="45.826169" lon="8.895735">
        <ele>406.191329</ele>
        <time>2024-03-20T12:56:46.759Z</time>
      </trkpt>
      <trkpt lat="45.826169" lon="8.896040">
        <ele>406.847419</ele>
        <time>2024-03-20T12:56:57.888Z</time>
      </trkpt>
      <trkpt lat="45.826119" lon="8.896073">
        <ele>407.017308</ele>
        <time>2024-03-20T12:56:59.920Z</time>
      </trkpt>
      <trkpt lat="45.826197" lon="8.896140">
        <ele>407.297930</ele>
        <time>2024-03-20T12:57:03.967Z</time>
      </trkpt>
      <trkpt lat="45.826605" lon="8.896538">
        <ele>408.820844</ele>
        <time>2024-03-20T12:57:30.634Z</time>
      </trkpt>
      <trkpt lat="45.826875" lon="8.896677">
        <ele>409.706334</ele>
        <time>2024-03-20T12:57:46.200Z</time>
      </trkpt>
      <trkpt lat="45.828821" lon="8.897104">
        <ele>414.044838</ele>
        <time>2024-03-20T12:59:21.638Z</time>
      </trkpt>
      <trkpt lat="45.829181" lon="8.897284">
        <ele>413.951482</ele>
        <time>2024-03-20T12:59:37.659Z</time>
      </trkpt>
      <trkpt lat="45.829512" lon="8.897305">
        <ele>413.870345</ele>
        <time>2024-03-20T12:59:50.183Z</time>
      </trkpt>
      <trkpt lat="45.829828" lon="8.897325">
        <ele>413.792886</ele>
        <time>2024-03-20T13:00:01.371Z</time>
      </trkpt>
      <trkpt lat="45.830462" lon="8.897430">
        <ele>413.636598</ele>
        <time>2024-03-20T13:00:22.613Z</time>
      </trkpt>
      <trkpt lat="45.831583" lon="8.897721">
        <ele>412.567005</ele>
        <time>2024-03-20T13:01:00.957Z</time>
      </trkpt>
      <trkpt lat="45.831899" lon="8.897769">
        <ele>412.253478</ele>
        <time>2024-03-20T13:01:11.989Z</time>
      </trkpt>
      <trkpt lat="45.832059" lon="8.897764">
        <ele>412.095575</ele>
        <time>2024-03-20T13:01:17.497Z</time>
      </trkpt>
      <trkpt lat="45.832169" lon="8.897727">
        <ele>411.984102</ele>
        <time>2024-03-20T13:01:21.717Z</time>
      </trkpt>
      <trkpt lat="45.832462" lon="8.897662">
        <ele>411.902019</ele>
        <time>2024-03-20T13:01:32.367Z</time>
      </trkpt>
      <trkpt lat="45.832868" lon="8.897717">
        <ele>412.055220</ele>
        <time>2024-03-20T13:01:48.573Z</time>
      </trkpt>
      <trkpt lat="45.833379" lon="8.897763">
        <ele>412.247566</ele>
        <time>2024-03-20T13:02:10.499Z</time>
      </trkpt>
      <trkpt lat="45.834232" lon="8.897622">
        <ele>412.249759</ele>
        <time>2024-03-20T13:02:44.419Z</time>
      </trkpt>
      <trkpt lat="45.834633" lon="8.897667">
        <ele>411.441185</ele>
        <time>2024-03-20T13:02:58.709Z</time>
      </trkpt>
      <trkpt lat="45.835182" lon="8.897701">
        <ele>410.336525</ele>
        <time>2024-03-20T13:03:09.344Z</time>
      </trkpt>
      <trkpt lat="45.835470" lon="8.897682">
        <ele>409.756958</ele>
        <time>2024-03-20T13:03:14.641Z</time>
      </trkpt>
      <trkpt lat="45.835626" lon="8.897684">
        <ele>409.443345</ele>
        <time>2024-03-20T13:03:17.436Z</time>
      </trkpt>
      <trkpt lat="45.835795" lon="8.897686">
        <ele>409.103600</ele>
        <time>2024-03-20T13:03:20.420Z</time>
      </trkpt>
      <trkpt lat="45.836170" lon="8.897710">
        <ele>407.621266</ele>
        <time>2024-03-20T13:03:26.830Z</time>
      </trkpt>
      <trkpt lat="45.836265" lon="8.897829">
        <ele>407.035392</ele>
        <time>2024-03-20T13:03:28.916Z</time>
      </trkpt>
      <trkpt lat="45.836666" lon="8.898497">
        <ele>404.180943</ele>
        <time>2024-03-20T13:03:39.172Z</time>
      </trkpt>
      <trkpt lat="45.837405" lon="8.899383">
        <ele>399.765447</ele>
        <time>2024-03-20T13:03:55.205Z</time>
      </trkpt>
      <trkpt lat="45.838105" lon="8.899831">
        <ele>396.452424</ele>
        <time>2024-03-20T13:04:08.253Z</time>
      </trkpt>
      <trkpt lat="45.838860" lon="8.900044">
        <ele>393.126377</ele>
        <time>2024-03-20T13:04:21.506Z</time>
      </trkpt>
      <trkpt lat="45.838909" lon="8.898202">
        <ele>387.808845</ele>
        <time>2024-03-20T13:04:42.903Z</time>
      </trkpt>
      <trkpt lat="45.838851" lon="8.897564">
        <ele>385.958356</ele>
        <time>2024-03-20T13:04:50.126Z</time>
      </trkpt>
      <trkpt lat="45.839045" lon="8.896874">
        <ele>383.202518</ele>
        <time>2024-03-20T13:04:58.370Z</time>
      </trkpt>
      <trkpt lat="45.839324" lon="8.896792">
        <ele>381.553023</ele>
        <time>2024-03-20T13:05:02.882Z</time>
      </trkpt>
      <trkpt lat="45.840077" lon="8.897224">
        <ele>376.856194</ele>
        <time>2024-03-20T13:05:15.482Z</time>
      </trkpt>
      <trkpt lat="45.840737" lon="8.897759">
        <ele>370.806319</ele>
        <time>2024-03-20T13:05:26.774Z</time>
      </trkpt>
      <trkpt lat="45.840938" lon="8.897667">
        <ele>368.760838</ele>
        <time>2024-03-20T13:05:29.832Z</time>
      </trkpt>
      <trkpt lat="45.841060" lon="8.897173">
        <ele>365.220692</ele>
        <time>2024-03-20T13:05:35.061Z</time>
      </trkpt>
      <trkpt lat="45.841275" lon="8.896689">
        <ele>361.343509</ele>
        <time>2024-03-20T13:05:40.681Z</time>
      </trkpt>
      <trkpt lat="45.841698" lon="8.896514">
        <ele>356.985311</ele>
        <time>2024-03-20T13:05:46.766Z</time>
      </trkpt>
      <trkpt lat="45.842271" lon="8.896926">
        <ele>349.422070</ele>
        <time>2024-03-20T13:05:55.575Z</time>
      </trkpt>
      <trkpt lat="45.842549" lon="8.896900">
        <ele>346.134260</ele>
        <time>2024-03-20T13:05:59.373Z</time>
      </trkpt>
      <trkpt lat="45.842730" lon="8.896705">
        <ele>343.463482</ele>
        <time>2024-03-20T13:06:02.461Z</time>
      </trkpt>
      <trkpt lat="45.842917" lon="8.896218">
        <ele>338.891737</ele>
        <time>2024-03-20T13:06:07.841Z</time>
      </trkpt>
      <trkpt lat="45.843149" lon="8.895421">
        <ele>334.296519</ele>
        <time>2024-03-20T13:06:16.465Z</time>
      </trkpt>
      <trkpt lat="45.843203" lon="8.894991">
        <ele>332.717210</ele>
        <time>2024-03-20T13:06:20.965Z</time>
      </trkpt>
      <trkpt lat="45.843156" lon="8.894697">
        <ele>331.626910</ele>
        <time>2024-03-20T13:06:24.175Z</time>
      </trkpt>
      <trkpt lat="45.843425" lon="8.895052">
        <ele>329.730961</ele>
        <time>2024-03-20T13:06:34.956Z</time>
      </trkpt>
      <trkpt lat="45.843643" lon="8.895283">
        <ele>328.325045</ele>
        <time>2024-03-20T13:06:43.804Z</time>
      </trkpt>
      <trkpt lat="45.843820" lon="8.895365">
        <ele>327.360010</ele>
        <time>2024-03-20T13:06:50.225Z</time>
      </trkpt>
      <trkpt lat="45.843961" lon="8.895522">
        <ele>327.112123</ele>
        <time>2024-03-20T13:06:56.724Z</time>
      </trkpt>
      <trkpt lat="45.844115" lon="8.895858">
        <ele>327.644451</ele>
        <time>2024-03-20T13:07:08.255Z</time>
      </trkpt>
      <trkpt lat="45.844265" lon="8.896296">
        <ele>328.290420</ele>
        <time>2024-03-20T13:07:24.686Z</time>
      </trkpt>
      <trkpt lat="45.844572" lon="8.897747">
        <ele>330.297472</ele>
        <time>2024-03-20T13:08:17.471Z</time>
      </trkpt>
      <trkpt lat="45.844670" lon="8.897866">
        <ele>330.752368</ele>
        <time>2024-03-20T13:08:24.212Z</time>
      </trkpt>
      <trkpt lat="45.846045" lon="8.898502">
        <ele>336.488397</ele>
        <time>2024-03-20T13:09:46.265Z</time>
      </trkpt>
      <trkpt lat="45.846119" lon="8.898605">
        <ele>336.897659</ele>
        <time>2024-03-20T13:09:52.160Z</time>
      </trkpt>
      <trkpt lat="45.846248" lon="8.899024">
        <ele>338.802809</ele>
        <time>2024-03-20T13:10:11.405Z</time>
      </trkpt>
      <trkpt lat="45.846391" lon="8.899302">
        <ele>340.661910</ele>
        <time>2024-03-20T13:10:26.685Z</time>
      </trkpt>
      <trkpt lat="45.846734" lon="8.899722">
        <ele>344.143565</ele>
        <time>2024-03-20T13:10:58.714Z</time>
      </trkpt>
      <trkpt lat="45.846960" lon="8.899912">
        <ele>346.166194</ele>
        <time>2024-03-20T13:11:19.711Z</time>
      </trkpt>
      <trkpt lat="45.847132" lon="8.899914">
        <ele>347.494569</ele>
        <time>2024-03-20T13:11:34.282Z</time>
      </trkpt>
      <trkpt lat="45.847440" lon="8.899859">
        <ele>349.891539</ele>
        <time>2024-03-20T13:12:01.216Z</time>
      </trkpt>
      <trkpt lat="45.847736" lon="8.899955">
        <ele>352.695305</ele>
        <time>2024-03-20T13:12:28.092Z</time>
      </trkpt>
      <trkpt lat="45.847931" lon="8.900163">
        <ele>355.581286</ele>
        <time>2024-03-20T13:12:49.830Z</time>
      </trkpt>
      <trkpt lat="45.848075" lon="8.900540">
        <ele>359.139195</ele>
        <time>2024-03-20T13:13:16.905Z</time>
      </trkpt>
      <trkpt lat="45.848183" lon="8.900920">
        <ele>362.535350</ele>
        <time>2024-03-20T13:13:43.620Z</time>
      </trkpt>
      <trkpt lat="45.848272" lon="8.901108">
        <ele>364.416317</ele>
        <time>2024-03-20T13:13:59.088Z</time>
      </trkpt>
      <trkpt lat="45.849151" lon="8.901996">
        <ele>377.178472</ele>
        <time>2024-03-20T13:15:52.549Z</time>
      </trkpt>
      <trkpt lat="45.849213" lon="8.902181">
        <ele>378.874848</ele>
        <time>2024-03-20T13:16:07.332Z</time>
      </trkpt>
      <trkpt lat="45.849181" lon="8.902390">
        <ele>380.643030</ele>
        <time>2024-03-20T13:16:22.367Z</time>
      </trkpt>
      <trkpt lat="45.849082" lon="8.902718">
        <ele>383.596784</ele>
        <time>2024-03-20T13:16:46.583Z</time>
      </trkpt>
      <trkpt lat="45.848897" lon="8.903176">
        <ele>387.971510</ele>
        <time>2024-03-20T13:17:21.393Z</time>
      </trkpt>
      <trkpt lat="45.848886" lon="8.903318">
        <ele>389.152087</ele>
        <time>2024-03-20T13:17:30.538Z</time>
      </trkpt>
      <trkpt lat="45.848711" lon="8.903719">
        <ele>393.062160</ele>
        <time>2024-03-20T13:18:00.529Z</time>
      </trkpt>
      <trkpt lat="45.848649" lon="8.904091">
        <ele>395.251720</ele>
        <time>2024-03-20T13:18:24.022Z</time>
      </trkpt>
      <trkpt lat="45.848670" lon="8.904251">
        <ele>395.986196</ele>
        <time>2024-03-20T13:18:33.870Z</time>
      </trkpt>
      <trkpt lat="45.848761" lon="8.904504">
        <ele>397.270680</ele>
        <time>2024-03-20T13:18:50.347Z</time>
      </trkpt>
      <trkpt lat="45.848803" lon="8.904722">
        <ele>398.291019</ele>
        <time>2024-03-20T13:19:02.870Z</time>
      </trkpt>
      <trkpt lat="45.848748" lon="8.905250">
        <ele>400.699356</ele>
        <time>2024-03-20T13:19:29.709Z</time>
      </trkpt>
      <trkpt lat="45.848630" lon="8.905814">
        <ele>403.355900</ele>
        <time>2024-03-20T13:19:54.681Z</time>
      </trkpt>
      <trkpt lat="45.848494" lon="8.906164">
        <ele>405.163838</ele>
        <time>2024-03-20T13:20:09.348Z</time>
      </trkpt>
      <trkpt lat="45.848388" lon="8.906334">
        <ele>405.815047</ele>
        <time>2024-03-20T13:20:17.237Z</time>
      </trkpt>
      <trkpt lat="45.847905" lon="8.906749">
        <ele>406.467045</ele>
        <time>2024-03-20T13:20:42.898Z</time>
      </trkpt>
      <trkpt lat="45.847717" lon="8.906877">
        <ele>406.708052</ele>
        <time>2024-03-20T13:20:51.936Z</time>
      </trkpt>
      <trkpt lat="45.847275" lon="8.907071">
        <ele>407.243410</ele>
        <time>2024-03-20T13:21:10.553Z</time>
      </trkpt>
      <trkpt lat="45.847199" lon="8.907136">
        <ele>407.345878</ele>
        <time>2024-03-20T13:21:14.007Z</time>
      </trkpt>
      <trkpt lat="45.847107" lon="8.907290">
        <ele>407.509568</ele>
        <time>2024-03-20T13:21:19.422Z</time>
      </trkpt>
      <trkpt lat="45.848217" lon="8.908209">
        <ele>407.815881</ele>
        <time>2024-03-20T13:21:48.704Z</time>
      </trkpt>
      <trkpt lat="45.848288" lon="8.908264">
        <ele>407.815866</ele>
        <time>2024-03-20T13:21:50.722Z</time>
      </trkpt>
      <trkpt lat="45.848442" lon="8.908310">
        <ele>407.815839</ele>
        <time>2024-03-20T13:21:54.513Z</time>
      </trkpt>
      <trkpt lat="45.848644" lon="8.908440">
        <ele>407.815801</ele>
        <time>2024-03-20T13:21:59.759Z</time>
      </trkpt>
      <trkpt lat="45.848712" lon="8.908565">
        <ele>407.815781</ele>
        <time>2024-03-20T13:22:02.404Z</time>
      </trkpt>
      <trkpt lat="45.848738" lon="8.908716">
        <ele>407.815762</ele>
        <time>2024-03-20T13:22:04.960Z</time>
      </trkpt>
      <trkpt lat="45.848720" lon="8.908801">
        <ele>407.815752</ele>
        <time>2024-03-20T13:22:06.242Z</time>
      </trkpt>
      <trkpt lat="45.848758" lon="8.908947">
        <ele>407.753957</ele>
        <time>2024-03-20T13:22:08.979Z</time>
      </trkpt>
      <trkpt lat="45.848863" lon="8.908978">
        <ele>407.654693</ele>
        <time>2024-03-20T13:22:11.294Z</time>
      </trkpt>
      <trkpt lat="45.849050" lon="8.908951">
        <ele>407.480659</ele>
        <time>2024-03-20T13:22:15.319Z</time>
      </trkpt>
      <trkpt lat="45.849166" lon="8.909002">
        <ele>407.368320</ele>
        <time>2024-03-20T13:22:17.969Z</time>
      </trkpt>
      <trkpt lat="45.849263" lon="8.909107">
        <ele>407.255827</ele>
        <time>2024-03-20T13:22:20.511Z</time>
      </trkpt>
      <trkpt lat="45.849328" lon="8.909139">
        <ele>407.192197</ele>
        <time>2024-03-20T13:22:21.842Z</time>
      </trkpt>
      <trkpt lat="45.849395" lon="8.909117">
        <ele>407.128554</ele>
        <time>2024-03-20T13:22:23.355Z</time>
      </trkpt>
      <trkpt lat="45.849432" lon="8.909073">
        <ele>407.084065</ele>
        <time>2024-03-20T13:22:24.414Z</time>
      </trkpt>
      <trkpt lat="45.849647" lon="8.908958">
        <ele>406.871608</ele>
        <time>2024-03-20T13:22:28.975Z</time>
      </trkpt>
      <trkpt lat="45.850148" lon="8.908926">
        <ele>406.407227</ele>
        <time>2024-03-20T13:22:38.885Z</time>
      </trkpt>
      <trkpt lat="45.851224" lon="8.908859">
        <ele>403.956650</ele>
        <time>2024-03-20T13:22:58.396Z</time>
      </trkpt>
      <trkpt lat="45.851484" lon="8.908838">
        <ele>403.242130</ele>
        <time>2024-03-20T13:23:03.006Z</time>
      </trkpt>
      <trkpt lat="45.851534" lon="8.908836">
        <ele>403.104886</ele>
        <time>2024-03-20T13:23:03.866Z</time>
      </trkpt>
      <trkpt lat="45.851585" lon="8.908789">
        <ele>402.938604</ele>
        <time>2024-03-20T13:23:04.917Z</time>
      </trkpt>
      <trkpt lat="45.851610" lon="8.908711">
        <ele>402.774512</ele>
        <time>2024-03-20T13:23:05.941Z</time>
      </trkpt>
      <trkpt lat="45.851601" lon="8.908624">
        <ele>402.606421</ele>
        <time>2024-03-20T13:23:06.998Z</time>
      </trkpt>
      <trkpt lat="45.851621" lon="8.908439">
        <ele>402.248630</ele>
        <time>2024-03-20T13:23:09.250Z</time>
      </trkpt>
      <trkpt lat="45.851744" lon="8.908249">
        <ele>401.752899</ele>
        <time>2024-03-20T13:23:12.267Z</time>
      </trkpt>
      <trkpt lat="45.852309" lon="8.907647">
        <ele>398.713011</ele>
        <time>2024-03-20T13:23:23.872Z</time>
      </trkpt>
      <trkpt lat="45.852532" lon="8.907357">
        <ele>397.229849</ele>
        <time>2024-03-20T13:23:28.728Z</time>
      </trkpt>
      <trkpt lat="45.852550" lon="8.907330">
        <ele>397.101527</ele>
        <time>2024-03-20T13:23:29.144Z</time>
      </trkpt>
      <trkpt lat="45.852693" lon="8.906889">
        <ele>395.431359</ele>
        <time>2024-03-20T13:23:34.545Z</time>
      </trkpt>
      <trkpt lat="45.852822" lon="8.906052">
        <ele>392.488111</ele>
        <time>2024-03-20T13:23:43.837Z</time>
      </trkpt>
      <trkpt lat="45.852834" lon="8.905711">
        <ele>390.572970</ele>
        <time>2024-03-20T13:23:47.485Z</time>
      </trkpt>
      <trkpt lat="45.852763" lon="8.905083">
        <ele>386.817639</ele>
        <time>2024-03-20T13:23:54.066Z</time>
      </trkpt>
      <trkpt lat="45.852761" lon="8.904677">
        <ele>384.421134</ele>
        <time>2024-03-20T13:23:58.178Z</time>
      </trkpt>
      <trkpt lat="45.852862" lon="8.903596">
        <ele>377.983303</ele>
        <time>2024-03-20T13:24:09.032Z</time>
      </trkpt>
      <trkpt lat="45.852866" lon="8.903353">
        <ele>376.356442</ele>
        <time>2024-03-20T13:24:11.433Z</time>
      </trkpt>
      <trkpt lat="45.852816" lon="8.903104">
        <ele>374.299662</ele>
        <time>2024-03-20T13:24:13.981Z</time>
      </trkpt>
      <trkpt lat="45.852504" lon="8.902359">
        <ele>367.400085</ele>
        <time>2024-03-20T13:24:22.426Z</time>
      </trkpt>
      <trkpt lat="45.852089" lon="8.901697">
        <ele>360.331031</ele>
        <time>2024-03-20T13:24:30.960Z</time>
      </trkpt>
      <trkpt lat="45.851990" lon="8.901577">
        <ele>358.854602</ele>
        <time>2024-03-20T13:24:32.742Z</time>
      </trkpt>
      <trkpt lat="45.851923" lon="8.901409">
        <ele>357.318073</ele>
        <time>2024-03-20T13:24:34.603Z</time>
      </trkpt>
      <trkpt lat="45.851947" lon="8.901210">
        <ele>356.024289</ele>
        <time>2024-03-20T13:24:36.548Z</time>
      </trkpt>
      <trkpt lat="45.852226" lon="8.900608">
        <ele>352.268223</ele>
        <time>2024-03-20T13:24:43.618Z</time>
      </trkpt>
      <trkpt lat="45.852421" lon="8.900187">
        <ele>349.641954</ele>
        <time>2024-03-20T13:24:48.748Z</time>
      </trkpt>
      <trkpt lat="45.852448" lon="8.899994">
        <ele>348.619405</ele>
        <time>2024-03-20T13:24:50.812Z</time>
      </trkpt>
      <trkpt lat="45.852418" lon="8.899927">
        <ele>348.205665</ele>
        <time>2024-03-20T13:24:51.643Z</time>
      </trkpt>
      <trkpt lat="45.852216" lon="8.899825">
        <ele>346.608729</ele>
        <time>2024-03-20T13:24:54.941Z</time>
      </trkpt>
      <trkpt lat="45.852187" lon="8.899771">
        <ele>346.254530</ele>
        <time>2024-03-20T13:24:55.707Z</time>
      </trkpt>
      <trkpt lat="45.852166" lon="8.899623">
        <ele>345.469959</ele>
        <time>2024-03-20T13:24:57.373Z</time>
      </trkpt>
      <trkpt lat="45.852138" lon="8.899436">
        <ele>344.476402</ele>
        <time>2024-03-20T13:24:59.537Z</time>
      </trkpt>
      <trkpt lat="45.852097" lon="8.899320">
        <ele>343.800701</ele>
        <time>2024-03-20T13:25:01.036Z</time>
      </trkpt>
      <trkpt lat="45.851974" lon="8.899163">
        <ele>343.445849</ele>
        <time>2024-03-20T13:25:03.828Z</time>
      </trkpt>
      <trkpt lat="45.852383" lon="8.899194">
        <ele>344.671814</ele>
        <time>2024-03-20T13:25:18.097Z</time>
      </trkpt>
      <trkpt lat="45.852573" lon="8.899331">
        <ele>345.308236</ele>
        <time>2024-03-20T13:25:27.645Z</time>
      </trkpt>
      <trkpt lat="45.852913" lon="8.900044">
        <ele>347.109746</ele>
        <time>2024-03-20T13:26:01.993Z</time>
      </trkpt>
      <trkpt lat="45.852913" lon="8.900044">
        <ele>347.109746</ele>
        <time>2024-03-20T13:26:02.012Z</time>
      </trkpt>
      <trkpt lat="45.853096" lon="8.900559">
        <ele>348.315098</ele>
        <time>2024-03-20T13:26:31.020Z</time>
      </trkpt>
      <trkpt lat="45.853242" lon="8.900726">
        <ele>349.609422</ele>
        <time>2024-03-20T13:26:45.876Z</time>
      </trkpt>
      <trkpt lat="45.853632" lon="8.900868">
        <ele>353.826600</ele>
        <time>2024-03-20T13:27:19.352Z</time>
      </trkpt>
      <trkpt lat="45.854038" lon="8.901128">
        <ele>358.486196</ele>
        <time>2024-03-20T13:27:59.235Z</time>
      </trkpt>
      <trkpt lat="45.854182" lon="8.901190">
        <ele>360.061934</ele>
        <time>2024-03-20T13:28:13.199Z</time>
      </trkpt>
      <trkpt lat="45.854432" lon="8.901525">
        <ele>363.646228</ele>
        <time>2024-03-20T13:28:47.237Z</time>
      </trkpt>
      <trkpt lat="45.854540" lon="8.901589">
        <ele>364.870856</ele>
        <time>2024-03-20T13:28:58.483Z</time>
      </trkpt>
      <trkpt lat="45.854522" lon="8.902123">
        <ele>368.572259</ele>
        <time>2024-03-20T13:29:35.309Z</time>
      </trkpt>
      <trkpt lat="45.854486" lon="8.902391">
        <ele>370.265530</ele>
        <time>2024-03-20T13:29:54.133Z</time>
      </trkpt>
      <trkpt lat="45.854628" lon="8.902676">
        <ele>372.439467</ele>
        <time>2024-03-20T13:30:17.071Z</time>
      </trkpt>
      <trkpt lat="45.854824" lon="8.902909">
        <ele>374.706057</ele>
        <time>2024-03-20T13:30:40.545Z</time>
      </trkpt>
      <trkpt lat="45.855063" lon="8.903056">
        <ele>377.022033</ele>
        <time>2024-03-20T13:31:03.229Z</time>
      </trkpt>
      <trkpt lat="45.855070" lon="8.903109">
        <ele>377.356693</ele>
        <time>2024-03-20T13:31:06.149Z</time>
      </trkpt>
      <trkpt lat="45.855278" lon="8.904090">
        <ele>383.554103</ele>
        <time>2024-03-20T13:31:45.377Z</time>
      </trkpt>
      <trkpt lat="45.855352" lon="8.904079">
        <ele>383.805796</ele>
        <time>2024-03-20T13:31:48.141Z</time>
      </trkpt>
      <trkpt lat="45.855736" lon="8.904026">
        <ele>385.110922</ele>
        <time>2024-03-20T13:32:02.278Z</time>
      </trkpt>
      <trkpt lat="45.855803" lon="8.904016">
        <ele>385.338816</ele>
        <time>2024-03-20T13:32:04.496Z</time>
      </trkpt>
      <trkpt lat="45.855758" lon="8.903543">
        <ele>386.463681</ele>
        <time>2024-03-20T13:32:16.114Z</time>
      </trkpt>
      <trkpt lat="45.855790" lon="8.903014">
        <ele>387.714839</ele>
        <time>2024-03-20T13:32:27.874Z</time>
      </trkpt>
      <trkpt lat="45.855828" lon="8.902785">
        <ele>388.269528</ele>
        <time>2024-03-20T13:32:32.458Z</time>
      </trkpt>
      <trkpt lat="45.855925" lon="8.902593">
        <ele>388.828421</ele>
        <time>2024-03-20T13:32:39.924Z</time>
      </trkpt>
      <trkpt lat="45.856392" lon="8.902173">
        <ele>392.133603</ele>
        <time>2024-03-20T13:33:02.019Z</time>
      </trkpt>
      <trkpt lat="45.856429" lon="8.902238">
        <ele>392.578367</ele>
        <time>2024-03-20T13:33:06.977Z</time>
      </trkpt>
      <trkpt lat="45.856850" lon="8.902427">
        <ele>395.933854</ele>
        <time>2024-03-20T13:33:31.099Z</time>
      </trkpt>
      <trkpt lat="45.857738" lon="8.902940">
        <ele>403.215231</ele>
        <time>2024-03-20T13:34:38.363Z</time>
      </trkpt>
      <trkpt lat="45.858261" lon="8.903197">
        <ele>407.272292</ele>
        <time>2024-03-20T13:35:19.464Z</time>
      </trkpt>
      <trkpt lat="45.858428" lon="8.903234">
        <ele>408.512412</ele>
        <time>2024-03-20T13:35:30.959Z</time>
      </trkpt>
      <trkpt lat="45.858687" lon="8.903201">
        <ele>410.420685</ele>
        <time>2024-03-20T13:35:47.191Z</time>
      </trkpt>
      <trkpt lat="45.858967" lon="8.903078">
        <ele>412.569623</ele>
        <time>2024-03-20T13:36:07.915Z</time>
      </trkpt>
      <trkpt lat="45.859552" lon="8.902747">
        <ele>416.745527</ele>
        <time>2024-03-20T13:36:45.595Z</time>
      </trkpt>
      <trkpt lat="45.859924" lon="8.902646">
        <ele>417.926099</ele>
        <time>2024-03-20T13:37:05.217Z</time>
      </trkpt>
      <trkpt lat="45.860801" lon="8.902186">
        <ele>420.837608</ele>
        <time>2024-03-20T13:37:52.456Z</time>
      </trkpt>
      <trkpt lat="45.861060" lon="8.902125">
        <ele>421.656046</ele>
        <time>2024-03-20T13:38:05.162Z</time>
      </trkpt>
      <trkpt lat="45.861298" lon="8.902150">
        <ele>422.487732</ele>
        <time>2024-03-20T13:38:17.565Z</time>
      </trkpt>
      <trkpt lat="45.861623" lon="8.902273">
        <ele>423.783739</ele>
        <time>2024-03-20T13:38:35.418Z</time>
      </trkpt>
      <trkpt lat="45.861953" lon="8.902530">
        <ele>425.231327</ele>
        <time>2024-03-20T13:38:56.782Z</time>
      </trkpt>
      <trkpt lat="45.862359" lon="8.902756">
        <ele>426.910389</ele>
        <time>2024-03-20T13:39:23.063Z</time>
      </trkpt>
      <trkpt lat="45.862843" lon="8.902928">
        <ele>428.833012</ele>
        <time>2024-03-20T13:39:53.111Z</time>
      </trkpt>
      <trkpt lat="45.863796" lon="8.903362">
        <ele>432.442720</ele>
        <time>2024-03-20T13:40:46.740Z</time>
      </trkpt>
      <trkpt lat="45.864185" lon="8.903396">
        <ele>433.846400</ele>
        <time>2024-03-20T13:41:05.736Z</time>
      </trkpt>
      <trkpt lat="45.864396" lon="8.903373">
        <ele>434.608558</ele>
        <time>2024-03-20T13:41:13.365Z</time>
      </trkpt>
      <trkpt lat="45.864563" lon="8.903450">
        <ele>435.240296</ele>
        <time>2024-03-20T13:41:20.960Z</time>
      </trkpt>
      <trkpt lat="45.864662" lon="8.903537">
        <ele>435.539830</ele>
        <time>2024-03-20T13:41:24.076Z</time>
      </trkpt>
      <trkpt lat="45.864722" lon="8.903589">
        <ele>435.652631</ele>
        <time>2024-03-20T13:41:26.394Z</time>
      </trkpt>
      <trkpt lat="45.865095" lon="8.903917">
        <ele>436.356628</ele>
        <time>2024-03-20T13:41:40.359Z</time>
      </trkpt>
      <trkpt lat="45.865440" lon="8.904308">
        <ele>437.064040</ele>
        <time>2024-03-20T13:41:52.371Z</time>
      </trkpt>
      <trkpt lat="45.865372" lon="8.904445">
        <ele>437.252610</ele>
        <time>2024-03-20T13:41:54.689Z</time>
      </trkpt>
      <trkpt lat="45.865385" lon="8.905088">
        <ele>437.973612</ele>
        <time>2024-03-20T13:42:06.593Z</time>
      </trkpt>
      <trkpt lat="45.865289" lon="8.905582">
        <ele>438.705097</ele>
        <time>2024-03-20T13:42:18.590Z</time>
      </trkpt>
      <trkpt lat="45.865252" lon="8.906084">
        <ele>439.694346</ele>
        <time>2024-03-20T13:42:30.085Z</time>
      </trkpt>
      <trkpt lat="45.865201" lon="8.906356">
        <ele>440.246360</ele>
        <time>2024-03-20T13:42:36.332Z</time>
      </trkpt>
      <trkpt lat="45.865087" lon="8.906731">
        <ele>441.048214</ele>
        <time>2024-03-20T13:42:43.802Z</time>
      </trkpt>
      <trkpt lat="45.864988" lon="8.906969">
        <ele>441.591494</ele>
        <time>2024-03-20T13:42:50.479Z</time>
      </trkpt>
      <trkpt lat="45.865321" lon="8.907352">
        <ele>442.792138</ele>
        <time>2024-03-20T13:43:08.063Z</time>
      </trkpt>
      <trkpt lat="45.865679" lon="8.907589">
        <ele>444.425131</ele>
        <time>2024-03-20T13:43:27.072Z</time>
      </trkpt>
      <trkpt lat="45.865848" lon="8.907798">
        <ele>445.709278</ele>
        <time>2024-03-20T13:43:38.871Z</time>
      </trkpt>
      <trkpt lat="45.865906" lon="8.907945">
        <ele>446.386692</ele>
        <time>2024-03-20T13:43:44.989Z</time>
      </trkpt>
      <trkpt lat="45.866060" lon="8.907727">
        <ele>447.631755</ele>
        <time>2024-03-20T13:43:57.549Z</time>
      </trkpt>
      <trkpt lat="45.866276" lon="8.907801">
        <ele>448.910335</ele>
        <time>2024-03-20T13:44:13.864Z</time>
      </trkpt>
      <trkpt lat="45.866367" lon="8.907867">
        <ele>449.497322</ele>
        <time>2024-03-20T13:44:21.419Z</time>
      </trkpt>
      <trkpt lat="45.866654" lon="8.908305">
        <ele>451.908656</ele>
        <time>2024-03-20T13:44:50.319Z</time>
      </trkpt>
      <trkpt lat="45.866752" lon="8.908577">
        <ele>453.136522</ele>
        <time>2024-03-20T13:45:03.765Z</time>
      </trkpt>
      <trkpt lat="45.867120" lon="8.909294">
        <ele>454.950029</ele>
        <time>2024-03-20T13:45:39.446Z</time>
      </trkpt>
      <trkpt lat="45.867215" lon="8.909549">
        <ele>455.418811</ele>
        <time>2024-03-20T13:45:49.556Z</time>
      </trkpt>
      <trkpt lat="45.867470" lon="8.909991">
        <ele>456.349228</ele>
        <time>2024-03-20T13:46:07.784Z</time>
      </trkpt>
      <trkpt lat="45.867477" lon="8.910191">
        <ele>456.673825</ele>
        <time>2024-03-20T13:46:13.735Z</time>
      </trkpt>
      <trkpt lat="45.867711" lon="8.910463">
        <ele>457.374615</ele>
        <time>2024-03-20T13:46:26.361Z</time>
      </trkpt>
      <trkpt lat="45.867775" lon="8.911261">
        <ele>458.386242</ele>
        <time>2024-03-20T13:46:48.626Z</time>
      </trkpt>
      <trkpt lat="45.868133" lon="8.911869">
        <ele>459.165208</ele>
        <time>2024-03-20T13:47:09.994Z</time>
      </trkpt>
      <trkpt lat="45.868866" lon="8.913257">
        <ele>461.180729</ele>
        <time>2024-03-20T13:48:08.362Z</time>
      </trkpt>
      <trkpt lat="45.869178" lon="8.913726">
        <ele>462.311243</ele>
        <time>2024-03-20T13:48:30.184Z</time>
      </trkpt>
      <trkpt lat="45.869426" lon="8.914130">
        <ele>463.249931</ele>
        <time>2024-03-20T13:48:49.170Z</time>
      </trkpt>
      <trkpt lat="45.869625" lon="8.914397">
        <ele>463.931592</ele>
        <time>2024-03-20T13:49:04.029Z</time>
      </trkpt>
      <trkpt lat="45.869882" lon="8.914644">
        <ele>464.705634</ele>
        <time>2024-03-20T13:49:20.500Z</time>
      </trkpt>
      <trkpt lat="45.869785" lon="8.914715">
        <ele>464.976904</ele>
        <time>2024-03-20T13:49:23.180Z</time>
      </trkpt>
      <trkpt lat="45.869761" lon="8.914732">
        <ele>465.026781</ele>
        <time>2024-03-20T13:49:23.837Z</time>
      </trkpt>
      <trkpt lat="45.869131" lon="8.915108">
        <ele>466.298338</ele>
        <time>2024-03-20T13:49:46.870Z</time>
      </trkpt>
      <trkpt lat="45.868700" lon="8.915377">
        <ele>467.174220</ele>
        <time>2024-03-20T13:49:59.741Z</time>
      </trkpt>
      <trkpt lat="45.868485" lon="8.915575">
        <ele>467.650251</ele>
        <time>2024-03-20T13:50:07.249Z</time>
      </trkpt>
      <trkpt lat="45.868401" lon="8.915693">
        <ele>467.869255</ele>
        <time>2024-03-20T13:50:09.999Z</time>
      </trkpt>
      <trkpt lat="45.868258" lon="8.916014">
        <ele>468.376974</ele>
        <time>2024-03-20T13:50:19.488Z</time>
      </trkpt>
      <trkpt lat="45.868144" lon="8.916511">
        <ele>469.290171</ele>
        <time>2024-03-20T13:50:32.009Z</time>
      </trkpt>
      <trkpt lat="45.868122" lon="8.916647">
        <ele>469.533834</ele>
        <time>2024-03-20T13:50:34.477Z</time>
      </trkpt>
      <trkpt lat="45.868099" lon="8.917065">
        <ele>470.265590</ele>
        <time>2024-03-20T13:50:44.832Z</time>
      </trkpt>
      <trkpt lat="45.868144" lon="8.918543">
        <ele>472.857516</ele>
        <time>2024-03-20T13:51:21.048Z</time>
      </trkpt>
      <trkpt lat="45.868150" lon="8.918741">
        <ele>473.455588</ele>
        <time>2024-03-20T13:51:25.845Z</time>
      </trkpt>
      <trkpt lat="45.868168" lon="8.919350">
        <ele>475.295028</ele>
        <time>2024-03-20T13:51:43.471Z</time>
      </trkpt>
      <trkpt lat="45.868207" lon="8.920623">
        <ele>479.140287</ele>
        <time>2024-03-20T13:52:23.386Z</time>
      </trkpt>
      <trkpt lat="45.868212" lon="8.920775">
        <ele>479.599490</ele>
        <time>2024-03-20T13:52:27.969Z</time>
      </trkpt>
      <trkpt lat="45.868347" lon="8.920827">
        <ele>480.205238</ele>
        <time>2024-03-20T13:52:34.695Z</time>
      </trkpt>
      <trkpt lat="45.868976" lon="8.921317">
        <ele>484.661936</ele>
        <time>2024-03-20T13:53:12.105Z</time>
      </trkpt>
      <trkpt lat="45.869414" lon="8.921436">
        <ele>487.571736</ele>
        <time>2024-03-20T13:53:38.009Z</time>
      </trkpt>
      <trkpt lat="45.869664" lon="8.921471">
        <ele>489.211372</ele>
        <time>2024-03-20T13:53:52.472Z</time>
      </trkpt>
      <trkpt lat="45.869664" lon="8.921471">
        <ele>489.211372</ele>
        <time>2024-03-20T13:53:52.484Z</time>
      </trkpt>
      <trkpt lat="45.869742" lon="8.921440">
        <ele>489.739661</ele>
        <time>2024-03-20T13:53:57.355Z</time>
      </trkpt>
      <trkpt lat="45.869769" lon="8.921380">
        <ele>490.064363</ele>
        <time>2024-03-20T13:54:00.391Z</time>
      </trkpt>
      <trkpt lat="45.869820" lon="8.921059">
        <ele>491.560843</ele>
        <time>2024-03-20T13:54:14.079Z</time>
      </trkpt>
      <trkpt lat="45.870026" lon="8.920830">
        <ele>493.333477</ele>
        <time>2024-03-20T13:54:29.701Z</time>
      </trkpt>
      <trkpt lat="45.870296" lon="8.920578">
        <ele>495.605545</ele>
        <time>2024-03-20T13:54:48.875Z</time>
      </trkpt>
      <trkpt lat="45.870556" lon="8.920395">
        <ele>497.648564</ele>
        <time>2024-03-20T13:55:06.278Z</time>
      </trkpt>
      <trkpt lat="45.870722" lon="8.920319">
        <ele>498.877932</ele>
        <time>2024-03-20T13:55:16.213Z</time>
      </trkpt>
      <trkpt lat="45.870753" lon="8.920684">
        <ele>500.684446</ele>
        <time>2024-03-20T13:55:30.963Z</time>
      </trkpt>
      <trkpt lat="45.870798" lon="8.920825">
        <ele>501.446472</ele>
        <time>2024-03-20T13:55:37.327Z</time>
      </trkpt>
      <trkpt lat="45.870957" lon="8.921011">
        <ele>502.893435</ele>
        <time>2024-03-20T13:55:49.265Z</time>
      </trkpt>
      <trkpt lat="45.871288" lon="8.921051">
        <ele>505.218927</ele>
        <time>2024-03-20T13:56:08.542Z</time>
      </trkpt>
      <trkpt lat="45.871752" lon="8.921041">
        <ele>508.154062</ele>
        <time>2024-03-20T13:56:34.827Z</time>
      </trkpt>
      <trkpt lat="45.872390" lon="8.920818">
        <ele>512.307200</ele>
        <time>2024-03-20T13:57:11.848Z</time>
      </trkpt>
      <trkpt lat="45.873018" lon="8.921029">
        <ele>516.386544</ele>
        <time>2024-03-20T13:57:46.135Z</time>
      </trkpt>
      <trkpt lat="45.873704" lon="8.921091">
        <ele>519.342507</ele>
        <time>2024-03-20T13:58:19.270Z</time>
      </trkpt>
      <trkpt lat="45.873748" lon="8.921118">
        <ele>519.547135</ele>
        <time>2024-03-20T13:58:21.504Z</time>
      </trkpt>
      <trkpt lat="45.874021" lon="8.921282">
        <ele>520.812674</ele>
        <time>2024-03-20T13:58:34.413Z</time>
      </trkpt>
      <trkpt lat="45.874173" lon="8.921259">
        <ele>521.466325</ele>
        <time>2024-03-20T13:58:40.942Z</time>
      </trkpt>
      <trkpt lat="45.874254" lon="8.921420">
        <ele>522.057775</ele>
        <time>2024-03-20T13:58:46.314Z</time>
      </trkpt>
      <trkpt lat="45.874263" lon="8.921507">
        <ele>522.319668</ele>
        <time>2024-03-20T13:58:48.668Z</time>
      </trkpt>
      <trkpt lat="45.874143" lon="8.922082">
        <ele>524.107032</ele>
        <time>2024-03-20T13:59:04.628Z</time>
      </trkpt>
      <trkpt lat="45.874414" lon="8.922199">
        <ele>525.067801</ele>
        <time>2024-03-20T13:59:16.619Z</time>
      </trkpt>
      <trkpt lat="45.874813" lon="8.922379">
        <ele>526.480833</ele>
        <time>2024-03-20T13:59:31.995Z</time>
      </trkpt>
      <trkpt lat="45.874844" lon="8.922750">
        <ele>527.359816</ele>
        <time>2024-03-20T13:59:41.813Z</time>
      </trkpt>
      <trkpt lat="45.874861" lon="8.923478">
        <ele>529.073285</ele>
        <time>2024-03-20T14:00:00.237Z</time>
      </trkpt>
      <trkpt lat="45.874874" lon="8.923587">
        <ele>529.333425</ele>
        <time>2024-03-20T14:00:04.584Z</time>
      </trkpt>
      <trkpt lat="45.874895" lon="8.923952">
        <ele>530.194956</ele>
        <time>2024-03-20T14:00:13.826Z</time>
      </trkpt>
      <trkpt lat="45.874866" lon="8.924130">
        <ele>530.730878</ele>
        <time>2024-03-20T14:00:20.326Z</time>
      </trkpt>
      <trkpt lat="45.874527" lon="8.924716">
        <ele>532.976453</ele>
        <time>2024-03-20T14:00:44.619Z</time>
      </trkpt>
      <trkpt lat="45.874390" lon="8.925035">
        <ele>534.081156</ele>
        <time>2024-03-20T14:00:59.423Z</time>
      </trkpt>
      <trkpt lat="45.874658" lon="8.925362">
        <ele>535.569803</ele>
        <time>2024-03-20T14:01:17.090Z</time>
      </trkpt>
      <trkpt lat="45.874802" lon="8.925538">
        <ele>536.370241</ele>
        <time>2024-03-20T14:01:24.701Z</time>
      </trkpt>
      <trkpt lat="45.875033" lon="8.925903">
        <ele>537.820054</ele>
        <time>2024-03-20T14:01:36.463Z</time>
      </trkpt>
      <trkpt lat="45.875135" lon="8.925983">
        <ele>537.740578</ele>
        <time>2024-03-20T14:01:39.952Z</time>
      </trkpt>
      <trkpt lat="45.875310" lon="8.926056">
        <ele>537.615957</ele>
        <time>2024-03-20T14:01:44.988Z</time>
      </trkpt>
      <trkpt lat="45.875499" lon="8.926037">
        <ele>537.486392</ele>
        <time>2024-03-20T14:01:50.481Z</time>
      </trkpt>
      <trkpt lat="45.875703" lon="8.925956">
        <ele>537.341652</ele>
        <time>2024-03-20T14:01:55.731Z</time>
      </trkpt>
      <trkpt lat="45.875499" lon="8.926037">
        <ele>537.196912</ele>
        <time>2024-03-20T14:02:00.157Z</time>
      </trkpt>
      <trkpt lat="45.875310" lon="8.926056">
        <ele>537.067346</ele>
        <time>2024-03-20T14:02:03.794Z</time>
      </trkpt>
      <trkpt lat="45.875135" lon="8.925983">
        <ele>536.942726</ele>
        <time>2024-03-20T14:02:07.390Z</time>
      </trkpt>
      <trkpt lat="45.875033" lon="8.925903">
        <ele>536.863250</ele>
        <time>2024-03-20T14:02:09.589Z</time>
      </trkpt>
      <trkpt lat="45.874802" lon="8.925538">
        <ele>536.628397</ele>
        <time>2024-03-20T14:02:15.740Z</time>
      </trkpt>
      <trkpt lat="45.874658" lon="8.925362">
        <ele>536.022253</ele>
        <time>2024-03-20T14:02:18.906Z</time>
      </trkpt>
      <trkpt lat="45.874390" lon="8.925035">
        <ele>534.528541</ele>
        <time>2024-03-20T14:02:24.383Z</time>
      </trkpt>
      <trkpt lat="45.874527" lon="8.924716">
        <ele>533.420079</ele>
        <time>2024-03-20T14:02:28.312Z</time>
      </trkpt>
      <trkpt lat="45.874866" lon="8.924130">
        <ele>531.166865</ele>
        <time>2024-03-20T14:02:36.915Z</time>
      </trkpt>
      <trkpt lat="45.874895" lon="8.923952">
        <ele>530.626228</ele>
        <time>2024-03-20T14:02:38.915Z</time>
      </trkpt>
      <trkpt lat="45.874874" lon="8.923587">
        <ele>529.543099</ele>
        <time>2024-03-20T14:02:43.509Z</time>
      </trkpt>
      <trkpt lat="45.874861" lon="8.923478">
        <ele>529.216048</ele>
        <time>2024-03-20T14:02:44.675Z</time>
      </trkpt>
      <trkpt lat="45.874844" lon="8.922750">
        <ele>527.633741</ele>
        <time>2024-03-20T14:02:53.463Z</time>
      </trkpt>
      <trkpt lat="45.874813" lon="8.922379">
        <ele>526.863305</ele>
        <time>2024-03-20T14:02:58.091Z</time>
      </trkpt>
      <trkpt lat="45.874819" lon="8.922218">
        <ele>526.530872</ele>
        <time>2024-03-20T14:03:00.069Z</time>
      </trkpt>
      <trkpt lat="45.874866" lon="8.922018">
        <ele>526.095645</ele>
        <time>2024-03-20T14:03:02.783Z</time>
      </trkpt>
      <trkpt lat="45.874886" lon="8.921769">
        <ele>525.578839</ele>
        <time>2024-03-20T14:03:05.691Z</time>
      </trkpt>
      <trkpt lat="45.874766" lon="8.921499">
        <ele>524.918380</ele>
        <time>2024-03-20T14:03:09.467Z</time>
      </trkpt>
      <trkpt lat="45.874563" lon="8.921361">
        <ele>524.253269</ele>
        <time>2024-03-20T14:03:13.330Z</time>
      </trkpt>
      <trkpt lat="45.874539" lon="8.921299">
        <ele>524.107003</ele>
        <time>2024-03-20T14:03:14.261Z</time>
      </trkpt>
      <trkpt lat="45.874254" lon="8.921420">
        <ele>523.306594</ele>
        <time>2024-03-20T14:03:19.420Z</time>
      </trkpt>
      <trkpt lat="45.874173" lon="8.921259">
        <ele>522.979277</ele>
        <time>2024-03-20T14:03:21.926Z</time>
      </trkpt>
      <trkpt lat="45.874115" lon="8.921136">
        <ele>522.734483</ele>
        <time>2024-03-20T14:03:23.743Z</time>
      </trkpt>
      <trkpt lat="45.874002" lon="8.920891">
        <ele>522.250214</ele>
        <time>2024-03-20T14:03:27.388Z</time>
      </trkpt>
      <trkpt lat="45.873781" lon="8.920506">
        <ele>521.427978</ele>
        <time>2024-03-20T14:03:33.375Z</time>
      </trkpt>
      <trkpt lat="45.873490" lon="8.919953">
        <ele>520.285725</ele>
        <time>2024-03-20T14:03:42.046Z</time>
      </trkpt>
      <trkpt lat="45.873481" lon="8.919658">
        <ele>519.799143</ele>
        <time>2024-03-20T14:03:45.877Z</time>
      </trkpt>
      <trkpt lat="45.873521" lon="8.919448">
        <ele>519.440378</ele>
        <time>2024-03-20T14:03:48.703Z</time>
      </trkpt>
      <trkpt lat="45.873724" lon="8.919032">
        <ele>519.128574</ele>
        <time>2024-03-20T14:03:55.393Z</time>
      </trkpt>
      <trkpt lat="45.873981" lon="8.918408">
        <ele>518.755776</ele>
        <time>2024-03-20T14:04:05.645Z</time>
      </trkpt>
      <trkpt lat="45.874088" lon="8.918046">
        <ele>518.553556</ele>
        <time>2024-03-20T14:04:11.712Z</time>
      </trkpt>
      <trkpt lat="45.874123" lon="8.917793">
        <ele>518.420920</ele>
        <time>2024-03-20T14:04:16.023Z</time>
      </trkpt>
      <trkpt lat="45.874198" lon="8.916470">
        <ele>516.786328</ele>
        <time>2024-03-20T14:04:35.606Z</time>
      </trkpt>
      <trkpt lat="45.874198" lon="8.916362">
        <ele>516.554611</ele>
        <time>2024-03-20T14:04:37.161Z</time>
      </trkpt>
      <trkpt lat="45.874217" lon="8.916056">
        <ele>515.895473</ele>
        <time>2024-03-20T14:04:41.009Z</time>
      </trkpt>
      <trkpt lat="45.874202" lon="8.915995">
        <ele>515.756673</ele>
        <time>2024-03-20T14:04:41.768Z</time>
      </trkpt>
      <trkpt lat="45.873726" lon="8.915170">
        <ele>513.457807</ele>
        <time>2024-03-20T14:04:54.223Z</time>
      </trkpt>
      <trkpt lat="45.873578" lon="8.914915">
        <ele>512.745527</ele>
        <time>2024-03-20T14:04:58.005Z</time>
      </trkpt>
      <trkpt lat="45.873341" lon="8.914278">
        <ele>509.028553</ele>
        <time>2024-03-20T14:05:05.713Z</time>
      </trkpt>
      <trkpt lat="45.873191" lon="8.913493">
        <ele>504.369830</ele>
        <time>2024-03-20T14:05:13.907Z</time>
      </trkpt>
      <trkpt lat="45.873091" lon="8.913320">
        <ele>503.082996</ele>
        <time>2024-03-20T14:05:16.134Z</time>
      </trkpt>
      <trkpt lat="45.873020" lon="8.913254">
        <ele>502.387815</ele>
        <time>2024-03-20T14:05:17.337Z</time>
      </trkpt>
      <trkpt lat="45.872975" lon="8.913213">
        <ele>501.949774</ele>
        <time>2024-03-20T14:05:18.100Z</time>
      </trkpt>
      <trkpt lat="45.872239" lon="8.913167">
        <ele>496.225148</ele>
        <time>2024-03-20T14:05:28.571Z</time>
      </trkpt>
      <trkpt lat="45.872106" lon="8.913045">
        <ele>495.164215</ele>
        <time>2024-03-20T14:05:30.850Z</time>
      </trkpt>
      <trkpt lat="45.872019" lon="8.912833">
        <ele>494.012340</ele>
        <time>2024-03-20T14:05:33.379Z</time>
      </trkpt>
      <trkpt lat="45.872020" lon="8.911959">
        <ele>489.921290</ele>
        <time>2024-03-20T14:05:42.395Z</time>
      </trkpt>
      <trkpt lat="45.872187" lon="8.910359">
        <ele>485.507847</ele>
        <time>2024-03-20T14:06:00.868Z</time>
      </trkpt>
      <trkpt lat="45.872174" lon="8.910203">
        <ele>485.482796</ele>
        <time>2024-03-20T14:06:03.192Z</time>
      </trkpt>
      <trkpt lat="45.872193" lon="8.910140">
        <ele>485.471849</ele>
        <time>2024-03-20T14:06:04.189Z</time>
      </trkpt>
      <trkpt lat="45.872190" lon="8.910106">
        <ele>485.466384</ele>
        <time>2024-03-20T14:06:04.696Z</time>
      </trkpt>
      <trkpt lat="45.872166" lon="8.910059">
        <ele>485.457091</ele>
        <time>2024-03-20T14:06:05.523Z</time>
      </trkpt>
      <trkpt lat="45.872108" lon="8.910045">
        <ele>485.443622</ele>
        <time>2024-03-20T14:06:06.732Z</time>
      </trkpt>
      <trkpt lat="45.872031" lon="8.909690">
        <ele>485.384335</ele>
        <time>2024-03-20T14:06:13.900Z</time>
      </trkpt>
      <trkpt lat="45.871960" lon="8.909166">
        <ele>485.299216</ele>
        <time>2024-03-20T14:06:24.924Z</time>
      </trkpt>
      <trkpt lat="45.871961" lon="8.908993">
        <ele>485.271631</ele>
        <time>2024-03-20T14:06:28.386Z</time>
      </trkpt>
      <trkpt lat="45.871735" lon="8.908963">
        <ele>485.219654</ele>
        <time>2024-03-20T14:06:35.496Z</time>
      </trkpt>
      <trkpt lat="45.870710" lon="8.908420">
        <ele>488.032666</ele>
        <time>2024-03-20T14:07:19.521Z</time>
      </trkpt>
      <trkpt lat="45.870351" lon="8.908266">
        <ele>489.051626</ele>
        <time>2024-03-20T14:07:31.935Z</time>
      </trkpt>
      <trkpt lat="45.870148" lon="8.908271">
        <ele>489.603788</ele>
        <time>2024-03-20T14:07:36.898Z</time>
      </trkpt>
      <trkpt lat="45.870103" lon="8.908185">
        <ele>489.807499</ele>
        <time>2024-03-20T14:07:42.162Z</time>
      </trkpt>
      <trkpt lat="45.870048" lon="8.908168">
        <ele>489.960502</ele>
        <time>2024-03-20T14:07:43.601Z</time>
      </trkpt>
      <trkpt lat="45.870119" lon="8.907771">
        <ele>489.785867</ele>
        <time>2024-03-20T14:07:52.757Z</time>
      </trkpt>
      <trkpt lat="45.870362" lon="8.906827">
        <ele>488.850111</ele>
        <time>2024-03-20T14:08:11.916Z</time>
      </trkpt>
      <trkpt lat="45.870385" lon="8.906001">
        <ele>488.081515</ele>
        <time>2024-03-20T14:08:22.662Z</time>
      </trkpt>
      <trkpt lat="45.870348" lon="8.905711">
        <ele>487.807396</ele>
        <time>2024-03-20T14:08:25.772Z</time>
      </trkpt>
      <trkpt lat="45.870189" lon="8.905203">
        <ele>485.175481</ele>
        <time>2024-03-20T14:08:31.476Z</time>
      </trkpt>
      <trkpt lat="45.870235" lon="8.905101">
        <ele>484.476544</ele>
        <time>2024-03-20T14:08:32.738Z</time>
      </trkpt>
      <trkpt lat="45.870673" lon="8.904731">
        <ele>480.279230</ele>
        <time>2024-03-20T14:08:40.150Z</time>
      </trkpt>
      <trkpt lat="45.870579" lon="8.904083">
        <ele>476.472370</ele>
        <time>2024-03-20T14:08:46.776Z</time>
      </trkpt>
      <trkpt lat="45.870476" lon="8.903675">
        <ele>473.976364</ele>
        <time>2024-03-20T14:08:51.099Z</time>
      </trkpt>
      <trkpt lat="45.870232" lon="8.903042">
        <ele>470.084899</ele>
        <time>2024-03-20T14:08:58.278Z</time>
      </trkpt>
      <trkpt lat="45.869864" lon="8.901976">
        <ele>463.852011</ele>
        <time>2024-03-20T14:09:10.505Z</time>
      </trkpt>
      <trkpt lat="45.869385" lon="8.900772">
        <ele>456.941309</ele>
        <time>2024-03-20T14:09:25.517Z</time>
      </trkpt>
      <trkpt lat="45.869349" lon="8.900610">
        <ele>456.166218</ele>
        <time>2024-03-20T14:09:27.270Z</time>
      </trkpt>
      <trkpt lat="45.869331" lon="8.900204">
        <ele>454.311919</ele>
        <time>2024-03-20T14:09:31.659Z</time>
      </trkpt>
      <trkpt lat="45.869363" lon="8.899180">
        <ele>449.639818</ele>
        <time>2024-03-20T14:09:42.603Z</time>
      </trkpt>
      <trkpt lat="45.869308" lon="8.898574">
        <ele>446.707405</ele>
        <time>2024-03-20T14:09:48.842Z</time>
      </trkpt>
      <trkpt lat="45.869211" lon="8.897914">
        <ele>442.968709</ele>
        <time>2024-03-20T14:09:55.668Z</time>
      </trkpt>
      <trkpt lat="45.869131" lon="8.897654">
        <ele>441.393208</ele>
        <time>2024-03-20T14:09:58.537Z</time>
      </trkpt>
      <trkpt lat="45.868926" lon="8.897256">
        <ele>438.649300</ele>
        <time>2024-03-20T14:10:03.538Z</time>
      </trkpt>
      <trkpt lat="45.868538" lon="8.896690">
        <ele>434.246983</ele>
        <time>2024-03-20T14:10:11.707Z</time>
      </trkpt>
      <trkpt lat="45.868268" lon="8.895932">
        <ele>429.583947</ele>
        <time>2024-03-20T14:10:20.661Z</time>
      </trkpt>
      <trkpt lat="45.867779" lon="8.895310">
        <ele>424.463323</ele>
        <time>2024-03-20T14:10:30.271Z</time>
      </trkpt>
      <trkpt lat="45.867711" lon="8.895237">
        <ele>423.797802</ele>
        <time>2024-03-20T14:10:31.507Z</time>
      </trkpt>
      <trkpt lat="45.867578" lon="8.895188">
        <ele>422.721455</ele>
        <time>2024-03-20T14:10:33.533Z</time>
      </trkpt>
      <trkpt lat="45.867090" lon="8.895117">
        <ele>418.810971</ele>
        <time>2024-03-20T14:10:40.692Z</time>
      </trkpt>
      <trkpt lat="45.866389" lon="8.895071">
        <ele>411.815879</ele>
        <time>2024-03-20T14:10:50.887Z</time>
      </trkpt>
      <trkpt lat="45.865651" lon="8.894943">
        <ele>404.405792</ele>
        <time>2024-03-20T14:11:01.338Z</time>
      </trkpt>
      <trkpt lat="45.865470" lon="8.894793">
        <ele>402.322646</ele>
        <time>2024-03-20T14:11:04.272Z</time>
      </trkpt>
      <trkpt lat="45.865399" lon="8.894633">
        <ele>400.989254</ele>
        <time>2024-03-20T14:11:06.093Z</time>
      </trkpt>
      <trkpt lat="45.865400" lon="8.894421">
        <ele>399.385074</ele>
        <time>2024-03-20T14:11:08.170Z</time>
      </trkpt>
      <trkpt lat="45.865507" lon="8.893836">
        <ele>394.808399</ele>
        <time>2024-03-20T14:11:13.963Z</time>
      </trkpt>
      <trkpt lat="45.865527" lon="8.893206">
        <ele>390.036429</ele>
        <time>2024-03-20T14:11:20.098Z</time>
      </trkpt>
      <trkpt lat="45.865507" lon="8.892983">
        <ele>388.335118</ele>
        <time>2024-03-20T14:11:22.352Z</time>
      </trkpt>
      <trkpt lat="45.865478" lon="8.892867">
        <ele>387.402527</ele>
        <time>2024-03-20T14:11:23.536Z</time>
      </trkpt>
      <trkpt lat="45.865418" lon="8.892770">
        <ele>386.420800</ele>
        <time>2024-03-20T14:11:24.808Z</time>
      </trkpt>
      <trkpt lat="45.864948" lon="8.892283">
        <ele>380.429542</ele>
        <time>2024-03-20T14:11:33.071Z</time>
      </trkpt>
      <trkpt lat="45.864951" lon="8.892178">
        <ele>379.794687</ele>
        <time>2024-03-20T14:11:34.050Z</time>
      </trkpt>
      <trkpt lat="45.865036" lon="8.892090">
        <ele>378.885624</ele>
        <time>2024-03-20T14:11:35.582Z</time>
      </trkpt>
      <trkpt lat="45.865441" lon="8.892143">
        <ele>375.357517</ele>
        <time>2024-03-20T14:11:41.422Z</time>
      </trkpt>
      <trkpt lat="45.865816" lon="8.892244">
        <ele>372.047510</ele>
        <time>2024-03-20T14:11:46.942Z</time>
      </trkpt>
      <trkpt lat="45.867595" lon="8.892875">
        <ele>358.175963</ele>
        <time>2024-03-20T14:12:14.154Z</time>
      </trkpt>
      <trkpt lat="45.867648" lon="8.892799">
        <ele>357.659303</ele>
        <time>2024-03-20T14:12:15.314Z</time>
      </trkpt>
      <trkpt lat="45.867647" lon="8.892727">
        <ele>357.313390</ele>
        <time>2024-03-20T14:12:16.095Z</time>
      </trkpt>
      <trkpt lat="45.867613" lon="8.892677">
        <ele>356.977695</ele>
        <time>2024-03-20T14:12:16.862Z</time>
      </trkpt>
      <trkpt lat="45.867049" lon="8.892404">
        <ele>353.160525</ele>
        <time>2024-03-20T14:12:25.814Z</time>
      </trkpt>
      <trkpt lat="45.867009" lon="8.892363">
        <ele>352.950235</ele>
        <time>2024-03-20T14:12:26.605Z</time>
      </trkpt>
      <trkpt lat="45.866990" lon="8.892293">
        <ele>352.726373</ele>
        <time>2024-03-20T14:12:27.483Z</time>
      </trkpt>
      <trkpt lat="45.867010" lon="8.892232">
        <ele>352.525473</ele>
        <time>2024-03-20T14:12:28.263Z</time>
      </trkpt>
      <trkpt lat="45.867149" lon="8.892194">
        <ele>351.919996</ele>
        <time>2024-03-20T14:12:30.449Z</time>
      </trkpt>
      <trkpt lat="45.867795" lon="8.892420">
        <ele>349.074851</ele>
        <time>2024-03-20T14:12:41.406Z</time>
      </trkpt>
      <trkpt lat="45.867928" lon="8.892378">
        <ele>348.492133</ele>
        <time>2024-03-20T14:12:43.492Z</time>
      </trkpt>
      <trkpt lat="45.868371" lon="8.892432">
        <ele>346.589671</ele>
        <time>2024-03-20T14:12:57.164Z</time>
      </trkpt>
      <trkpt lat="45.868918" lon="8.892329">
        <ele>344.982104</ele>
        <time>2024-03-20T14:13:14.673Z</time>
      </trkpt>
      <trkpt lat="45.869086" lon="8.892228">
        <ele>344.546753</ele>
        <time>2024-03-20T14:13:20.385Z</time>
      </trkpt>
      <trkpt lat="45.869668" lon="8.891709">
        <ele>342.909178</ele>
        <time>2024-03-20T14:13:42.582Z</time>
      </trkpt>
      <trkpt lat="45.869929" lon="8.891469">
        <ele>342.168364</ele>
        <time>2024-03-20T14:13:52.707Z</time>
      </trkpt>
      <trkpt lat="45.870035" lon="8.891472">
        <ele>341.914935</ele>
        <time>2024-03-20T14:13:56.104Z</time>
      </trkpt>
      <trkpt lat="45.870139" lon="8.891547">
        <ele>341.636754</ele>
        <time>2024-03-20T14:13:59.691Z</time>
      </trkpt>
      <trkpt lat="45.870209" lon="8.891583">
        <ele>341.452227</ele>
        <time>2024-03-20T14:14:01.331Z</time>
      </trkpt>
      <trkpt lat="45.870259" lon="8.891600">
        <ele>341.324683</ele>
        <time>2024-03-20T14:14:02.269Z</time>
      </trkpt>
      <trkpt lat="45.870479" lon="8.891515">
        <ele>340.759171</ele>
        <time>2024-03-20T14:14:06.368Z</time>
      </trkpt>
      <trkpt lat="45.870708" lon="8.891276">
        <ele>340.056496</ele>
        <time>2024-03-20T14:14:11.728Z</time>
      </trkpt>
      <trkpt lat="45.870906" lon="8.891092">
        <ele>339.471096</ele>
        <time>2024-03-20T14:14:16.156Z</time>
      </trkpt>
      <trkpt lat="45.871279" lon="8.890778">
        <ele>338.397887</ele>
        <time>2024-03-20T14:14:24.338Z</time>
      </trkpt>
      <trkpt lat="45.871819" lon="8.890419">
        <ele>336.943939</ele>
        <time>2024-03-20T14:14:35.197Z</time>
      </trkpt>
      <trkpt lat="45.872439" lon="8.890035">
        <ele>335.422688</ele>
        <time>2024-03-20T14:14:47.533Z</time>
      </trkpt>
      <trkpt lat="45.872535" lon="8.889963">
        <ele>335.178679</ele>
        <time>2024-03-20T14:14:49.523Z</time>
      </trkpt>
      <trkpt lat="45.872568" lon="8.889891">
        <ele>335.043457</ele>
        <time>2024-03-20T14:14:50.644Z</time>
      </trkpt>
      <trkpt lat="45.872660" lon="8.889890">
        <ele>334.836169</ele>
        <time>2024-03-20T14:14:52.372Z</time>
      </trkpt>
      <trkpt lat="45.873234" lon="8.889645">
        <ele>333.487009</ele>
        <time>2024-03-20T14:15:03.404Z</time>
      </trkpt>
      <trkpt lat="45.873759" lon="8.889429">
        <ele>332.836560</ele>
        <time>2024-03-20T14:15:13.991Z</time>
      </trkpt>
      <trkpt lat="45.874437" lon="8.889328">
        <ele>332.333987</ele>
        <time>2024-03-20T14:15:27.404Z</time>
      </trkpt>
      <trkpt lat="45.874750" lon="8.889374">
        <ele>332.102007</ele>
        <time>2024-03-20T14:15:33.973Z</time>
      </trkpt>
      <trkpt lat="45.875057" lon="8.889608">
        <ele>331.845757</ele>
        <time>2024-03-20T14:15:41.683Z</time>
      </trkpt>
      <trkpt lat="45.875208" lon="8.889612">
        <ele>331.847214</ele>
        <time>2024-03-20T14:15:45.319Z</time>
      </trkpt>
      <trkpt lat="45.875405" lon="8.889530">
        <ele>331.989469</ele>
        <time>2024-03-20T14:15:50.385Z</time>
      </trkpt>
      <trkpt lat="45.875724" lon="8.889285">
        <ele>332.240364</ele>
        <time>2024-03-20T14:15:59.434Z</time>
      </trkpt>
      <trkpt lat="45.876035" lon="8.889132">
        <ele>332.468367</ele>
        <time>2024-03-20T14:16:07.720Z</time>
      </trkpt>
      <trkpt lat="45.876199" lon="8.889104">
        <ele>332.582914</ele>
        <time>2024-03-20T14:16:11.883Z</time>
      </trkpt>
      <trkpt lat="45.876613" lon="8.889125">
        <ele>332.870232</ele>
        <time>2024-03-20T14:16:22.488Z</time>
      </trkpt>
      <trkpt lat="45.876831" lon="8.889084">
        <ele>333.022722</ele>
        <time>2024-03-20T14:16:28.887Z</time>
      </trkpt>
      <trkpt lat="45.877713" lon="8.888908">
        <ele>334.964842</ele>
        <time>2024-03-20T14:16:56.259Z</time>
      </trkpt>
      <trkpt lat="45.878193" lon="8.888893">
        <ele>336.032556</ele>
        <time>2024-03-20T14:17:13.437Z</time>
      </trkpt>
      <trkpt lat="45.878246" lon="8.888901">
        <ele>336.151071</ele>
        <time>2024-03-20T14:17:15.849Z</time>
      </trkpt>
      <trkpt lat="45.878345" lon="8.888913">
        <ele>336.372017</ele>
        <time>2024-03-20T14:17:19.146Z</time>
      </trkpt>
      <trkpt lat="45.878702" lon="8.888891">
        <ele>337.186440</ele>
        <time>2024-03-20T14:17:32.268Z</time>
      </trkpt>
      <trkpt lat="45.878992" lon="8.888764">
        <ele>337.965881</ele>
        <time>2024-03-20T14:17:43.644Z</time>
      </trkpt>
      <trkpt lat="45.879532" lon="8.888588">
        <ele>339.389455</ele>
        <time>2024-03-20T14:18:04.225Z</time>
      </trkpt>
      <trkpt lat="45.879975" lon="8.888423">
        <ele>340.566027</ele>
        <time>2024-03-20T14:18:20.671Z</time>
      </trkpt>
      <trkpt lat="45.880988" lon="8.888273">
        <ele>342.386686</ele>
        <time>2024-03-20T14:18:52.201Z</time>
      </trkpt>
      <trkpt lat="45.881901" lon="8.887916">
        <ele>343.543073</ele>
        <time>2024-03-20T14:19:17.472Z</time>
      </trkpt>
      <trkpt lat="45.882390" lon="8.887863">
        <ele>344.182702</ele>
        <time>2024-03-20T14:19:30.495Z</time>
      </trkpt>
      <trkpt lat="45.883035" lon="8.887936">
        <ele>345.087213</ele>
        <time>2024-03-20T14:19:48.492Z</time>
      </trkpt>
      <trkpt lat="45.883862" lon="8.888156">
        <ele>346.263023</ele>
        <time>2024-03-20T14:20:14.202Z</time>
      </trkpt>
      <trkpt lat="45.884647" lon="8.888563">
        <ele>347.876830</ele>
        <time>2024-03-20T14:20:40.710Z</time>
      </trkpt>
      <trkpt lat="45.884747" lon="8.888614">
        <ele>348.088168</ele>
        <time>2024-03-20T14:20:44.131Z</time>
      </trkpt>
      <trkpt lat="45.885373" lon="8.888817">
        <ele>349.366274</ele>
        <time>2024-03-20T14:21:05.710Z</time>
      </trkpt>
      <trkpt lat="45.885861" lon="8.888825">
        <ele>350.082646</ele>
        <time>2024-03-20T14:21:21.782Z</time>
      </trkpt>
      <trkpt lat="45.886385" lon="8.888599">
        <ele>350.438000</ele>
        <time>2024-03-20T14:21:38.412Z</time>
      </trkpt>
      <trkpt lat="45.887064" lon="8.888528">
        <ele>350.880188</ele>
        <time>2024-03-20T14:21:54.376Z</time>
      </trkpt>
      <trkpt lat="45.887373" lon="8.888495">
        <ele>351.081443</ele>
        <time>2024-03-20T14:22:00.795Z</time>
      </trkpt>
      <trkpt lat="45.887597" lon="8.888452">
        <ele>350.955726</ele>
        <time>2024-03-20T14:22:05.385Z</time>
      </trkpt>
      <trkpt lat="45.888118" lon="8.888459">
        <ele>350.381352</ele>
        <time>2024-03-20T14:22:15.627Z</time>
      </trkpt>
      <trkpt lat="45.888207" lon="8.888483">
        <ele>350.281526</ele>
        <time>2024-03-20T14:22:17.374Z</time>
      </trkpt>
      <trkpt lat="45.888238" lon="8.888519">
        <ele>350.237583</ele>
        <time>2024-03-20T14:22:18.222Z</time>
      </trkpt>
      <trkpt lat="45.888240" lon="8.888603">
        <ele>350.173089</ele>
        <time>2024-03-20T14:22:19.456Z</time>
      </trkpt>
      <trkpt lat="45.888275" lon="8.888631">
        <ele>350.128926</ele>
        <time>2024-03-20T14:22:20.216Z</time>
      </trkpt>
      <trkpt lat="45.888266" lon="8.888726">
        <ele>350.055358</ele>
        <time>2024-03-20T14:22:21.564Z</time>
      </trkpt>
      <trkpt lat="45.888295" lon="8.888967">
        <ele>349.867687</ele>
        <time>2024-03-20T14:22:24.802Z</time>
      </trkpt>
      <trkpt lat="45.888346" lon="8.889059">
        <ele>349.777440</ele>
        <time>2024-03-20T14:22:26.533Z</time>
      </trkpt>
      <trkpt lat="45.888494" lon="8.889201">
        <ele>349.581246</ele>
        <time>2024-03-20T14:22:29.912Z</time>
      </trkpt>
      <trkpt lat="45.888856" lon="8.889487">
        <ele>349.114794</ele>
        <time>2024-03-20T14:22:37.746Z</time>
      </trkpt>
      <trkpt lat="45.888898" lon="8.889521">
        <ele>349.030093</ele>
        <time>2024-03-20T14:22:38.662Z</time>
      </trkpt>
      <trkpt lat="45.889038" lon="8.889629">
        <ele>348.750899</ele>
        <time>2024-03-20T14:22:41.799Z</time>
      </trkpt>
      <trkpt lat="45.889125" lon="8.889697">
        <ele>348.576885</ele>
        <time>2024-03-20T14:22:43.651Z</time>
      </trkpt>
      <trkpt lat="45.889348" lon="8.889870">
        <ele>348.131606</ele>
        <time>2024-03-20T14:22:48.563Z</time>
      </trkpt>
      <trkpt lat="45.889619" lon="8.890094">
        <ele>347.582286</ele>
        <time>2024-03-20T14:22:54.579Z</time>
      </trkpt>
      <trkpt lat="45.889804" lon="8.890189">
        <ele>347.237107</ele>
        <time>2024-03-20T14:22:58.234Z</time>
      </trkpt>
      <trkpt lat="45.890021" lon="8.890237">
        <ele>346.851350</ele>
        <time>2024-03-20T14:23:02.401Z</time>
      </trkpt>
      <trkpt lat="45.890327" lon="8.890338">
        <ele>346.299709</ele>
        <time>2024-03-20T14:23:08.220Z</time>
      </trkpt>
      <trkpt lat="45.890691" lon="8.890596">
        <ele>345.117420</ele>
        <time>2024-03-20T14:23:15.383Z</time>
      </trkpt>
      <trkpt lat="45.891065" lon="8.890738">
        <ele>343.635819</ele>
        <time>2024-03-20T14:23:22.028Z</time>
      </trkpt>
      <trkpt lat="45.891191" lon="8.890858">
        <ele>343.056839</ele>
        <time>2024-03-20T14:23:24.618Z</time>
      </trkpt>
      <trkpt lat="45.891424" lon="8.891293">
        <ele>341.593600</ele>
        <time>2024-03-20T14:23:31.029Z</time>
      </trkpt>
      <trkpt lat="45.891694" lon="8.892015">
        <ele>339.408704</ele>
        <time>2024-03-20T14:23:40.179Z</time>
      </trkpt>
      <trkpt lat="45.891822" lon="8.892197">
        <ele>338.341922</ele>
        <time>2024-03-20T14:23:43.004Z</time>
      </trkpt>
      <trkpt lat="45.892063" lon="8.892447">
        <ele>336.062965</ele>
        <time>2024-03-20T14:23:47.576Z</time>
      </trkpt>
      <trkpt lat="45.892225" lon="8.892632">
        <ele>334.476411</ele>
        <time>2024-03-20T14:23:50.706Z</time>
      </trkpt>
      <trkpt lat="45.892570" lon="8.893066">
        <ele>330.960797</ele>
        <time>2024-03-20T14:23:57.546Z</time>
      </trkpt>
      <trkpt lat="45.893106" lon="8.893127">
        <ele>326.838534</ele>
        <time>2024-03-20T14:24:05.349Z</time>
      </trkpt>
      <trkpt lat="45.893249" lon="8.893163">
        <ele>325.725483</ele>
        <time>2024-03-20T14:24:07.427Z</time>
      </trkpt>
      <trkpt lat="45.893332" lon="8.893221">
        <ele>324.884868</ele>
        <time>2024-03-20T14:24:08.727Z</time>
      </trkpt>
      <trkpt lat="45.893403" lon="8.893313">
        <ele>323.812994</ele>
        <time>2024-03-20T14:24:10.072Z</time>
      </trkpt>
      <trkpt lat="45.893953" lon="8.894316">
        <ele>313.849568</ele>
        <time>2024-03-20T14:24:22.425Z</time>
      </trkpt>
      <trkpt lat="45.894275" lon="8.894669">
        <ele>309.308831</ele>
        <time>2024-03-20T14:24:28.005Z</time>
      </trkpt>
      <trkpt lat="45.895406" lon="8.895311">
        <ele>297.539044</ele>
        <time>2024-03-20T14:24:45.040Z</time>
      </trkpt>
      <trkpt lat="45.895643" lon="8.895366">
        <ele>295.377483</ele>
        <time>2024-03-20T14:24:48.478Z</time>
      </trkpt>
      <trkpt lat="45.895741" lon="8.895385">
        <ele>294.487111</ele>
        <time>2024-03-20T14:24:49.940Z</time>
      </trkpt>
      <trkpt lat="45.895797" lon="8.895395">
        <ele>293.979018</ele>
        <time>2024-03-20T14:24:50.791Z</time>
      </trkpt>
      <trkpt lat="45.896027" lon="8.895421">
        <ele>291.901738</ele>
        <time>2024-03-20T14:24:54.170Z</time>
      </trkpt>
      <trkpt lat="45.896105" lon="8.895398">
        <ele>291.184803</ele>
        <time>2024-03-20T14:24:55.392Z</time>
      </trkpt>
      <trkpt lat="45.896435" lon="8.895917">
        <ele>288.172418</ele>
        <time>2024-03-20T14:25:02.924Z</time>
      </trkpt>
      <trkpt lat="45.896806" lon="8.896295">
        <ele>286.709845</ele>
        <time>2024-03-20T14:25:10.326Z</time>
      </trkpt>
      <trkpt lat="45.897031" lon="8.896528">
        <ele>285.817955</ele>
        <time>2024-03-20T14:25:15.480Z</time>
      </trkpt>
      <trkpt lat="45.897311" lon="8.896890">
        <ele>284.606691</ele>
        <time>2024-03-20T14:25:22.335Z</time>
      </trkpt>
      <trkpt lat="45.897351" lon="8.896943">
        <ele>284.431716</ele>
        <time>2024-03-20T14:25:23.334Z</time>
      </trkpt>
      <trkpt lat="45.897945" lon="8.897744">
        <ele>282.756920</ele>
        <time>2024-03-20T14:25:38.772Z</time>
      </trkpt>
      <trkpt lat="45.898116" lon="8.897980">
        <ele>282.528075</ele>
        <time>2024-03-20T14:25:43.590Z</time>
      </trkpt>
      <trkpt lat="45.898383" lon="8.898332">
        <ele>282.178340</ele>
        <time>2024-03-20T14:25:50.548Z</time>
      </trkpt>
      <trkpt lat="45.899186" lon="8.899507">
        <ele>281.574487</ele>
        <time>2024-03-20T14:26:14.522Z</time>
      </trkpt>
      <trkpt lat="45.899433" lon="8.899930">
        <ele>281.729999</ele>
        <time>2024-03-20T14:26:22.948Z</time>
      </trkpt>
      <trkpt lat="45.900042" lon="8.900986">
        <ele>282.116249</ele>
        <time>2024-03-20T14:26:50.322Z</time>
      </trkpt>
      <trkpt lat="45.900832" lon="8.902442">
        <ele>281.398886</ele>
        <time>2024-03-20T14:27:19.257Z</time>
      </trkpt>
      <trkpt lat="45.901348" lon="8.903206">
        <ele>280.599348</ele>
        <time>2024-03-20T14:27:33.163Z</time>
      </trkpt>
      <trkpt lat="45.901716" lon="8.903502">
        <ele>279.292001</ele>
        <time>2024-03-20T14:27:40.178Z</time>
      </trkpt>
      <trkpt lat="45.901988" lon="8.903657">
        <ele>278.384927</ele>
        <time>2024-03-20T14:27:44.961Z</time>
      </trkpt>
      <trkpt lat="45.902530" lon="8.904088">
        <ele>276.464638</ele>
        <time>2024-03-20T14:27:55.220Z</time>
      </trkpt>
      <trkpt lat="45.902584" lon="8.903888">
        <ele>276.001857</ele>
        <time>2024-03-20T14:27:57.803Z</time>
      </trkpt>
      <trkpt lat="45.902670" lon="8.903135">
        <ele>274.925638</ele>
        <time>2024-03-20T14:28:07.674Z</time>
      </trkpt>
      <trkpt lat="45.902705" lon="8.902853">
        <ele>274.632973</ele>
        <time>2024-03-20T14:28:11.361Z</time>
      </trkpt>
      <trkpt lat="45.902709" lon="8.902810">
        <ele>274.588649</ele>
        <time>2024-03-20T14:28:11.884Z</time>
      </trkpt>
      <trkpt lat="45.902722" lon="8.902728">
        <ele>274.502724</ele>
        <time>2024-03-20T14:28:12.845Z</time>
      </trkpt>
      <trkpt lat="45.902854" lon="8.901893">
        <ele>273.627874</ele>
        <time>2024-03-20T14:28:24.301Z</time>
      </trkpt>
      <trkpt lat="45.902891" lon="8.901773">
        <ele>273.493775</ele>
        <time>2024-03-20T14:28:26.152Z</time>
      </trkpt>
      <trkpt lat="45.903017" lon="8.901567">
        <ele>273.213561</ele>
        <time>2024-03-20T14:28:29.894Z</time>
      </trkpt>
      <trkpt lat="45.903456" lon="8.901172">
        <ele>272.740006</ele>
        <time>2024-03-20T14:28:41.442Z</time>
      </trkpt>
      <trkpt lat="45.903484" lon="8.901144">
        <ele>272.731629</ele>
        <time>2024-03-20T14:28:42.010Z</time>
      </trkpt>
      <trkpt lat="45.903765" lon="8.900786">
        <ele>272.639416</ele>
        <time>2024-03-20T14:28:50.250Z</time>
      </trkpt>
      <trkpt lat="45.903923" lon="8.900574">
        <ele>272.586336</ele>
        <time>2024-03-20T14:28:55.246Z</time>
      </trkpt>
      <trkpt lat="45.903957" lon="8.900533">
        <ele>272.575437</ele>
        <time>2024-03-20T14:28:56.387Z</time>
      </trkpt>
      <trkpt lat="45.903972" lon="8.900505">
        <ele>272.569399</ele>
        <time>2024-03-20T14:28:56.999Z</time>
      </trkpt>
      <trkpt lat="45.904139" lon="8.900272">
        <ele>272.512243</ele>
        <time>2024-03-20T14:29:01.700Z</time>
      </trkpt>
      <trkpt lat="45.904338" lon="8.899582">
        <ele>272.384616</ele>
        <time>2024-03-20T14:29:13.025Z</time>
      </trkpt>
      <trkpt lat="45.904338" lon="8.899582">
        <ele>272.384616</ele>
        <time>2024-03-20T14:29:13.028Z</time>
      </trkpt>
      <trkpt lat="45.904627" lon="8.898765">
        <ele>272.623768</ele>
        <time>2024-03-20T14:29:26.788Z</time>
      </trkpt>
      <trkpt lat="45.905040" lon="8.897899">
        <ele>272.999250</ele>
        <time>2024-03-20T14:29:42.484Z</time>
      </trkpt>
      <trkpt lat="45.905222" lon="8.897534">
        <ele>273.159846</ele>
        <time>2024-03-20T14:29:49.720Z</time>
      </trkpt>
      <trkpt lat="45.905323" lon="8.897343">
        <ele>273.245642</ele>
        <time>2024-03-20T14:29:55.258Z</time>
      </trkpt>
      <trkpt lat="45.905359" lon="8.897260">
        <ele>273.282155</ele>
        <time>2024-03-20T14:29:58.246Z</time>
      </trkpt>
      <trkpt lat="45.905419" lon="8.897137">
        <ele>273.725594</ele>
        <time>2024-03-20T14:30:01.311Z</time>
      </trkpt>
      <trkpt lat="45.905852" lon="8.896400">
        <ele>276.573045</ele>
        <time>2024-03-20T14:30:30.877Z</time>
      </trkpt>
      <trkpt lat="45.906202" lon="8.895834">
        <ele>278.808335</ele>
        <time>2024-03-20T14:30:56.743Z</time>
      </trkpt>
      <trkpt lat="45.906296" lon="8.895717">
        <ele>279.335899</ele>
        <time>2024-03-20T14:31:04.138Z</time>
      </trkpt>
      <trkpt lat="45.906716" lon="8.895440">
        <ele>281.175557</ele>
        <time>2024-03-20T14:31:24.149Z</time>
      </trkpt>
      <trkpt lat="45.906817" lon="8.895415">
        <ele>281.474023</ele>
        <time>2024-03-20T14:31:28.333Z</time>
      </trkpt>
      <trkpt lat="45.906908" lon="8.895447">
        <ele>281.746854</ele>
        <time>2024-03-20T14:31:32.827Z</time>
      </trkpt>
      <trkpt lat="45.907448" lon="8.895734">
        <ele>283.423551</ele>
        <time>2024-03-20T14:31:55.067Z</time>
      </trkpt>
      <trkpt lat="45.907734" lon="8.895881">
        <ele>284.308113</ele>
        <time>2024-03-20T14:32:05.927Z</time>
      </trkpt>
      <trkpt lat="45.907952" lon="8.896001">
        <ele>284.987954</ele>
        <time>2024-03-20T14:32:13.989Z</time>
      </trkpt>
      <trkpt lat="45.908055" lon="8.896089">
        <ele>285.336915</ele>
        <time>2024-03-20T14:32:16.542Z</time>
      </trkpt>
      <trkpt lat="45.908902" lon="8.897110">
        <ele>287.709480</ele>
        <time>2024-03-20T14:32:51.101Z</time>
      </trkpt>
      <trkpt lat="45.909233" lon="8.897610">
        <ele>288.615969</ele>
        <time>2024-03-20T14:33:06.001Z</time>
      </trkpt>
      <trkpt lat="45.909353" lon="8.897728">
        <ele>288.890442</ele>
        <time>2024-03-20T14:33:10.575Z</time>
      </trkpt>
      <trkpt lat="45.909425" lon="8.897764">
        <ele>289.034348</ele>
        <time>2024-03-20T14:33:13.064Z</time>
      </trkpt>
      <trkpt lat="45.909831" lon="8.897736">
        <ele>289.871735</ele>
        <time>2024-03-20T14:33:25.491Z</time>
      </trkpt>
      <trkpt lat="45.910174" lon="8.897765">
        <ele>290.697074</ele>
        <time>2024-03-20T14:33:37.888Z</time>
      </trkpt>
      <trkpt lat="45.910829" lon="8.897870">
        <ele>292.280197</ele>
        <time>2024-03-20T14:34:04.471Z</time>
      </trkpt>
      <trkpt lat="45.911263" lon="8.897878">
        <ele>293.322787</ele>
        <time>2024-03-20T14:34:20.993Z</time>
      </trkpt>
      <trkpt lat="45.912892" lon="8.897766">
        <ele>293.982455</ele>
        <time>2024-03-20T14:34:57.142Z</time>
      </trkpt>
      <trkpt lat="45.913142" lon="8.897777">
        <ele>294.003379</ele>
        <time>2024-03-20T14:35:04.189Z</time>
      </trkpt>
      <trkpt lat="45.913367" lon="8.897839">
        <ele>293.696804</ele>
        <time>2024-03-20T14:35:08.877Z</time>
      </trkpt>
      <trkpt lat="45.913615" lon="8.897907">
        <ele>292.758840</ele>
        <time>2024-03-20T14:35:14.187Z</time>
      </trkpt>
      <trkpt lat="45.913893" lon="8.897924">
        <ele>291.725104</ele>
        <time>2024-03-20T14:35:19.065Z</time>
      </trkpt>
      <trkpt lat="45.914024" lon="8.897940">
        <ele>291.236670</ele>
        <time>2024-03-20T14:35:21.202Z</time>
      </trkpt>
      <trkpt lat="45.914700" lon="8.898009">
        <ele>288.718927</ele>
        <time>2024-03-20T14:35:31.825Z</time>
      </trkpt>
      <trkpt lat="45.915295" lon="8.898338">
        <ele>286.063306</ele>
        <time>2024-03-20T14:35:41.875Z</time>
      </trkpt>
      <trkpt lat="45.915794" lon="8.898681">
        <ele>283.407816</ele>
        <time>2024-03-20T14:35:50.522Z</time>
      </trkpt>
      <trkpt lat="45.915958" lon="8.898723">
        <ele>282.608069</ele>
        <time>2024-03-20T14:35:53.184Z</time>
      </trkpt>
      <trkpt lat="45.916759" lon="8.898794">
        <ele>278.755246</ele>
        <time>2024-03-20T14:36:05.939Z</time>
      </trkpt>
      <trkpt lat="45.917383" lon="8.898846">
        <ele>278.320197</ele>
        <time>2024-03-20T14:36:17.073Z</time>
      </trkpt>
      <trkpt lat="45.918400" lon="8.899119">
        <ele>277.682542</ele>
        <time>2024-03-20T14:36:41.664Z</time>
      </trkpt>
      <trkpt lat="45.918518" lon="8.899113">
        <ele>277.609768</ele>
        <time>2024-03-20T14:36:45.538Z</time>
      </trkpt>
      <trkpt lat="45.918675" lon="8.899051">
        <ele>277.885743</ele>
        <time>2024-03-20T14:36:51.282Z</time>
      </trkpt>
      <trkpt lat="45.918793" lon="8.898929">
        <ele>278.217005</ele>
        <time>2024-03-20T14:36:56.063Z</time>
      </trkpt>
      <trkpt lat="45.919073" lon="8.898480">
        <ele>279.173023</ele>
        <time>2024-03-20T14:37:10.090Z</time>
      </trkpt>
      <trkpt lat="45.919580" lon="8.897536">
        <ele>281.063822</ele>
        <time>2024-03-20T14:37:40.707Z</time>
      </trkpt>
      <trkpt lat="45.919767" lon="8.896623">
        <ele>281.554820</ele>
        <time>2024-03-20T14:38:02.254Z</time>
      </trkpt>
      <trkpt lat="45.919991" lon="8.896084">
        <ele>281.404095</ele>
        <time>2024-03-20T14:38:13.623Z</time>
      </trkpt>
      <trkpt lat="45.920168" lon="8.895773">
        <ele>281.307634</ele>
        <time>2024-03-20T14:38:19.250Z</time>
      </trkpt>
      <trkpt lat="45.920541" lon="8.895232">
        <ele>281.124782</ele>
        <time>2024-03-20T14:38:28.768Z</time>
      </trkpt>
      <trkpt lat="45.921085" lon="8.894600">
        <ele>280.800279</ele>
        <time>2024-03-20T14:38:41.164Z</time>
      </trkpt>
      <trkpt lat="45.921589" lon="8.893940">
        <ele>280.459051</ele>
        <time>2024-03-20T14:38:54.360Z</time>
      </trkpt>
      <trkpt lat="45.921720" lon="8.893733">
        <ele>280.361619</ele>
        <time>2024-03-20T14:38:59.318Z</time>
      </trkpt>
      <trkpt lat="45.921833" lon="8.893460">
        <ele>280.251015</ele>
        <time>2024-03-20T14:39:05.938Z</time>
      </trkpt>
      <trkpt lat="45.921989" lon="8.892992">
        <ele>280.940202</ele>
        <time>2024-03-20T14:39:18.068Z</time>
      </trkpt>
      <trkpt lat="45.922262" lon="8.891983">
        <ele>283.928065</ele>
        <time>2024-03-20T14:39:50.265Z</time>
      </trkpt>
      <trkpt lat="45.922415" lon="8.891659">
        <ele>285.008805</ele>
        <time>2024-03-20T14:40:03.972Z</time>
      </trkpt>
      <trkpt lat="45.922522" lon="8.891520">
        <ele>285.580960</ele>
        <time>2024-03-20T14:40:10.404Z</time>
      </trkpt>
      <trkpt lat="45.922857" lon="8.891208">
        <ele>287.164561</ele>
        <time>2024-03-20T14:40:28.950Z</time>
      </trkpt>
      <trkpt lat="45.923239" lon="8.890902">
        <ele>288.366397</ele>
        <time>2024-03-20T14:40:48.238Z</time>
      </trkpt>
      <trkpt lat="45.923663" lon="8.890730">
        <ele>289.530397</ele>
        <time>2024-03-20T14:41:05.884Z</time>
      </trkpt>
      <trkpt lat="45.924279" lon="8.890601">
        <ele>291.175112</ele>
        <time>2024-03-20T14:41:25.112Z</time>
      </trkpt>
      <trkpt lat="45.925041" lon="8.890178">
        <ele>291.592549</ele>
        <time>2024-03-20T14:41:46.915Z</time>
      </trkpt>
      <trkpt lat="45.925646" lon="8.889927">
        <ele>290.989276</ele>
        <time>2024-03-20T14:42:00.729Z</time>
      </trkpt>
      <trkpt lat="45.926664" lon="8.889425">
        <ele>288.898934</ele>
        <time>2024-03-20T14:42:19.332Z</time>
      </trkpt>
      <trkpt lat="45.927319" lon="8.889426">
        <ele>286.495944</ele>
        <time>2024-03-20T14:42:30.003Z</time>
      </trkpt>
      <trkpt lat="45.927761" lon="8.889385">
        <ele>284.871014</ele>
        <time>2024-03-20T14:42:37.178Z</time>
      </trkpt>
      <trkpt lat="45.928965" lon="8.889271">
        <ele>282.066730</ele>
        <time>2024-03-20T14:42:57.882Z</time>
      </trkpt>
      <trkpt lat="45.929183" lon="8.889182">
        <ele>281.645369</ele>
        <time>2024-03-20T14:43:02.460Z</time>
      </trkpt>
      <trkpt lat="45.929374" lon="8.889064">
        <ele>281.258835</ele>
        <time>2024-03-20T14:43:06.729Z</time>
      </trkpt>
      <trkpt lat="45.929730" lon="8.888623">
        <ele>280.392490</ele>
        <time>2024-03-20T14:43:16.183Z</time>
      </trkpt>
      <trkpt lat="45.930018" lon="8.888386">
        <ele>280.777516</ele>
        <time>2024-03-20T14:43:23.796Z</time>
      </trkpt>
      <trkpt lat="45.930129" lon="8.888338">
        <ele>280.912007</ele>
        <time>2024-03-20T14:43:26.861Z</time>
      </trkpt>
      <trkpt lat="45.930535" lon="8.888297">
        <ele>281.384243</ele>
        <time>2024-03-20T14:43:38.681Z</time>
      </trkpt>
      <trkpt lat="45.930952" lon="8.888141">
        <ele>281.884191</ele>
        <time>2024-03-20T14:43:51.482Z</time>
      </trkpt>
      <trkpt lat="45.931129" lon="8.888080">
        <ele>282.095378</ele>
        <time>2024-03-20T14:43:57.070Z</time>
      </trkpt>
      <trkpt lat="45.931745" lon="8.887908">
        <ele>283.370392</ele>
        <time>2024-03-20T14:44:17.196Z</time>
      </trkpt>
      <trkpt lat="45.932434" lon="8.887939">
        <ele>285.431301</ele>
        <time>2024-03-20T14:44:42.906Z</time>
      </trkpt>
      <trkpt lat="45.933568" lon="8.887668">
        <ele>288.459001</ele>
        <time>2024-03-20T14:45:29.311Z</time>
      </trkpt>
      <trkpt lat="45.934271" lon="8.887616">
        <ele>289.714525</ele>
        <time>2024-03-20T14:45:53.753Z</time>
      </trkpt>
      <trkpt lat="45.936431" lon="8.887799">
        <ele>290.930139</ele>
        <time>2024-03-20T14:46:44.310Z</time>
      </trkpt>
      <trkpt lat="45.937459" lon="8.888221">
        <ele>289.731832</ele>
        <time>2024-03-20T14:47:05.474Z</time>
      </trkpt>
      <trkpt lat="45.938418" lon="8.888417">
        <ele>288.073734</ele>
        <time>2024-03-20T14:47:23.221Z</time>
      </trkpt>
      <trkpt lat="45.938619" lon="8.888523">
        <ele>287.693349</ele>
        <time>2024-03-20T14:47:27.031Z</time>
      </trkpt>
      <trkpt lat="45.939331" lon="8.888998">
        <ele>286.175845</ele>
        <time>2024-03-20T14:47:40.715Z</time>
      </trkpt>
      <trkpt lat="45.940255" lon="8.889694">
        <ele>284.177317</ele>
        <time>2024-03-20T14:48:01.036Z</time>
      </trkpt>
      <trkpt lat="45.940503" lon="8.889840">
        <ele>283.712076</ele>
        <time>2024-03-20T14:48:06.157Z</time>
      </trkpt>
      <trkpt lat="45.940641" lon="8.889870">
        <ele>283.469770</ele>
        <time>2024-03-20T14:48:08.627Z</time>
      </trkpt>
      <trkpt lat="45.940822" lon="8.889816">
        <ele>283.148841</ele>
        <time>2024-03-20T14:48:12.229Z</time>
      </trkpt>
      <trkpt lat="45.941088" lon="8.889790">
        <ele>282.685969</ele>
        <time>2024-03-20T14:48:17.154Z</time>
      </trkpt>
      <trkpt lat="45.941393" lon="8.889849">
        <ele>282.151684</ele>
        <time>2024-03-20T14:48:22.587Z</time>
      </trkpt>
      <trkpt lat="45.941866" lon="8.889961">
        <ele>281.319443</ele>
        <time>2024-03-20T14:48:31.768Z</time>
      </trkpt>
      <trkpt lat="45.941950" lon="8.890042">
        <ele>281.158768</ele>
        <time>2024-03-20T14:48:33.363Z</time>
      </trkpt>
      <trkpt lat="45.942211" lon="8.890430">
        <ele>280.644474</ele>
        <time>2024-03-20T14:48:41.043Z</time>
      </trkpt>
      <trkpt lat="45.942231" lon="8.890462">
        <ele>280.603484</ele>
        <time>2024-03-20T14:48:42.021Z</time>
      </trkpt>
      <trkpt lat="45.942639" lon="8.891250">
        <ele>279.667524</ele>
        <time>2024-03-20T14:48:54.740Z</time>
      </trkpt>
      <trkpt lat="45.942852" lon="8.891488">
        <ele>279.297975</ele>
        <time>2024-03-20T14:49:00.041Z</time>
      </trkpt>
      <trkpt lat="45.943601" lon="8.892192">
        <ele>278.757189</ele>
        <time>2024-03-20T14:49:17.755Z</time>
      </trkpt>
      <trkpt lat="45.943828" lon="8.892354">
        <ele>278.760672</ele>
        <time>2024-03-20T14:49:23.331Z</time>
      </trkpt>
      <trkpt lat="45.944053" lon="8.892469">
        <ele>278.763953</ele>
        <time>2024-03-20T14:49:29.470Z</time>
      </trkpt>
      <trkpt lat="45.944608" lon="8.892664">
        <ele>278.771805</ele>
        <time>2024-03-20T14:49:44.314Z</time>
      </trkpt>
      <trkpt lat="45.944966" lon="8.892740">
        <ele>278.651965</ele>
        <time>2024-03-20T14:49:53.997Z</time>
      </trkpt>
      <trkpt lat="45.945117" lon="8.892729">
        <ele>278.499184</ele>
        <time>2024-03-20T14:49:57.359Z</time>
      </trkpt>
      <trkpt lat="45.945405" lon="8.892619">
        <ele>278.198071</ele>
        <time>2024-03-20T14:50:03.806Z</time>
      </trkpt>
      <trkpt lat="45.945695" lon="8.892370">
        <ele>277.856772</ele>
        <time>2024-03-20T14:50:10.533Z</time>
      </trkpt>
      <trkpt lat="45.946232" lon="8.891890">
        <ele>277.217863</ele>
        <time>2024-03-20T14:50:21.905Z</time>
      </trkpt>
      <trkpt lat="45.946299" lon="8.891833">
        <ele>277.139201</ele>
        <time>2024-03-20T14:50:23.329Z</time>
      </trkpt>
      <trkpt lat="45.946508" lon="8.892613">
        <ele>276.384459</ele>
        <time>2024-03-20T14:50:34.371Z</time>
      </trkpt>
      <trkpt lat="45.946646" lon="8.893631">
        <ele>275.355022</ele>
        <time>2024-03-20T14:50:49.021Z</time>
      </trkpt>
      <trkpt lat="45.946673" lon="8.893650">
        <ele>275.312115</ele>
        <time>2024-03-20T14:50:50.040Z</time>
      </trkpt>
      <trkpt lat="45.946683" lon="8.893711">
        <ele>275.249910</ele>
        <time>2024-03-20T14:50:55.436Z</time>
      </trkpt>
      <trkpt lat="45.946688" lon="8.893705">
        <ele>275.240614</ele>
        <time>2024-03-20T14:50:55.890Z</time>
      </trkpt>
      <trkpt lat="45.947119" lon="8.893205">
        <ele>274.450175</ele>
        <time>2024-03-20T14:51:34.387Z</time>
      </trkpt>
      <trkpt lat="45.947272" lon="8.892985">
        <ele>274.382583</ele>
        <time>2024-03-20T14:51:49.455Z</time>
      </trkpt>
      <trkpt lat="45.947255" lon="8.892950">
        <ele>274.381302</ele>
        <time>2024-03-20T14:51:53.172Z</time>
      </trkpt>
      <trkpt lat="45.947072" lon="8.892443">
        <ele>274.364166</ele>
        <time>2024-03-20T14:52:20.767Z</time>
      </trkpt>
      <trkpt lat="45.947499" lon="8.892360">
        <ele>274.345576</ele>
        <time>2024-03-20T14:52:50.713Z</time>
      </trkpt>
      <trkpt lat="45.947499" lon="8.892360">
        <ele>274.345576</ele>
        <time>2024-03-20T14:52:50.718Z</time>
      </trkpt>
      <trkpt lat="45.947563" lon="8.892487">
        <ele>274.340871</ele>
        <time>2024-03-20T14:52:58.289Z</time>
      </trkpt>
      <trkpt lat="45.947620" lon="8.892469">
        <ele>274.338353</ele>
        <time>2024-03-20T14:53:02.340Z</time>
      </trkpt>
      <trkpt lat="45.947879" lon="8.892158">
        <ele>274.323796</ele>
        <time>2024-03-20T14:53:25.792Z</time>
      </trkpt>
      <trkpt lat="45.948309" lon="8.891594">
        <ele>275.043924</ele>
        <time>2024-03-20T14:54:06.220Z</time>
      </trkpt>
      <trkpt lat="45.948437" lon="8.891431">
        <ele>275.434478</ele>
        <time>2024-03-20T14:54:18.113Z</time>
      </trkpt>
      <trkpt lat="45.948434" lon="8.891390">
        <ele>275.499961</ele>
        <time>2024-03-20T14:54:20.095Z</time>
      </trkpt>
      <trkpt lat="45.948235" lon="8.891179">
        <ele>276.064746</ele>
        <time>2024-03-20T14:54:37.312Z</time>
      </trkpt>
      <trkpt lat="45.948267" lon="8.891090">
        <ele>276.223894</ele>
        <time>2024-03-20T14:54:42.144Z</time>
      </trkpt>
      <trkpt lat="45.948035" lon="8.890790">
        <ele>276.936598</ele>
        <time>2024-03-20T14:55:03.835Z</time>
      </trkpt>
      <trkpt lat="45.948011" lon="8.890668">
        <ele>277.137987</ele>
        <time>2024-03-20T14:55:10.007Z</time>
      </trkpt>
      <trkpt lat="45.947914" lon="8.890665">
        <ele>277.359627</ele>
        <time>2024-03-20T14:55:14.158Z</time>
      </trkpt>
      <trkpt lat="45.947875" lon="8.890575">
        <ele>277.528071</ele>
        <time>2024-03-20T14:55:16.905Z</time>
      </trkpt>
      <trkpt lat="45.948477" lon="8.889961">
        <ele>279.795145</ele>
        <time>2024-03-20T14:55:49.365Z</time>
      </trkpt>
      <trkpt lat="45.949141" lon="8.889436">
        <ele>282.795180</ele>
        <time>2024-03-20T14:56:24.088Z</time>
      </trkpt>
      <trkpt lat="45.949328" lon="8.889332">
        <ele>283.588990</ele>
        <time>2024-03-20T14:56:32.289Z</time>
      </trkpt>
      <trkpt lat="45.949494" lon="8.889316">
        <ele>284.247704</ele>
        <time>2024-03-20T14:56:37.979Z</time>
      </trkpt>
      <trkpt lat="45.949656" lon="8.889339">
        <ele>284.892223</ele>
        <time>2024-03-20T14:56:44.452Z</time>
      </trkpt>
      <trkpt lat="45.950226" lon="8.889598">
        <ele>285.657093</ele>
        <time>2024-03-20T14:57:06.809Z</time>
      </trkpt>
      <trkpt lat="45.950556" lon="8.889734">
        <ele>285.747704</ele>
        <time>2024-03-20T14:57:19.300Z</time>
      </trkpt>
      <trkpt lat="45.950996" lon="8.890109">
        <ele>285.882704</ele>
        <time>2024-03-20T14:57:29.400Z</time>
      </trkpt>
      <trkpt lat="45.951260" lon="8.890265">
        <ele>285.958041</ele>
        <time>2024-03-20T14:57:34.180Z</time>
      </trkpt>
      <trkpt lat="45.951505" lon="8.890376">
        <ele>285.984632</ele>
        <time>2024-03-20T14:57:38.533Z</time>
      </trkpt>
      <trkpt lat="45.952062" lon="8.890514">
        <ele>285.402504</ele>
        <time>2024-03-20T14:57:50.633Z</time>
      </trkpt>
      <trkpt lat="45.952093" lon="8.890670">
        <ele>285.286322</ele>
        <time>2024-03-20T14:57:52.887Z</time>
      </trkpt>
      <trkpt lat="45.952356" lon="8.890727">
        <ele>285.012389</ele>
        <time>2024-03-20T14:58:03.546Z</time>
      </trkpt>
      <trkpt lat="45.952419" lon="8.890598">
        <ele>284.899503</ele>
        <time>2024-03-20T14:58:05.811Z</time>
      </trkpt>
      <trkpt lat="45.952836" lon="8.890593">
        <ele>284.470002</ele>
        <time>2024-03-20T14:58:15.049Z</time>
      </trkpt>
      <trkpt lat="45.953000" lon="8.890493">
        <ele>284.286539</ele>
        <time>2024-03-20T14:58:21.600Z</time>
      </trkpt>
      <trkpt lat="45.953123" lon="8.890457">
        <ele>284.177768</ele>
        <time>2024-03-20T14:58:23.464Z</time>
      </trkpt>
      <trkpt lat="45.953718" lon="8.890612">
        <ele>285.219507</ele>
        <time>2024-03-20T14:58:39.008Z</time>
      </trkpt>
      <trkpt lat="45.953989" lon="8.890624">
        <ele>285.686605</ele>
        <time>2024-03-20T14:58:49.980Z</time>
      </trkpt>
      <trkpt lat="45.954149" lon="8.890474">
        <ele>286.015634</ele>
        <time>2024-03-20T14:58:57.846Z</time>
      </trkpt>
      <trkpt lat="45.954482" lon="8.889990">
        <ele>286.831220</ele>
        <time>2024-03-20T14:59:13.275Z</time>
      </trkpt>
      <trkpt lat="45.954574" lon="8.889801">
        <ele>287.107563</ele>
        <time>2024-03-20T14:59:18.722Z</time>
      </trkpt>
      <trkpt lat="45.954596" lon="8.889651">
        <ele>287.287938</ele>
        <time>2024-03-20T14:59:22.031Z</time>
      </trkpt>
      <trkpt lat="45.954588" lon="8.889273">
        <ele>287.687629</ele>
        <time>2024-03-20T14:59:30.863Z</time>
      </trkpt>
      <trkpt lat="45.954701" lon="8.888929">
        <ele>288.089741</ele>
        <time>2024-03-20T14:59:39.189Z</time>
      </trkpt>
      <trkpt lat="45.954724" lon="8.888775">
        <ele>288.256215</ele>
        <time>2024-03-20T14:59:42.925Z</time>
      </trkpt>
      <trkpt lat="45.954715" lon="8.888038">
        <ele>289.035265</ele>
        <time>2024-03-20T14:59:58.672Z</time>
      </trkpt>
      <trkpt lat="45.954630" lon="8.887718">
        <ele>289.397315</ele>
        <time>2024-03-20T15:00:05.422Z</time>
      </trkpt>
      <trkpt lat="45.954553" lon="8.887030">
        <ele>290.251657</ele>
        <time>2024-03-20T15:00:16.904Z</time>
      </trkpt>
      <trkpt lat="45.954499" lon="8.885093">
        <ele>294.077359</ele>
        <time>2024-03-20T15:00:53.748Z</time>
      </trkpt>
      <trkpt lat="45.954460" lon="8.884630">
        <ele>294.997763</ele>
        <time>2024-03-20T15:01:14.847Z</time>
      </trkpt>
      <trkpt lat="45.954380" lon="8.884081">
        <ele>297.572878</ele>
        <time>2024-03-20T15:01:40.353Z</time>
      </trkpt>
      <trkpt lat="45.954297" lon="8.883641">
        <ele>299.791983</ele>
        <time>2024-03-20T15:02:02.563Z</time>
      </trkpt>
      <trkpt lat="45.954056" lon="8.882826">
        <ele>304.102874</ele>
        <time>2024-03-20T15:02:41.783Z</time>
      </trkpt>
      <trkpt lat="45.954016" lon="8.882281">
        <ele>306.770381</ele>
        <time>2024-03-20T15:03:02.939Z</time>
      </trkpt>
      <trkpt lat="45.954060" lon="8.882044">
        <ele>307.486482</ele>
        <time>2024-03-20T15:03:07.537Z</time>
      </trkpt>
      <trkpt lat="45.954120" lon="8.881723">
        <ele>306.221421</ele>
        <time>2024-03-20T15:03:22.875Z</time>
      </trkpt>
      <trkpt lat="45.954124" lon="8.881437">
        <ele>305.132729</ele>
        <time>2024-03-20T15:03:28.320Z</time>
      </trkpt>
      <trkpt lat="45.954204" lon="8.880591">
        <ele>301.883337</ele>
        <time>2024-03-20T15:03:37.760Z</time>
      </trkpt>
      <trkpt lat="45.954201" lon="8.880386">
        <ele>301.102967</ele>
        <time>2024-03-20T15:03:39.737Z</time>
      </trkpt>
      <trkpt lat="45.954152" lon="8.880110">
        <ele>300.018846</ele>
        <time>2024-03-20T15:03:42.447Z</time>
      </trkpt>
      <trkpt lat="45.953984" lon="8.879104">
        <ele>294.505501</ele>
        <time>2024-03-20T15:03:52.227Z</time>
      </trkpt>
      <trkpt lat="45.953916" lon="8.878252">
        <ele>288.333956</ele>
        <time>2024-03-20T15:04:00.407Z</time>
      </trkpt>
      <trkpt lat="45.953902" lon="8.878071">
        <ele>287.023383</ele>
        <time>2024-03-20T15:04:02.219Z</time>
      </trkpt>
      <trkpt lat="45.953794" lon="8.876611">
        <ele>278.563876</ele>
        <time>2024-03-20T15:04:17.256Z</time>
      </trkpt>
      <trkpt lat="45.953794" lon="8.876495">
        <ele>278.362756</ele>
        <time>2024-03-20T15:04:18.565Z</time>
      </trkpt>
      <trkpt lat="45.953843" lon="8.876228">
        <ele>277.883976</ele>
        <time>2024-03-20T15:04:21.737Z</time>
      </trkpt>
      <trkpt lat="45.954059" lon="8.875766">
        <ele>276.918690</ele>
        <time>2024-03-20T15:04:29.265Z</time>
      </trkpt>
      <trkpt lat="45.954096" lon="8.875723">
        <ele>276.800064</ele>
        <time>2024-03-20T15:04:30.173Z</time>
      </trkpt>
      <trkpt lat="45.954118" lon="8.875637">
        <ele>276.641185</ele>
        <time>2024-03-20T15:04:31.401Z</time>
      </trkpt>
      <trkpt lat="45.954283" lon="8.875442">
        <ele>276.108627</ele>
        <time>2024-03-20T15:04:35.910Z</time>
      </trkpt>
      <trkpt lat="45.954581" lon="8.875164">
        <ele>275.222853</ele>
        <time>2024-03-20T15:04:43.383Z</time>
      </trkpt>
      <trkpt lat="45.955100" lon="8.874682">
        <ele>274.795825</ele>
        <time>2024-03-20T15:04:57.606Z</time>
      </trkpt>
      <trkpt lat="45.955531" lon="8.874300">
        <ele>274.853744</ele>
        <time>2024-03-20T15:05:09.770Z</time>
      </trkpt>
      <trkpt lat="45.955570" lon="8.874266">
        <ele>274.858961</ele>
        <time>2024-03-20T15:05:10.760Z</time>
      </trkpt>
      <trkpt lat="45.955753" lon="8.874074">
        <ele>274.884876</ele>
        <time>2024-03-20T15:05:15.667Z</time>
      </trkpt>
      <trkpt lat="45.955984" lon="8.874061">
        <ele>274.911324</ele>
        <time>2024-03-20T15:05:21.224Z</time>
      </trkpt>
      <trkpt lat="45.956444" lon="8.873836">
        <ele>274.943941</ele>
        <time>2024-03-20T15:05:32.499Z</time>
      </trkpt>
      <trkpt lat="45.956704" lon="8.873746">
        <ele>274.924886</ele>
        <time>2024-03-20T15:05:38.062Z</time>
      </trkpt>
      <trkpt lat="45.956786" lon="8.873748">
        <ele>274.919043</ele>
        <time>2024-03-20T15:05:40.242Z</time>
      </trkpt>
      <trkpt lat="45.956810" lon="8.873755">
        <ele>274.917298</ele>
        <time>2024-03-20T15:05:40.924Z</time>
      </trkpt>
      <trkpt lat="45.957545" lon="8.873985">
        <ele>274.863702</ele>
        <time>2024-03-20T15:05:58.225Z</time>
      </trkpt>
      <trkpt lat="45.957773" lon="8.874011">
        <ele>274.847406</ele>
        <time>2024-03-20T15:06:03.108Z</time>
      </trkpt>
      <trkpt lat="45.957850" lon="8.873970">
        <ele>274.841555</ele>
        <time>2024-03-20T15:06:05.093Z</time>
      </trkpt>
      <trkpt lat="45.957983" lon="8.873725">
        <ele>274.826158</ele>
        <time>2024-03-20T15:06:09.670Z</time>
      </trkpt>
      <trkpt lat="45.958170" lon="8.873697">
        <ele>274.693482</ele>
        <time>2024-03-20T15:06:13.549Z</time>
      </trkpt>
      <trkpt lat="45.958231" lon="8.873537">
        <ele>274.593356</ele>
        <time>2024-03-20T15:06:16.122Z</time>
      </trkpt>
      <trkpt lat="45.958235" lon="8.873499">
        <ele>274.572268</ele>
        <time>2024-03-20T15:06:16.641Z</time>
      </trkpt>
      <trkpt lat="45.958268" lon="8.873160">
        <ele>274.384448</ele>
        <time>2024-03-20T15:06:21.357Z</time>
      </trkpt>
      <trkpt lat="45.958239" lon="8.872665">
        <ele>274.111884</ele>
        <time>2024-03-20T15:06:28.178Z</time>
      </trkpt>
      <trkpt lat="45.958326" lon="8.872767">
        <ele>274.023299</ele>
        <time>2024-03-20T15:06:30.416Z</time>
      </trkpt>
      <trkpt lat="45.958438" lon="8.872827">
        <ele>273.928969</ele>
        <time>2024-03-20T15:06:32.685Z</time>
      </trkpt>
      <trkpt lat="45.958492" lon="8.873029">
        <ele>273.810222</ele>
        <time>2024-03-20T15:06:35.629Z</time>
      </trkpt>
      <trkpt lat="45.958537" lon="8.873047">
        <ele>273.773357</ele>
        <time>2024-03-20T15:06:36.575Z</time>
      </trkpt>
      <trkpt lat="45.958605" lon="8.873133">
        <ele>273.701893</ele>
        <time>2024-03-20T15:06:38.473Z</time>
      </trkpt>
      <trkpt lat="45.958761" lon="8.873743">
        <ele>273.361148</ele>
        <time>2024-03-20T15:06:47.931Z</time>
      </trkpt>
      <trkpt lat="45.958806" lon="8.873785">
        <ele>273.330070</ele>
        <time>2024-03-20T15:06:49.031Z</time>
      </trkpt>
      <trkpt lat="45.959060" lon="8.873800">
        <ele>273.182790</ele>
        <time>2024-03-20T15:06:54.400Z</time>
      </trkpt>
      <trkpt lat="45.959053" lon="8.873554">
        <ele>273.083631</ele>
        <time>2024-03-20T15:06:58.060Z</time>
      </trkpt>
      <trkpt lat="45.959028" lon="8.872750">
        <ele>272.759497</ele>
        <time>2024-03-20T15:07:10.321Z</time>
      </trkpt>
      <trkpt lat="45.958984" lon="8.872093">
        <ele>272.493665</ele>
        <time>2024-03-20T15:07:20.293Z</time>
      </trkpt>
      <trkpt lat="45.959075" lon="8.871800">
        <ele>272.364418</ele>
        <time>2024-03-20T15:07:35.796Z</time>
      </trkpt>
      <trkpt lat="45.959190" lon="8.871631">
        <ele>272.342791</ele>
        <time>2024-03-20T15:07:47.263Z</time>
      </trkpt>
      <trkpt lat="45.959373" lon="8.871469">
        <ele>272.316052</ele>
        <time>2024-03-20T15:08:02.207Z</time>
      </trkpt>
      <trkpt lat="45.959298" lon="8.871336">
        <ele>272.301237</ele>
        <time>2024-03-20T15:08:10.484Z</time>
      </trkpt>
      <trkpt lat="45.959309" lon="8.871320">
        <ele>272.299291</ele>
        <time>2024-03-20T15:08:11.610Z</time>
      </trkpt>
      <trkpt lat="45.959624" lon="8.871328">
        <ele>272.260086</ele>
        <time>2024-03-20T15:08:33.470Z</time>
      </trkpt>
      <trkpt lat="45.959810" lon="8.871003">
        <ele>272.223670</ele>
        <time>2024-03-20T15:08:53.843Z</time>
      </trkpt>
      <trkpt lat="45.959882" lon="8.870784">
        <ele>272.202713</ele>
        <time>2024-03-20T15:09:05.531Z</time>
      </trkpt>
      <trkpt lat="45.959947" lon="8.870369">
        <ele>272.165913</ele>
        <time>2024-03-20T15:09:26.068Z</time>
      </trkpt>
      <trkpt lat="45.959958" lon="8.870078">
        <ele>272.140703</ele>
        <time>2024-03-20T15:09:40.133Z</time>
      </trkpt>
      <trkpt lat="45.959953" lon="8.870051">
        <ele>272.142849</ele>
        <time>2024-03-20T15:09:41.498Z</time>
      </trkpt>
      <trkpt lat="45.959919" lon="8.869873">
        <ele>272.215621</ele>
        <time>2024-03-20T15:09:50.410Z</time>
      </trkpt>
      <trkpt lat="45.959885" lon="8.869695">
        <ele>272.288393</ele>
        <time>2024-03-20T15:09:59.346Z</time>
      </trkpt>
      <trkpt lat="45.959780" lon="8.869254">
        <ele>272.472159</ele>
        <time>2024-03-20T15:10:21.855Z</time>
      </trkpt>
      <trkpt lat="45.959758" lon="8.869110">
        <ele>272.530281</ele>
        <time>2024-03-20T15:10:28.983Z</time>
      </trkpt>
      <trkpt lat="45.959709" lon="8.868773">
        <ele>272.666009</ele>
        <time>2024-03-20T15:10:45.610Z</time>
      </trkpt>
      <trkpt lat="45.959584" lon="8.868080">
        <ele>272.948252</ele>
        <time>2024-03-20T15:11:20.206Z</time>
      </trkpt>
      <trkpt lat="45.959583" lon="8.868073">
        <ele>272.951069</ele>
        <time>2024-03-20T15:11:20.544Z</time>
      </trkpt>
      <trkpt lat="45.959519" lon="8.867355">
        <ele>273.141338</ele>
        <time>2024-03-20T15:11:55.543Z</time>
      </trkpt>
      <trkpt lat="45.959527" lon="8.867032">
        <ele>273.112068</ele>
        <time>2024-03-20T15:12:11.137Z</time>
      </trkpt>
      <trkpt lat="45.959530" lon="8.866911">
        <ele>273.101103</ele>
        <time>2024-03-20T15:12:17.007Z</time>
      </trkpt>
      <trkpt lat="45.959561" lon="8.866741">
        <ele>273.085187</ele>
        <time>2024-03-20T15:12:25.463Z</time>
      </trkpt>
      <trkpt lat="45.959562" lon="8.866599">
        <ele>273.072327</ele>
        <time>2024-03-20T15:12:32.314Z</time>
      </trkpt>
      <trkpt lat="45.959699" lon="8.866428">
        <ele>273.048697</ele>
        <time>2024-03-20T15:12:44.939Z</time>
      </trkpt>
      <trkpt lat="45.959852" lon="8.866096">
        <ele>273.012625</ele>
        <time>2024-03-20T15:13:04.207Z</time>
      </trkpt>
      <trkpt lat="45.959982" lon="8.866040">
        <ele>272.994946</ele>
        <time>2024-03-20T15:13:13.622Z</time>
      </trkpt>
      <trkpt lat="45.960143" lon="8.866129">
        <ele>272.972477</ele>
        <time>2024-03-20T15:13:25.623Z</time>
      </trkpt>
      <trkpt lat="45.960181" lon="8.866101">
        <ele>272.966915</ele>
        <time>2024-03-20T15:13:28.583Z</time>
      </trkpt>
      <trkpt lat="45.960203" lon="8.866066">
        <ele>272.962642</ele>
        <time>2024-03-20T15:13:29.722Z</time>
      </trkpt>
      <trkpt lat="45.960286" lon="8.865833">
        <ele>272.938932</ele>
        <time>2024-03-20T15:13:33.705Z</time>
      </trkpt>
      <trkpt lat="45.960387" lon="8.865708">
        <ele>272.916762</ele>
        <time>2024-03-20T15:13:36.660Z</time>
      </trkpt>
      <trkpt lat="45.960611" lon="8.865599">
        <ele>272.839833</ele>
        <time>2024-03-20T15:13:41.690Z</time>
      </trkpt>
      <trkpt lat="45.960635" lon="8.865559">
        <ele>272.827883</ele>
        <time>2024-03-20T15:13:42.981Z</time>
      </trkpt>
      <trkpt lat="45.960715" lon="8.865342">
        <ele>272.772335</ele>
        <time>2024-03-20T15:13:46.505Z</time>
      </trkpt>
      <trkpt lat="45.960682" lon="8.865151">
        <ele>272.727826</ele>
        <time>2024-03-20T15:13:49.387Z</time>
      </trkpt>
      <trkpt lat="45.960631" lon="8.865020">
        <ele>272.693870</ele>
        <time>2024-03-20T15:13:51.553Z</time>
      </trkpt>
      <trkpt lat="45.960594" lon="8.865023">
        <ele>272.681814</ele>
        <time>2024-03-20T15:13:52.628Z</time>
      </trkpt>
      <trkpt lat="45.960526" lon="8.864942">
        <ele>272.653092</ele>
        <time>2024-03-20T15:13:54.522Z</time>
      </trkpt>
      <trkpt lat="45.960503" lon="8.864617">
        <ele>272.579213</ele>
        <time>2024-03-20T15:13:59.592Z</time>
      </trkpt>
      <trkpt lat="45.960527" lon="8.864525">
        <ele>272.556990</ele>
        <time>2024-03-20T15:14:01.579Z</time>
      </trkpt>
      <trkpt lat="45.960818" lon="8.864007">
        <ele>272.406373</ele>
        <time>2024-03-20T15:14:12.012Z</time>
      </trkpt>
      <trkpt lat="45.960853" lon="8.864047">
        <ele>272.391830</ele>
        <time>2024-03-20T15:14:12.995Z</time>
      </trkpt>
      <trkpt lat="45.960910" lon="8.863953">
        <ele>272.363621</ele>
        <time>2024-03-20T15:14:15.001Z</time>
      </trkpt>
      <trkpt lat="45.960882" lon="8.863909">
        <ele>272.350130</ele>
        <time>2024-03-20T15:14:16.010Z</time>
      </trkpt>
      <trkpt lat="45.961002" lon="8.863704">
        <ele>272.390258</ele>
        <time>2024-03-20T15:14:20.215Z</time>
      </trkpt>
      <trkpt lat="45.961207" lon="8.863353">
        <ele>272.494953</ele>
        <time>2024-03-20T15:14:28.035Z</time>
      </trkpt>
      <trkpt lat="45.961284" lon="8.863314">
        <ele>272.521771</ele>
        <time>2024-03-20T15:14:29.843Z</time>
      </trkpt>
      <trkpt lat="45.961347" lon="8.863214">
        <ele>272.552592</ele>
        <time>2024-03-20T15:14:32.007Z</time>
      </trkpt>
      <trkpt lat="45.961419" lon="8.863030">
        <ele>272.600812</ele>
        <time>2024-03-20T15:14:35.689Z</time>
      </trkpt>
      <trkpt lat="45.961637" lon="8.862388">
        <ele>272.763983</ele>
        <time>2024-03-20T15:14:50.781Z</time>
      </trkpt>
      <trkpt lat="45.962071" lon="8.861244">
        <ele>273.653149</ele>
        <time>2024-03-20T15:15:15.331Z</time>
      </trkpt>
      <trkpt lat="45.962091" lon="8.861020">
        <ele>273.937486</ele>
        <time>2024-03-20T15:15:19.884Z</time>
      </trkpt>
      <trkpt lat="45.962175" lon="8.860878">
        <ele>274.172239</ele>
        <time>2024-03-20T15:15:22.842Z</time>
      </trkpt>
      <trkpt lat="45.962231" lon="8.860728">
        <ele>274.386605</ele>
        <time>2024-03-20T15:15:26.565Z</time>
      </trkpt>
      <trkpt lat="45.962129" lon="8.860623">
        <ele>274.613773</ele>
        <time>2024-03-20T15:15:30.625Z</time>
      </trkpt>
      <trkpt lat="45.961947" lon="8.860885">
        <ele>275.080109</ele>
        <time>2024-03-20T15:15:38.806Z</time>
      </trkpt>
      <trkpt lat="45.961815" lon="8.861015">
        <ele>275.369845</ele>
        <time>2024-03-20T15:15:44.311Z</time>
      </trkpt>
      <trkpt lat="45.961654" lon="8.861123">
        <ele>275.691591</ele>
        <time>2024-03-20T15:15:50.787Z</time>
      </trkpt>
      <trkpt lat="45.961237" lon="8.861304">
        <ele>276.665744</ele>
        <time>2024-03-20T15:16:07.849Z</time>
      </trkpt>
      <trkpt lat="45.961200" lon="8.861321">
        <ele>276.780685</ele>
        <time>2024-03-20T15:16:09.362Z</time>
      </trkpt>
      <trkpt lat="45.961033" lon="8.861395">
        <ele>277.297792</ele>
        <time>2024-03-20T15:16:15.452Z</time>
      </trkpt>
      <trkpt lat="45.960985" lon="8.861416">
        <ele>277.446259</ele>
        <time>2024-03-20T15:16:17.441Z</time>
      </trkpt>
      <trkpt lat="45.960920" lon="8.861455">
        <ele>277.654670</ele>
        <time>2024-03-20T15:16:20.595Z</time>
      </trkpt>
      <trkpt lat="45.960614" lon="8.861006">
        <ele>278.948153</ele>
        <time>2024-03-20T15:16:37.368Z</time>
      </trkpt>
      <trkpt lat="45.960294" lon="8.860521">
        <ele>280.323706</ele>
        <time>2024-03-20T15:16:54.704Z</time>
      </trkpt>
      <trkpt lat="45.959757" lon="8.860943">
        <ele>282.161852</ele>
        <time>2024-03-20T15:17:15.356Z</time>
      </trkpt>
      <trkpt lat="45.959435" lon="8.861160">
        <ele>283.260295</ele>
        <time>2024-03-20T15:17:28.075Z</time>
      </trkpt>
      <trkpt lat="45.959101" lon="8.861857">
        <ele>285.078236</ele>
        <time>2024-03-20T15:17:49.753Z</time>
      </trkpt>
      <trkpt lat="45.959043" lon="8.861931">
        <ele>285.317725</ele>
        <time>2024-03-20T15:17:53.373Z</time>
      </trkpt>
      <trkpt lat="45.958967" lon="8.862051">
        <ele>285.666331</ele>
        <time>2024-03-20T15:17:58.406Z</time>
      </trkpt>
      <trkpt lat="45.958830" lon="8.862247">
        <ele>286.263214</ele>
        <time>2024-03-20T15:18:06.748Z</time>
      </trkpt>
      <trkpt lat="45.957946" lon="8.862584">
        <ele>289.174580</ele>
        <time>2024-03-20T15:18:42.019Z</time>
      </trkpt>
      <trkpt lat="45.957839" lon="8.862675">
        <ele>289.574962</ele>
        <time>2024-03-20T15:18:47.031Z</time>
      </trkpt>
      <trkpt lat="45.957595" lon="8.862994">
        <ele>290.637005</ele>
        <time>2024-03-20T15:18:59.736Z</time>
      </trkpt>
      <trkpt lat="45.957522" lon="8.863060">
        <ele>290.914729</ele>
        <time>2024-03-20T15:19:02.099Z</time>
      </trkpt>
      <trkpt lat="45.957446" lon="8.863361">
        <ele>291.631818</ele>
        <time>2024-03-20T15:19:11.641Z</time>
      </trkpt>
      <trkpt lat="45.957437" lon="8.863804">
        <ele>292.624225</ele>
        <time>2024-03-20T15:19:23.668Z</time>
      </trkpt>
      <trkpt lat="45.957551" lon="8.864356">
        <ele>293.589923</ele>
        <time>2024-03-20T15:19:38.234Z</time>
      </trkpt>
      <trkpt lat="45.957562" lon="8.864738">
        <ele>294.182853</ele>
        <time>2024-03-20T15:19:46.458Z</time>
      </trkpt>
      <trkpt lat="45.957506" lon="8.865074">
        <ele>294.718702</ele>
        <time>2024-03-20T15:19:53.498Z</time>
      </trkpt>
      <trkpt lat="45.957456" lon="8.865202">
        <ele>294.946401</ele>
        <time>2024-03-20T15:19:55.752Z</time>
      </trkpt>
      <trkpt lat="45.957269" lon="8.865494">
        <ele>295.562108</ele>
        <time>2024-03-20T15:20:03.671Z</time>
      </trkpt>
      <trkpt lat="45.957079" lon="8.865669">
        <ele>296.065408</ele>
        <time>2024-03-20T15:20:10.831Z</time>
      </trkpt>
      <trkpt lat="45.956983" lon="8.865749">
        <ele>296.312909</ele>
        <time>2024-03-20T15:20:14.880Z</time>
      </trkpt>
      <trkpt lat="45.956888" lon="8.865877">
        <ele>296.603287</ele>
        <time>2024-03-20T15:20:19.401Z</time>
      </trkpt>
      <trkpt lat="45.956842" lon="8.865957">
        <ele>296.764295</ele>
        <time>2024-03-20T15:20:22.218Z</time>
      </trkpt>
      <trkpt lat="45.956736" lon="8.866227">
        <ele>297.794004</ele>
        <time>2024-03-20T15:20:31.009Z</time>
      </trkpt>
      <trkpt lat="45.956705" lon="8.866379">
        <ele>298.401933</ele>
        <time>2024-03-20T15:20:35.600Z</time>
      </trkpt>
      <trkpt lat="45.956699" lon="8.866745">
        <ele>299.806956</ele>
        <time>2024-03-20T15:20:46.553Z</time>
      </trkpt>
      <trkpt lat="45.956710" lon="8.867014">
        <ele>300.841107</ele>
        <time>2024-03-20T15:20:55.680Z</time>
      </trkpt>
      <trkpt lat="45.956677" lon="8.867288">
        <ele>301.908326</ele>
        <time>2024-03-20T15:21:05.052Z</time>
      </trkpt>
      <trkpt lat="45.956601" lon="8.867496">
        <ele>302.810127</ele>
        <time>2024-03-20T15:21:13.704Z</time>
      </trkpt>
      <trkpt lat="45.956505" lon="8.867660">
        <ele>303.632928</ele>
        <time>2024-03-20T15:21:22.319Z</time>
      </trkpt>
      <trkpt lat="45.956298" lon="8.867901">
        <ele>305.103058</ele>
        <time>2024-03-20T15:21:37.263Z</time>
      </trkpt>
      <trkpt lat="45.956123" lon="8.867987">
        <ele>306.123953</ele>
        <time>2024-03-20T15:21:48.719Z</time>
      </trkpt>
      <trkpt lat="45.955854" lon="8.868009">
        <ele>307.697331</ele>
        <time>2024-03-20T15:22:04.549Z</time>
      </trkpt>
      <trkpt lat="45.955531" lon="8.867879">
        <ele>309.745691</ele>
        <time>2024-03-20T15:22:24.518Z</time>
      </trkpt>
      <trkpt lat="45.955343" lon="8.867677">
        <ele>311.178790</ele>
        <time>2024-03-20T15:22:37.837Z</time>
      </trkpt>
      <trkpt lat="45.955278" lon="8.867543">
        <ele>311.872523</ele>
        <time>2024-03-20T15:22:43.767Z</time>
      </trkpt>
      <trkpt lat="45.955226" lon="8.867357">
        <ele>312.723699</ele>
        <time>2024-03-20T15:22:50.890Z</time>
      </trkpt>
      <trkpt lat="45.955194" lon="8.867109">
        <ele>313.794636</ele>
        <time>2024-03-20T15:22:59.908Z</time>
      </trkpt>
      <trkpt lat="45.955242" lon="8.866531">
        <ele>316.266146</ele>
        <time>2024-03-20T15:23:19.932Z</time>
      </trkpt>
      <trkpt lat="45.955242" lon="8.866245">
        <ele>317.480441</ele>
        <time>2024-03-20T15:23:29.641Z</time>
      </trkpt>
      <trkpt lat="45.955172" lon="8.865610">
        <ele>319.324936</ele>
        <time>2024-03-20T15:23:52.012Z</time>
      </trkpt>
      <trkpt lat="45.955095" lon="8.865361">
        <ele>320.059339</ele>
        <time>2024-03-20T15:24:00.013Z</time>
      </trkpt>
      <trkpt lat="45.954737" lon="8.864613">
        <ele>322.506574</ele>
        <time>2024-03-20T15:24:25.733Z</time>
      </trkpt>
      <trkpt lat="45.954665" lon="8.864259">
        <ele>323.500543</ele>
        <time>2024-03-20T15:24:36.126Z</time>
      </trkpt>
      <trkpt lat="45.954669" lon="8.863986">
        <ele>324.236405</ele>
        <time>2024-03-20T15:24:42.107Z</time>
      </trkpt>
      <trkpt lat="45.954700" lon="8.863903">
        <ele>324.490314</ele>
        <time>2024-03-20T15:24:44.453Z</time>
      </trkpt>
      <trkpt lat="45.954729" lon="8.863738">
        <ele>325.023525</ele>
        <time>2024-03-20T15:24:50.475Z</time>
      </trkpt>
      <trkpt lat="45.954818" lon="8.863498">
        <ele>326.043891</ele>
        <time>2024-03-20T15:24:56.121Z</time>
      </trkpt>
      <trkpt lat="45.954948" lon="8.863264">
        <ele>327.167516</ele>
        <time>2024-03-20T15:25:05.292Z</time>
      </trkpt>
      <trkpt lat="45.955261" lon="8.862857">
        <ele>329.444180</ele>
        <time>2024-03-20T15:25:24.367Z</time>
      </trkpt>
      <trkpt lat="45.955370" lon="8.862612">
        <ele>330.535300</ele>
        <time>2024-03-20T15:25:34.304Z</time>
      </trkpt>
      <trkpt lat="45.955448" lon="8.862333">
        <ele>331.663336</ele>
        <time>2024-03-20T15:25:45.457Z</time>
      </trkpt>
      <trkpt lat="45.955470" lon="8.862028">
        <ele>332.813592</ele>
        <time>2024-03-20T15:25:58.197Z</time>
      </trkpt>
      <trkpt lat="45.955444" lon="8.861723">
        <ele>333.966275</ele>
        <time>2024-03-20T15:26:10.823Z</time>
      </trkpt>
      <trkpt lat="45.955372" lon="8.861509">
        <ele>335.153358</ele>
        <time>2024-03-20T15:26:20.800Z</time>
      </trkpt>
      <trkpt lat="45.955290" lon="8.861375">
        <ele>336.324323</ele>
        <time>2024-03-20T15:26:28.871Z</time>
      </trkpt>
      <trkpt lat="45.954967" lon="8.861096">
        <ele>339.879139</ele>
        <time>2024-03-20T15:26:55.483Z</time>
      </trkpt>
      <trkpt lat="45.954786" lon="8.860827">
        <ele>342.334725</ele>
        <time>2024-03-20T15:27:13.700Z</time>
      </trkpt>
      <trkpt lat="45.954192" lon="8.859367">
        <ele>352.639446</ele>
        <time>2024-03-20T15:28:42.881Z</time>
      </trkpt>
      <trkpt lat="45.954144" lon="8.859077">
        <ele>353.819779</ele>
        <time>2024-03-20T15:28:56.819Z</time>
      </trkpt>
      <trkpt lat="45.954139" lon="8.858680">
        <ele>355.391939</ele>
        <time>2024-03-20T15:29:13.089Z</time>
      </trkpt>
      <trkpt lat="45.954175" lon="8.858395">
        <ele>356.538856</ele>
        <time>2024-03-20T15:29:25.373Z</time>
      </trkpt>
      <trkpt lat="45.954230" lon="8.858223">
        <ele>357.288463</ele>
        <time>2024-03-20T15:29:30.714Z</time>
      </trkpt>
      <trkpt lat="45.954302" lon="8.858086">
        <ele>357.968452</ele>
        <time>2024-03-20T15:29:36.952Z</time>
      </trkpt>
      <trkpt lat="45.954502" lon="8.857862">
        <ele>359.412058</ele>
        <time>2024-03-20T15:29:46.344Z</time>
      </trkpt>
      <trkpt lat="45.954628" lon="8.857760">
        <ele>360.235487</ele>
        <time>2024-03-20T15:29:53.184Z</time>
      </trkpt>
      <trkpt lat="45.954695" lon="8.857716">
        <ele>360.654950</ele>
        <time>2024-03-20T15:29:55.636Z</time>
      </trkpt>
      <trkpt lat="45.954864" lon="8.857691">
        <ele>361.622505</ele>
        <time>2024-03-20T15:29:59.936Z</time>
      </trkpt>
      <trkpt lat="45.955397" lon="8.857752">
        <ele>361.634819</ele>
        <time>2024-03-20T15:30:14.708Z</time>
      </trkpt>
      <trkpt lat="45.955606" lon="8.857688">
        <ele>361.617419</ele>
        <time>2024-03-20T15:30:19.032Z</time>
      </trkpt>
      <trkpt lat="45.955840" lon="8.857509">
        <ele>361.595838</ele>
        <time>2024-03-20T15:30:24.151Z</time>
      </trkpt>
      <trkpt lat="45.956193" lon="8.857090">
        <ele>361.558570</ele>
        <time>2024-03-20T15:30:33.324Z</time>
      </trkpt>
      <trkpt lat="45.956270" lon="8.857029">
        <ele>361.551412</ele>
        <time>2024-03-20T15:30:35.155Z</time>
      </trkpt>
      <trkpt lat="45.956666" lon="8.856979">
        <ele>361.972963</ele>
        <time>2024-03-20T15:30:44.065Z</time>
      </trkpt>
      <trkpt lat="45.957185" lon="8.856967">
        <ele>363.520698</ele>
        <time>2024-03-20T15:31:02.602Z</time>
      </trkpt>
      <trkpt lat="45.957466" lon="8.856808">
        <ele>364.421067</ele>
        <time>2024-03-20T15:31:15.422Z</time>
      </trkpt>
      <trkpt lat="45.957590" lon="8.856693">
        <ele>364.860991</ele>
        <time>2024-03-20T15:31:21.779Z</time>
      </trkpt>
      <trkpt lat="45.957692" lon="8.856460">
        <ele>365.431758</ele>
        <time>2024-03-20T15:31:29.618Z</time>
      </trkpt>
      <trkpt lat="45.957748" lon="8.856141">
        <ele>366.113766</ele>
        <time>2024-03-20T15:31:39.060Z</time>
      </trkpt>
      <trkpt lat="45.957742" lon="8.855645">
        <ele>367.328528</ele>
        <time>2024-03-20T15:31:54.392Z</time>
      </trkpt>
      <trkpt lat="45.957800" lon="8.855275">
        <ele>368.706246</ele>
        <time>2024-03-20T15:32:07.007Z</time>
      </trkpt>
      <trkpt lat="45.957901" lon="8.855001">
        <ele>369.832767</ele>
        <time>2024-03-20T15:32:17.792Z</time>
      </trkpt>
      <trkpt lat="45.958071" lon="8.854763">
        <ele>371.072262</ele>
        <time>2024-03-20T15:32:30.275Z</time>
      </trkpt>
      <trkpt lat="45.958679" lon="8.854288">
        <ele>374.687360</ele>
        <time>2024-03-20T15:33:06.247Z</time>
      </trkpt>
      <trkpt lat="45.958857" lon="8.854126">
        <ele>375.787927</ele>
        <time>2024-03-20T15:33:15.840Z</time>
      </trkpt>
      <trkpt lat="45.959005" lon="8.853830">
        <ele>376.890095</ele>
        <time>2024-03-20T15:33:27.404Z</time>
      </trkpt>
      <trkpt lat="45.959353" lon="8.852881">
        <ele>379.731417</ele>
        <time>2024-03-20T15:34:00.541Z</time>
      </trkpt>
      <trkpt lat="45.959426" lon="8.852567">
        <ele>380.608206</ele>
        <time>2024-03-20T15:34:07.606Z</time>
      </trkpt>
      <trkpt lat="45.959470" lon="8.851954">
        <ele>382.240155</ele>
        <time>2024-03-20T15:34:25.072Z</time>
      </trkpt>
      <trkpt lat="45.959467" lon="8.851674">
        <ele>382.981726</ele>
        <time>2024-03-20T15:34:30.646Z</time>
      </trkpt>
      <trkpt lat="45.959244" lon="8.850916">
        <ele>385.143054</ele>
        <time>2024-03-20T15:34:55.908Z</time>
      </trkpt>
      <trkpt lat="45.959314" lon="8.850870">
        <ele>385.433554</ele>
        <time>2024-03-20T15:34:57.238Z</time>
      </trkpt>
      <trkpt lat="45.959355" lon="8.850844">
        <ele>385.602691</ele>
        <time>2024-03-20T15:34:58.800Z</time>
      </trkpt>
      <trkpt lat="45.959313" lon="8.850678">
        <ele>386.066245</ele>
        <time>2024-03-20T15:35:03.448Z</time>
      </trkpt>
      <trkpt lat="45.959203" lon="8.850011">
        <ele>387.865102</ele>
        <time>2024-03-20T15:35:26.238Z</time>
      </trkpt>
      <trkpt lat="45.959154" lon="8.849936">
        <ele>388.135185</ele>
        <time>2024-03-20T15:35:27.458Z</time>
      </trkpt>
      <trkpt lat="45.959032" lon="8.849833">
        <ele>388.669164</ele>
        <time>2024-03-20T15:35:32.198Z</time>
      </trkpt>
      <trkpt lat="45.958911" lon="8.849804">
        <ele>389.132207</ele>
        <time>2024-03-20T15:35:39.763Z</time>
      </trkpt>
      <trkpt lat="45.958858" lon="8.849638">
        <ele>389.611557</ele>
        <time>2024-03-20T15:35:45.100Z</time>
      </trkpt>
      <trkpt lat="45.958774" lon="8.849349">
        <ele>390.754818</ele>
        <time>2024-03-20T15:35:58.998Z</time>
      </trkpt>
      <trkpt lat="45.958743" lon="8.849239">
        <ele>391.266337</ele>
        <time>2024-03-20T15:36:04.561Z</time>
      </trkpt>
      <trkpt lat="45.958670" lon="8.848985">
        <ele>392.450811</ele>
        <time>2024-03-20T15:36:13.716Z</time>
      </trkpt>
      <trkpt lat="45.958578" lon="8.848796">
        <ele>393.445134</ele>
        <time>2024-03-20T15:36:27.018Z</time>
      </trkpt>
      <trkpt lat="45.958348" lon="8.848525">
        <ele>395.288198</ele>
        <time>2024-03-20T15:36:47.221Z</time>
      </trkpt>
      <trkpt lat="45.958185" lon="8.848448">
        <ele>396.351755</ele>
        <time>2024-03-20T15:36:59.269Z</time>
      </trkpt>
      <trkpt lat="45.957980" lon="8.848329">
        <ele>397.722161</ele>
        <time>2024-03-20T15:37:16.002Z</time>
      </trkpt>
      <trkpt lat="45.957465" lon="8.847944">
        <ele>401.356790</ele>
        <time>2024-03-20T15:37:58.222Z</time>
      </trkpt>
      <trkpt lat="45.956937" lon="8.847494">
        <ele>405.750427</ele>
        <time>2024-03-20T15:38:41.082Z</time>
      </trkpt>
      <trkpt lat="45.956400" lon="8.847039">
        <ele>410.212206</ele>
        <time>2024-03-20T15:39:27.726Z</time>
      </trkpt>
      <trkpt lat="45.955788" lon="8.846694">
        <ele>414.904116</ele>
        <time>2024-03-20T15:40:16.468Z</time>
      </trkpt>
      <trkpt lat="45.955661" lon="8.846578">
        <ele>415.965537</ele>
        <time>2024-03-20T15:40:24.856Z</time>
      </trkpt>
      <trkpt lat="45.955541" lon="8.846354">
        <ele>417.352620</ele>
        <time>2024-03-20T15:40:36.386Z</time>
      </trkpt>
      <trkpt lat="45.955488" lon="8.846199">
        <ele>418.199881</ele>
        <time>2024-03-20T15:40:42.951Z</time>
      </trkpt>
      <trkpt lat="45.955430" lon="8.845899">
        <ele>419.727227</ele>
        <time>2024-03-20T15:40:55.332Z</time>
      </trkpt>
      <trkpt lat="45.955456" lon="8.845458">
        <ele>421.898108</ele>
        <time>2024-03-20T15:41:12.710Z</time>
      </trkpt>
      <trkpt lat="45.955186" lon="8.845367">
        <ele>423.854656</ele>
        <time>2024-03-20T15:41:28.481Z</time>
      </trkpt>
      <trkpt lat="45.955166" lon="8.845272">
        <ele>424.341532</ele>
        <time>2024-03-20T15:41:32.954Z</time>
      </trkpt>
      <trkpt lat="45.955222" lon="8.845196">
        <ele>424.884738</ele>
        <time>2024-03-20T15:41:37.491Z</time>
      </trkpt>
      <trkpt lat="45.955405" lon="8.845118">
        <ele>426.231366</ele>
        <time>2024-03-20T15:41:48.907Z</time>
      </trkpt>
      <trkpt lat="45.956168" lon="8.844942">
        <ele>430.723429</ele>
        <time>2024-03-20T15:42:32.306Z</time>
      </trkpt>
      <trkpt lat="45.956435" lon="8.844252">
        <ele>433.858048</ele>
        <time>2024-03-20T15:42:57.913Z</time>
      </trkpt>
      <trkpt lat="45.956482" lon="8.844078">
        <ele>434.599034</ele>
        <time>2024-03-20T15:43:03.973Z</time>
      </trkpt>
      <trkpt lat="45.956299" lon="8.843985">
        <ele>435.707214</ele>
        <time>2024-03-20T15:43:12.919Z</time>
      </trkpt>
      <trkpt lat="45.955852" lon="8.843802">
        <ele>438.124781</ele>
        <time>2024-03-20T15:43:35.275Z</time>
      </trkpt>
      <trkpt lat="45.955766" lon="8.843746">
        <ele>438.575492</ele>
        <time>2024-03-20T15:43:39.539Z</time>
      </trkpt>
      <trkpt lat="45.955692" lon="8.843629">
        <ele>439.100505</ele>
        <time>2024-03-20T15:43:44.198Z</time>
      </trkpt>
      <trkpt lat="45.955734" lon="8.843496">
        <ele>439.585370</ele>
        <time>2024-03-20T15:43:49.656Z</time>
      </trkpt>
      <trkpt lat="45.955679" lon="8.843330">
        <ele>440.195735</ele>
        <time>2024-03-20T15:43:55.493Z</time>
      </trkpt>
      <trkpt lat="45.955682" lon="8.843177">
        <ele>440.703778</ele>
        <time>2024-03-20T15:43:59.842Z</time>
      </trkpt>
      <trkpt lat="45.955755" lon="8.842938">
        <ele>441.570258</ele>
        <time>2024-03-20T15:44:08.352Z</time>
      </trkpt>
      <trkpt lat="45.955893" lon="8.842728">
        <ele>442.529405</ele>
        <time>2024-03-20T15:44:16.208Z</time>
      </trkpt>
      <trkpt lat="45.955913" lon="8.842703">
        <ele>442.655910</ele>
        <time>2024-03-20T15:44:17.389Z</time>
      </trkpt>
      <trkpt lat="45.955746" lon="8.842325">
        <ele>444.142485</ele>
        <time>2024-03-20T15:44:31.008Z</time>
      </trkpt>
      <trkpt lat="45.955541" lon="8.840967">
        <ele>449.465881</ele>
        <time>2024-03-20T15:45:19.261Z</time>
      </trkpt>
      <trkpt lat="45.955467" lon="8.840652">
        <ele>450.811080</ele>
        <time>2024-03-20T15:45:31.594Z</time>
      </trkpt>
      <trkpt lat="45.955327" lon="8.840385">
        <ele>452.164084</ele>
        <time>2024-03-20T15:45:44.218Z</time>
      </trkpt>
      <trkpt lat="45.955187" lon="8.840198">
        <ele>453.275901</ele>
        <time>2024-03-20T15:45:54.702Z</time>
      </trkpt>
      <trkpt lat="45.955094" lon="8.840110">
        <ele>453.923710</ele>
        <time>2024-03-20T15:46:00.647Z</time>
      </trkpt>
      <trkpt lat="45.954963" lon="8.840048">
        <ele>454.726257</ele>
        <time>2024-03-20T15:46:07.379Z</time>
      </trkpt>
      <trkpt lat="45.954859" lon="8.839996">
        <ele>455.366996</ele>
        <time>2024-03-20T15:46:13.686Z</time>
      </trkpt>
      <trkpt lat="45.954533" lon="8.839953">
        <ele>457.081729</ele>
        <time>2024-03-20T15:46:30.406Z</time>
      </trkpt>
      <trkpt lat="45.954257" lon="8.840044">
        <ele>458.487846</ele>
        <time>2024-03-20T15:46:44.154Z</time>
      </trkpt>
      <trkpt lat="45.954088" lon="8.840189">
        <ele>459.465036</ele>
        <time>2024-03-20T15:46:54.307Z</time>
      </trkpt>
      <trkpt lat="45.953923" lon="8.840428">
        <ele>460.627875</ele>
        <time>2024-03-20T15:47:05.451Z</time>
      </trkpt>
      <trkpt lat="45.953784" lon="8.840758">
        <ele>461.959963</ele>
        <time>2024-03-20T15:47:17.646Z</time>
      </trkpt>
      <trkpt lat="45.953224" lon="8.842287">
        <ele>467.484468</ele>
        <time>2024-03-20T15:48:09.153Z</time>
      </trkpt>
      <trkpt lat="45.953065" lon="8.842610">
        <ele>468.650894</ele>
        <time>2024-03-20T15:48:21.321Z</time>
      </trkpt>
      <trkpt lat="45.952907" lon="8.842838">
        <ele>469.599666</ele>
        <time>2024-03-20T15:48:31.445Z</time>
      </trkpt>
      <trkpt lat="45.952780" lon="8.842968">
        <ele>470.260458</ele>
        <time>2024-03-20T15:48:38.357Z</time>
      </trkpt>
      <trkpt lat="45.952464" lon="8.843136">
        <ele>471.688614</ele>
        <time>2024-03-20T15:48:53.157Z</time>
      </trkpt>
      <trkpt lat="45.952094" lon="8.843158">
        <ele>473.080766</ele>
        <time>2024-03-20T15:49:08.994Z</time>
      </trkpt>
      <trkpt lat="45.951876" lon="8.843089">
        <ele>473.795955</ele>
        <time>2024-03-20T15:49:18.346Z</time>
      </trkpt>
      <trkpt lat="45.951773" lon="8.843015">
        <ele>474.164849</ele>
        <time>2024-03-20T15:49:23.090Z</time>
      </trkpt>
      <trkpt lat="45.951609" lon="8.842839">
        <ele>474.820457</ele>
        <time>2024-03-20T15:49:31.671Z</time>
      </trkpt>
      <trkpt lat="45.951557" lon="8.842743">
        <ele>475.091551</ele>
        <time>2024-03-20T15:49:35.182Z</time>
      </trkpt>
      <trkpt lat="45.951430" lon="8.842320">
        <ele>476.117951</ele>
        <time>2024-03-20T15:49:48.910Z</time>
      </trkpt>
      <trkpt lat="45.950851" lon="8.841178">
        <ele>478.340314</ele>
        <time>2024-03-20T15:50:21.247Z</time>
      </trkpt>
      <trkpt lat="45.950554" lon="8.840612">
        <ele>478.416004</ele>
        <time>2024-03-20T15:50:32.071Z</time>
      </trkpt>
      <trkpt lat="45.949760" lon="8.839114">
        <ele>478.263495</ele>
        <time>2024-03-20T15:50:59.511Z</time>
      </trkpt>
      <trkpt lat="45.948651" lon="8.837632">
        <ele>476.758020</ele>
        <time>2024-03-20T15:51:29.072Z</time>
      </trkpt>
      <trkpt lat="45.947229" lon="8.835816">
        <ele>475.095931</ele>
        <time>2024-03-20T15:52:07.029Z</time>
      </trkpt>
      <trkpt lat="45.946692" lon="8.835141">
        <ele>474.901684</ele>
        <time>2024-03-20T15:52:22.556Z</time>
      </trkpt>
      <trkpt lat="45.946608" lon="8.835132">
        <ele>474.878743</ele>
        <time>2024-03-20T15:52:24.443Z</time>
      </trkpt>
      <trkpt lat="45.946202" lon="8.834614">
        <ele>474.730923</ele>
        <time>2024-03-20T15:52:36.677Z</time>
      </trkpt>
      <trkpt lat="45.945982" lon="8.834333">
        <ele>474.650784</ele>
        <time>2024-03-20T15:52:43.014Z</time>
      </trkpt>
      <trkpt lat="45.945709" lon="8.833983">
        <ele>474.472385</ele>
        <time>2024-03-20T15:52:50.742Z</time>
      </trkpt>
      <trkpt lat="45.945620" lon="8.833866">
        <ele>474.410526</ele>
        <time>2024-03-20T15:52:53.679Z</time>
      </trkpt>
      <trkpt lat="45.945502" lon="8.833707">
        <ele>474.327571</ele>
        <time>2024-03-20T15:52:57.026Z</time>
      </trkpt>
      <trkpt lat="45.945029" lon="8.833002">
        <ele>473.978105</ele>
        <time>2024-03-20T15:53:11.548Z</time>
      </trkpt>
      <trkpt lat="45.944946" lon="8.832960">
        <ele>473.932966</ele>
        <time>2024-03-20T15:53:13.271Z</time>
      </trkpt>
      <trkpt lat="45.944734" lon="8.832548">
        <ele>473.750132</ele>
        <time>2024-03-20T15:53:20.399Z</time>
      </trkpt>
      <trkpt lat="45.944623" lon="8.832368">
        <ele>473.627873</ele>
        <time>2024-03-20T15:53:23.813Z</time>
      </trkpt>
      <trkpt lat="45.944268" lon="8.831893">
        <ele>473.209114</ele>
        <time>2024-03-20T15:53:33.188Z</time>
      </trkpt>
      <trkpt lat="45.944222" lon="8.831830">
        <ele>473.154255</ele>
        <time>2024-03-20T15:53:34.426Z</time>
      </trkpt>
      <trkpt lat="45.944224" lon="8.831701">
        <ele>473.076768</ele>
        <time>2024-03-20T15:53:36.220Z</time>
      </trkpt>
      <trkpt lat="45.944103" lon="8.830601">
        <ele>472.407978</ele>
        <time>2024-03-20T15:53:51.894Z</time>
      </trkpt>
      <trkpt lat="45.943793" lon="8.829400">
        <ele>471.931652</ele>
        <time>2024-03-20T15:54:10.383Z</time>
      </trkpt>
      <trkpt lat="45.943579" lon="8.828692">
        <ele>471.726467</ele>
        <time>2024-03-20T15:54:21.703Z</time>
      </trkpt>
      <trkpt lat="45.943374" lon="8.827904">
        <ele>471.502850</ele>
        <time>2024-03-20T15:54:34.718Z</time>
      </trkpt>
      <trkpt lat="45.943216" lon="8.827363">
        <ele>471.256420</ele>
        <time>2024-03-20T15:54:43.674Z</time>
      </trkpt>
      <trkpt lat="45.943173" lon="8.827216">
        <ele>471.184514</ele>
        <time>2024-03-20T15:54:46.042Z</time>
      </trkpt>
      <trkpt lat="45.943116" lon="8.827022">
        <ele>471.089554</ele>
        <time>2024-03-20T15:54:49.144Z</time>
      </trkpt>
      <trkpt lat="45.943031" lon="8.826746">
        <ele>470.953450</ele>
        <time>2024-03-20T15:54:53.605Z</time>
      </trkpt>
      <trkpt lat="45.943020" lon="8.826708">
        <ele>470.934891</ele>
        <time>2024-03-20T15:54:54.212Z</time>
      </trkpt>
      <trkpt lat="45.942715" lon="8.825782">
        <ele>470.472898</ele>
        <time>2024-03-20T15:55:08.728Z</time>
      </trkpt>
      <trkpt lat="45.942454" lon="8.824861">
        <ele>469.362654</ele>
        <time>2024-03-20T15:55:22.011Z</time>
      </trkpt>
      <trkpt lat="45.942307" lon="8.823805">
        <ele>467.753677</ele>
        <time>2024-03-20T15:55:35.620Z</time>
      </trkpt>
      <trkpt lat="45.942283" lon="8.823682">
        <ele>467.562816</ele>
        <time>2024-03-20T15:55:37.196Z</time>
      </trkpt>
      <trkpt lat="45.941503" lon="8.821337">
        <ele>462.814646</ele>
        <time>2024-03-20T15:56:08.557Z</time>
      </trkpt>
      <trkpt lat="45.941487" lon="8.821248">
        <ele>462.634396</ele>
        <time>2024-03-20T15:56:09.681Z</time>
      </trkpt>
      <trkpt lat="45.941419" lon="8.820745">
        <ele>461.629636</ele>
        <time>2024-03-20T15:56:16.183Z</time>
      </trkpt>
      <trkpt lat="45.941332" lon="8.820414">
        <ele>461.157115</ele>
        <time>2024-03-20T15:56:20.700Z</time>
      </trkpt>
      <trkpt lat="45.941257" lon="8.820250">
        <ele>460.966405</ele>
        <time>2024-03-20T15:56:23.268Z</time>
      </trkpt>
      <trkpt lat="45.941201" lon="8.820187">
        <ele>460.867065</ele>
        <time>2024-03-20T15:56:24.548Z</time>
      </trkpt>
      <trkpt lat="45.941101" lon="8.820090">
        <ele>460.698532</ele>
        <time>2024-03-20T15:56:26.802Z</time>
      </trkpt>
      <trkpt lat="45.940917" lon="8.819840">
        <ele>460.344851</ele>
        <time>2024-03-20T15:56:31.441Z</time>
      </trkpt>
      <trkpt lat="45.940883" lon="8.819793">
        <ele>460.278957</ele>
        <time>2024-03-20T15:56:32.357Z</time>
      </trkpt>
      <trkpt lat="45.940906" lon="8.819759">
        <ele>460.232871</ele>
        <time>2024-03-20T15:56:32.992Z</time>
      </trkpt>
      <trkpt lat="45.940382" lon="8.819057">
        <ele>459.232263</ele>
        <time>2024-03-20T15:56:47.002Z</time>
      </trkpt>
      <trkpt lat="45.940358" lon="8.819094">
        <ele>459.183102</ele>
        <time>2024-03-20T15:56:47.766Z</time>
      </trkpt>
      <trkpt lat="45.940334" lon="8.819130">
        <ele>459.134648</ele>
        <time>2024-03-20T15:56:48.504Z</time>
      </trkpt>
      <trkpt lat="45.939345" lon="8.817802">
        <ele>459.369287</ele>
        <time>2024-03-20T15:57:20.409Z</time>
      </trkpt>
      <trkpt lat="45.939219" lon="8.817634">
        <ele>459.444664</ele>
        <time>2024-03-20T15:57:25.172Z</time>
      </trkpt>
      <trkpt lat="45.938851" lon="8.817141">
        <ele>459.676235</ele>
        <time>2024-03-20T15:57:38.853Z</time>
      </trkpt>
      <trkpt lat="45.938747" lon="8.816925">
        <ele>459.815558</ele>
        <time>2024-03-20T15:57:43.893Z</time>
      </trkpt>
      <trkpt lat="45.938569" lon="8.816424">
        <ele>460.113912</ele>
        <time>2024-03-20T15:57:54.313Z</time>
      </trkpt>
      <trkpt lat="45.938487" lon="8.816276">
        <ele>460.214263</ele>
        <time>2024-03-20T15:57:57.638Z</time>
      </trkpt>
      <trkpt lat="45.937739" lon="8.815470">
        <ele>460.927051</ele>
        <time>2024-03-20T15:58:20.944Z</time>
      </trkpt>
      <trkpt lat="45.937642" lon="8.815429">
        <ele>461.004150</ele>
        <time>2024-03-20T15:58:23.529Z</time>
      </trkpt>
      <trkpt lat="45.937541" lon="8.815433">
        <ele>461.034804</ele>
        <time>2024-03-20T15:58:26.120Z</time>
      </trkpt>
      <trkpt lat="45.937152" lon="8.815599">
        <ele>461.101366</ele>
        <time>2024-03-20T15:58:37.574Z</time>
      </trkpt>
      <trkpt lat="45.936830" lon="8.815666">
        <ele>461.154736</ele>
        <time>2024-03-20T15:58:47.173Z</time>
      </trkpt>
      <trkpt lat="45.936471" lon="8.815627">
        <ele>461.213794</ele>
        <time>2024-03-20T15:58:55.428Z</time>
      </trkpt>
      <trkpt lat="45.936129" lon="8.815380">
        <ele>461.276574</ele>
        <time>2024-03-20T15:59:03.183Z</time>
      </trkpt>
      <trkpt lat="45.935991" lon="8.815244">
        <ele>461.304018</ele>
        <time>2024-03-20T15:59:06.647Z</time>
      </trkpt>
      <trkpt lat="45.935746" lon="8.814898">
        <ele>460.602061</ele>
        <time>2024-03-20T15:59:13.367Z</time>
      </trkpt>
      <trkpt lat="45.935449" lon="8.814684">
        <ele>459.700338</ele>
        <time>2024-03-20T15:59:19.632Z</time>
      </trkpt>
      <trkpt lat="45.935192" lon="8.814922">
        <ele>458.870583</ele>
        <time>2024-03-20T15:59:25.315Z</time>
      </trkpt>
      <trkpt lat="45.934797" lon="8.815425">
        <ele>457.438382</ele>
        <time>2024-03-20T15:59:34.934Z</time>
      </trkpt>
      <trkpt lat="45.934594" lon="8.815559">
        <ele>456.832074</ele>
        <time>2024-03-20T15:59:38.867Z</time>
      </trkpt>
      <trkpt lat="45.934522" lon="8.815568">
        <ele>456.635902</ele>
        <time>2024-03-20T15:59:40.068Z</time>
      </trkpt>
      <trkpt lat="45.933854" lon="8.815171">
        <ele>452.975730</ele>
        <time>2024-03-20T15:59:51.949Z</time>
      </trkpt>
      <trkpt lat="45.933816" lon="8.815355">
        <ele>452.263965</ele>
        <time>2024-03-20T15:59:54.206Z</time>
      </trkpt>
      <trkpt lat="45.933834" lon="8.815765">
        <ele>450.740555</ele>
        <time>2024-03-20T15:59:58.894Z</time>
      </trkpt>
      <trkpt lat="45.934012" lon="8.816900">
        <ele>446.417947</ele>
        <time>2024-03-20T16:00:12.039Z</time>
      </trkpt>
      <trkpt lat="45.934016" lon="8.817035">
        <ele>445.907225</ele>
        <time>2024-03-20T16:00:13.564Z</time>
      </trkpt>
      <trkpt lat="45.934005" lon="8.817168">
        <ele>445.400983</ele>
        <time>2024-03-20T16:00:15.063Z</time>
      </trkpt>
      <trkpt lat="45.933923" lon="8.817382">
        <ele>444.477489</ele>
        <time>2024-03-20T16:00:17.824Z</time>
      </trkpt>
      <trkpt lat="45.933771" lon="8.817595">
        <ele>443.324004</ele>
        <time>2024-03-20T16:00:21.267Z</time>
      </trkpt>
      <trkpt lat="45.933698" lon="8.817639">
        <ele>442.893829</ele>
        <time>2024-03-20T16:00:22.542Z</time>
      </trkpt>
      <trkpt lat="45.933161" lon="8.817865">
        <ele>439.852994</ele>
        <time>2024-03-20T16:00:31.566Z</time>
      </trkpt>
      <trkpt lat="45.931780" lon="8.818658">
        <ele>433.804988</ele>
        <time>2024-03-20T16:00:56.944Z</time>
      </trkpt>
      <trkpt lat="45.931652" lon="8.818754">
        <ele>433.321531</ele>
        <time>2024-03-20T16:00:59.594Z</time>
      </trkpt>
      <trkpt lat="45.931441" lon="8.819005">
        <ele>432.404446</ele>
        <time>2024-03-20T16:01:04.642Z</time>
      </trkpt>
      <trkpt lat="45.931269" lon="8.819120">
        <ele>431.769223</ele>
        <time>2024-03-20T16:01:08.216Z</time>
      </trkpt>
      <trkpt lat="45.930577" lon="8.819256">
        <ele>430.750036</ele>
        <time>2024-03-20T16:01:22.044Z</time>
      </trkpt>
      <trkpt lat="45.929869" lon="8.819224">
        <ele>430.314731</ele>
        <time>2024-03-20T16:01:37.371Z</time>
      </trkpt>
      <trkpt lat="45.929716" lon="8.819240">
        <ele>430.220459</ele>
        <time>2024-03-20T16:01:40.737Z</time>
      </trkpt>
      <trkpt lat="45.929037" lon="8.819383">
        <ele>430.314395</ele>
        <time>2024-03-20T16:01:57.917Z</time>
      </trkpt>
      <trkpt lat="45.928646" lon="8.819530">
        <ele>430.964239</ele>
        <time>2024-03-20T16:02:09.529Z</time>
      </trkpt>
      <trkpt lat="45.928384" lon="8.819631">
        <ele>431.400400</ele>
        <time>2024-03-20T16:02:18.386Z</time>
      </trkpt>
      <trkpt lat="45.928301" lon="8.819635">
        <ele>431.533934</ele>
        <time>2024-03-20T16:02:20.965Z</time>
      </trkpt>
      <trkpt lat="45.928205" lon="8.819591">
        <ele>431.695950</ele>
        <time>2024-03-20T16:02:24.271Z</time>
      </trkpt>
      <trkpt lat="45.928105" lon="8.819559">
        <ele>431.860679</ele>
        <time>2024-03-20T16:02:29.825Z</time>
      </trkpt>
      <trkpt lat="45.927877" lon="8.819463">
        <ele>432.242688</ele>
        <time>2024-03-20T16:02:40.222Z</time>
      </trkpt>
      <trkpt lat="45.927741" lon="8.819369">
        <ele>432.485327</ele>
        <time>2024-03-20T16:02:47.773Z</time>
      </trkpt>
      <trkpt lat="45.927688" lon="8.819272">
        <ele>432.623283</ele>
        <time>2024-03-20T16:02:51.356Z</time>
      </trkpt>
      <trkpt lat="45.927448" lon="8.819857">
        <ele>434.294515</ele>
        <time>2024-03-20T16:03:07.787Z</time>
      </trkpt>
      <trkpt lat="45.927236" lon="8.820270">
        <ele>435.821053</ele>
        <time>2024-03-20T16:03:21.791Z</time>
      </trkpt>
      <trkpt lat="45.927152" lon="8.820331">
        <ele>436.223429</ele>
        <time>2024-03-20T16:03:26.414Z</time>
      </trkpt>
      <trkpt lat="45.926892" lon="8.820098">
        <ele>437.533399</ele>
        <time>2024-03-20T16:03:40.350Z</time>
      </trkpt>
      <trkpt lat="45.926826" lon="8.820051">
        <ele>437.848317</ele>
        <time>2024-03-20T16:03:43.833Z</time>
      </trkpt>
      <trkpt lat="45.926770" lon="8.820033">
        <ele>438.093667</ele>
        <time>2024-03-20T16:03:46.543Z</time>
      </trkpt>
      <trkpt lat="45.926630" lon="8.820090">
        <ele>438.715805</ele>
        <time>2024-03-20T16:03:54.082Z</time>
      </trkpt>
      <trkpt lat="45.926508" lon="8.820151">
        <ele>439.268087</ele>
        <time>2024-03-20T16:04:00.826Z</time>
      </trkpt>
      <trkpt lat="45.926375" lon="8.820084">
        <ele>439.870655</ele>
        <time>2024-03-20T16:04:07.796Z</time>
      </trkpt>
      <trkpt lat="45.926195" lon="8.820053">
        <ele>440.657854</ele>
        <time>2024-03-20T16:04:17.833Z</time>
      </trkpt>
      <trkpt lat="45.925857" lon="8.819881">
        <ele>442.342707</ele>
        <time>2024-03-20T16:04:35.108Z</time>
      </trkpt>
      <trkpt lat="45.925496" lon="8.819590">
        <ele>444.287544</ele>
        <time>2024-03-20T16:04:53.722Z</time>
      </trkpt>
      <trkpt lat="45.925346" lon="8.819510">
        <ele>445.039347</ele>
        <time>2024-03-20T16:05:01.259Z</time>
      </trkpt>
      <trkpt lat="45.925244" lon="8.819473">
        <ele>445.533675</ele>
        <time>2024-03-20T16:05:06.187Z</time>
      </trkpt>
      <trkpt lat="45.924811" lon="8.819152">
        <ele>447.822981</ele>
        <time>2024-03-20T16:05:30.006Z</time>
      </trkpt>
      <trkpt lat="45.924546" lon="8.818953">
        <ele>449.013850</ele>
        <time>2024-03-20T16:05:42.163Z</time>
      </trkpt>
      <trkpt lat="45.923977" lon="8.818865">
        <ele>449.419424</ele>
        <time>2024-03-20T16:06:02.504Z</time>
      </trkpt>
      <trkpt lat="45.923759" lon="8.818706">
        <ele>449.592666</ele>
        <time>2024-03-20T16:06:07.963Z</time>
      </trkpt>
      <trkpt lat="45.923632" lon="8.818540">
        <ele>449.714312</ele>
        <time>2024-03-20T16:06:11.359Z</time>
      </trkpt>
      <trkpt lat="45.923430" lon="8.818380">
        <ele>449.877760</ele>
        <time>2024-03-20T16:06:16.011Z</time>
      </trkpt>
      <trkpt lat="45.923285" lon="8.818348">
        <ele>449.981725</ele>
        <time>2024-03-20T16:06:18.693Z</time>
      </trkpt>
      <trkpt lat="45.923230" lon="8.818364">
        <ele>450.021493</ele>
        <time>2024-03-20T16:06:19.813Z</time>
      </trkpt>
      <trkpt lat="45.923041" lon="8.818373">
        <ele>450.155510</ele>
        <time>2024-03-20T16:06:23.591Z</time>
      </trkpt>
      <trkpt lat="45.922450" lon="8.818573">
        <ele>449.742683</ele>
        <time>2024-03-20T16:06:36.016Z</time>
      </trkpt>
      <trkpt lat="45.922325" lon="8.818586">
        <ele>449.608148</ele>
        <time>2024-03-20T16:06:38.644Z</time>
      </trkpt>
      <trkpt lat="45.922207" lon="8.818559">
        <ele>449.479884</ele>
        <time>2024-03-20T16:06:41.025Z</time>
      </trkpt>
      <trkpt lat="45.921886" lon="8.818395">
        <ele>449.114183</ele>
        <time>2024-03-20T16:06:47.689Z</time>
      </trkpt>
      <trkpt lat="45.921461" lon="8.818234">
        <ele>448.642381</ele>
        <time>2024-03-20T16:06:55.900Z</time>
      </trkpt>
      <trkpt lat="45.920892" lon="8.817937">
        <ele>448.296602</ele>
        <time>2024-03-20T16:07:07.825Z</time>
      </trkpt>
      <trkpt lat="45.920724" lon="8.817897">
        <ele>448.283680</ele>
        <time>2024-03-20T16:07:11.457Z</time>
      </trkpt>
      <trkpt lat="45.920579" lon="8.817926">
        <ele>448.272571</ele>
        <time>2024-03-20T16:07:14.698Z</time>
      </trkpt>
      <trkpt lat="45.920458" lon="8.818015">
        <ele>448.262257</ele>
        <time>2024-03-20T16:07:17.669Z</time>
      </trkpt>
      <trkpt lat="45.920132" lon="8.818463">
        <ele>448.228033</ele>
        <time>2024-03-20T16:07:28.785Z</time>
      </trkpt>
      <trkpt lat="45.919940" lon="8.818686">
        <ele>448.209302</ele>
        <time>2024-03-20T16:07:34.453Z</time>
      </trkpt>
      <trkpt lat="45.919036" lon="8.819539">
        <ele>449.259782</ele>
        <time>2024-03-20T16:08:01.014Z</time>
      </trkpt>
      <trkpt lat="45.918931" lon="8.819642">
        <ele>449.445226</ele>
        <time>2024-03-20T16:08:04.554Z</time>
      </trkpt>
      <trkpt lat="45.918509" lon="8.819783">
        <ele>450.077261</ele>
        <time>2024-03-20T16:08:15.809Z</time>
      </trkpt>
      <trkpt lat="45.918024" lon="8.819892">
        <ele>450.793385</ele>
        <time>2024-03-20T16:08:31.288Z</time>
      </trkpt>
      <trkpt lat="45.917646" lon="8.819964">
        <ele>452.402778</ele>
        <time>2024-03-20T16:08:50.217Z</time>
      </trkpt>
      <trkpt lat="45.917059" lon="8.820195">
        <ele>455.014162</ele>
        <time>2024-03-20T16:09:21.140Z</time>
      </trkpt>
      <trkpt lat="45.916891" lon="8.820195">
        <ele>455.735016</ele>
        <time>2024-03-20T16:09:29.835Z</time>
      </trkpt>
      <trkpt lat="45.916740" lon="8.820084">
        <ele>456.462738</ele>
        <time>2024-03-20T16:09:36.682Z</time>
      </trkpt>
      <trkpt lat="45.916188" lon="8.819683">
        <ele>458.573782</ele>
        <time>2024-03-20T16:10:05.059Z</time>
      </trkpt>
      <trkpt lat="45.916159" lon="8.819648">
        <ele>458.587242</ele>
        <time>2024-03-20T16:10:05.711Z</time>
      </trkpt>
      <trkpt lat="45.916085" lon="8.819612">
        <ele>458.615012</ele>
        <time>2024-03-20T16:10:07.093Z</time>
      </trkpt>
      <trkpt lat="45.915509" lon="8.819960">
        <ele>458.837107</ele>
        <time>2024-03-20T16:10:23.995Z</time>
      </trkpt>
      <trkpt lat="45.914893" lon="8.820417">
        <ele>459.083516</ele>
        <time>2024-03-20T16:10:40.136Z</time>
      </trkpt>
      <trkpt lat="45.914731" lon="8.820570">
        <ele>459.152419</ele>
        <time>2024-03-20T16:10:43.090Z</time>
      </trkpt>
      <trkpt lat="45.914678" lon="8.820633">
        <ele>459.119351</ele>
        <time>2024-03-20T16:10:45.582Z</time>
      </trkpt>
      <trkpt lat="45.914593" lon="8.820903">
        <ele>458.862486</ele>
        <time>2024-03-20T16:10:48.821Z</time>
      </trkpt>
      <trkpt lat="45.914491" lon="8.821074">
        <ele>458.667257</ele>
        <time>2024-03-20T16:10:52.685Z</time>
      </trkpt>
      <trkpt lat="45.914391" lon="8.821203">
        <ele>458.499859</ele>
        <time>2024-03-20T16:10:55.000Z</time>
      </trkpt>
      <trkpt lat="45.914163" lon="8.821385">
        <ele>458.174950</ele>
        <time>2024-03-20T16:11:00.623Z</time>
      </trkpt>
      <trkpt lat="45.914009" lon="8.821531">
        <ele>457.945120</ele>
        <time>2024-03-20T16:11:03.576Z</time>
      </trkpt>
      <trkpt lat="45.913801" lon="8.821606">
        <ele>457.677962</ele>
        <time>2024-03-20T16:11:09.937Z</time>
      </trkpt>
      <trkpt lat="45.913396" lon="8.821632">
        <ele>457.172907</ele>
        <time>2024-03-20T16:11:17.457Z</time>
      </trkpt>
      <trkpt lat="45.912724" lon="8.822029">
        <ele>456.746670</ele>
        <time>2024-03-20T16:11:37.191Z</time>
      </trkpt>
      <trkpt lat="45.912612" lon="8.822133">
        <ele>456.701904</ele>
        <time>2024-03-20T16:11:39.522Z</time>
      </trkpt>
      <trkpt lat="45.912378" lon="8.822491">
        <ele>456.587168</ele>
        <time>2024-03-20T16:11:46.583Z</time>
      </trkpt>
      <trkpt lat="45.911867" lon="8.822926">
        <ele>456.387781</ele>
        <time>2024-03-20T16:11:58.088Z</time>
      </trkpt>
      <trkpt lat="45.911740" lon="8.823198">
        <ele>456.369672</ele>
        <time>2024-03-20T16:12:02.981Z</time>
      </trkpt>
      <trkpt lat="45.911636" lon="8.823547">
        <ele>456.910948</ele>
        <time>2024-03-20T16:12:10.731Z</time>
      </trkpt>
      <trkpt lat="45.911546" lon="8.823879">
        <ele>457.418930</ele>
        <time>2024-03-20T16:12:17.122Z</time>
      </trkpt>
      <trkpt lat="45.911491" lon="8.823990">
        <ele>457.613209</ele>
        <time>2024-03-20T16:12:20.755Z</time>
      </trkpt>
      <trkpt lat="45.911416" lon="8.824095">
        <ele>457.827747</ele>
        <time>2024-03-20T16:12:23.437Z</time>
      </trkpt>
      <trkpt lat="45.911245" lon="8.824228">
        <ele>458.226155</ele>
        <time>2024-03-20T16:12:29.687Z</time>
      </trkpt>
      <trkpt lat="45.910988" lon="8.824326">
        <ele>458.770986</ele>
        <time>2024-03-20T16:12:38.245Z</time>
      </trkpt>
      <trkpt lat="45.910680" lon="8.824226">
        <ele>459.418003</ele>
        <time>2024-03-20T16:12:49.775Z</time>
      </trkpt>
      <trkpt lat="45.910494" lon="8.824143">
        <ele>459.817078</ele>
        <time>2024-03-20T16:12:58.268Z</time>
      </trkpt>
      <trkpt lat="45.910063" lon="8.824197">
        <ele>461.114360</ele>
        <time>2024-03-20T16:13:17.010Z</time>
      </trkpt>
      <trkpt lat="45.909552" lon="8.824375">
        <ele>462.825321</ele>
        <time>2024-03-20T16:13:41.624Z</time>
      </trkpt>
      <trkpt lat="45.909296" lon="8.824563">
        <ele>463.760807</ele>
        <time>2024-03-20T16:13:54.197Z</time>
      </trkpt>
      <trkpt lat="45.909113" lon="8.824615">
        <ele>464.367825</ele>
        <time>2024-03-20T16:14:02.882Z</time>
      </trkpt>
      <trkpt lat="45.908897" lon="8.824742">
        <ele>465.127244</ele>
        <time>2024-03-20T16:14:08.072Z</time>
      </trkpt>
      <trkpt lat="45.908549" lon="8.824850">
        <ele>466.022324</ele>
        <time>2024-03-20T16:14:16.042Z</time>
      </trkpt>
      <trkpt lat="45.908302" lon="8.824830">
        <ele>466.331686</ele>
        <time>2024-03-20T16:14:22.571Z</time>
      </trkpt>
      <trkpt lat="45.908255" lon="8.824828">
        <ele>466.390484</ele>
        <time>2024-03-20T16:14:23.673Z</time>
      </trkpt>
      <trkpt lat="45.908057" lon="8.824949">
        <ele>466.659536</ele>
        <time>2024-03-20T16:14:30.154Z</time>
      </trkpt>
      <trkpt lat="45.907666" lon="8.825157">
        <ele>467.180900</ele>
        <time>2024-03-20T16:14:42.030Z</time>
      </trkpt>
      <trkpt lat="45.907158" lon="8.825345">
        <ele>467.836873</ele>
        <time>2024-03-20T16:14:57.366Z</time>
      </trkpt>
      <trkpt lat="45.907036" lon="8.825349">
        <ele>467.989473</ele>
        <time>2024-03-20T16:15:01.146Z</time>
      </trkpt>
      <trkpt lat="45.906772" lon="8.825259">
        <ele>468.486267</ele>
        <time>2024-03-20T16:15:09.355Z</time>
      </trkpt>
      <trkpt lat="45.906054" lon="8.824977">
        <ele>470.078404</ele>
        <time>2024-03-20T16:15:30.872Z</time>
      </trkpt>
      <trkpt lat="45.905694" lon="8.824803">
        <ele>470.890835</ele>
        <time>2024-03-20T16:15:44.214Z</time>
      </trkpt>
      <trkpt lat="45.905358" lon="8.824706">
        <ele>471.623903</ele>
        <time>2024-03-20T16:15:58.817Z</time>
      </trkpt>
      <trkpt lat="45.904529" lon="8.824234">
        <ele>472.695240</ele>
        <time>2024-03-20T16:16:29.158Z</time>
      </trkpt>
      <trkpt lat="45.904269" lon="8.823959">
        <ele>473.019664</ele>
        <time>2024-03-20T16:16:38.397Z</time>
      </trkpt>
      <trkpt lat="45.904171" lon="8.823813">
        <ele>473.161520</ele>
        <time>2024-03-20T16:16:42.974Z</time>
      </trkpt>
      <trkpt lat="45.904098" lon="8.823644">
        <ele>473.300620</ele>
        <time>2024-03-20T16:16:46.726Z</time>
      </trkpt>
      <trkpt lat="45.903955" lon="8.823476">
        <ele>473.486237</ele>
        <time>2024-03-20T16:16:51.039Z</time>
      </trkpt>
      <trkpt lat="45.903782" lon="8.823341">
        <ele>473.684070</ele>
        <time>2024-03-20T16:16:55.181Z</time>
      </trkpt>
      <trkpt lat="45.903313" lon="8.822850">
        <ele>471.523972</ele>
        <time>2024-03-20T16:17:05.912Z</time>
      </trkpt>
      <trkpt lat="45.902901" lon="8.822330">
        <ele>469.083042</ele>
        <time>2024-03-20T16:17:15.165Z</time>
      </trkpt>
      <trkpt lat="45.902577" lon="8.821931">
        <ele>467.183633</ele>
        <time>2024-03-20T16:17:21.971Z</time>
      </trkpt>
      <trkpt lat="45.902524" lon="8.821812">
        <ele>466.745975</ele>
        <time>2024-03-20T16:17:23.514Z</time>
      </trkpt>
      <trkpt lat="45.902465" lon="8.821826">
        <ele>466.479783</ele>
        <time>2024-03-20T16:17:24.509Z</time>
      </trkpt>
      <trkpt lat="45.902343" lon="8.821386">
        <ele>464.966667</ele>
        <time>2024-03-20T16:17:29.507Z</time>
      </trkpt>
      <trkpt lat="45.902014" lon="8.821482">
        <ele>463.379858</ele>
        <time>2024-03-20T16:17:38.862Z</time>
      </trkpt>
      <trkpt lat="45.901772" lon="8.821552">
        <ele>462.213061</ele>
        <time>2024-03-20T16:17:45.860Z</time>
      </trkpt>
      <trkpt lat="45.901116" lon="8.821746">
        <ele>459.047387</ele>
        <time>2024-03-20T16:18:05.302Z</time>
      </trkpt>
      <trkpt lat="45.900639" lon="8.821851">
        <ele>457.160304</ele>
        <time>2024-03-20T16:18:20.290Z</time>
      </trkpt>
      <trkpt lat="45.900230" lon="8.821836">
        <ele>456.789277</ele>
        <time>2024-03-20T16:18:33.883Z</time>
      </trkpt>
      <trkpt lat="45.899839" lon="8.821865">
        <ele>456.434221</ele>
        <time>2024-03-20T16:18:47.361Z</time>
      </trkpt>
      <trkpt lat="45.899758" lon="8.821898">
        <ele>456.357870</ele>
        <time>2024-03-20T16:18:50.234Z</time>
      </trkpt>
      <trkpt lat="45.899456" lon="8.822278">
        <ele>455.993838</ele>
        <time>2024-03-20T16:19:04.981Z</time>
      </trkpt>
      <trkpt lat="45.899297" lon="8.822387">
        <ele>455.834078</ele>
        <time>2024-03-20T16:19:11.746Z</time>
      </trkpt>
      <trkpt lat="45.898864" lon="8.822356">
        <ele>456.046107</ele>
        <time>2024-03-20T16:19:28.690Z</time>
      </trkpt>
      <trkpt lat="45.898756" lon="8.822252">
        <ele>456.320760</ele>
        <time>2024-03-20T16:19:33.841Z</time>
      </trkpt>
      <trkpt lat="45.898611" lon="8.822042">
        <ele>456.755678</ele>
        <time>2024-03-20T16:19:42.869Z</time>
      </trkpt>
      <trkpt lat="45.898553" lon="8.822015">
        <ele>456.884477</ele>
        <time>2024-03-20T16:19:45.448Z</time>
      </trkpt>
      <trkpt lat="45.898529" lon="8.821996">
        <ele>456.942364</ele>
        <time>2024-03-20T16:19:46.582Z</time>
      </trkpt>
      <trkpt lat="45.898401" lon="8.822003">
        <ele>457.212969</ele>
        <time>2024-03-20T16:19:52.575Z</time>
      </trkpt>
      <trkpt lat="45.898207" lon="8.822089">
        <ele>457.641867</ele>
        <time>2024-03-20T16:20:02.235Z</time>
      </trkpt>
      <trkpt lat="45.897860" lon="8.822487">
        <ele>458.579829</ele>
        <time>2024-03-20T16:20:25.189Z</time>
      </trkpt>
      <trkpt lat="45.897484" lon="8.822808">
        <ele>459.520332</ele>
        <time>2024-03-20T16:20:49.501Z</time>
      </trkpt>
      <trkpt lat="45.896811" lon="8.822841">
        <ele>461.232442</ele>
        <time>2024-03-20T16:21:25.390Z</time>
      </trkpt>
      <trkpt lat="45.896300" lon="8.823285">
        <ele>462.750740</ele>
        <time>2024-03-20T16:21:55.314Z</time>
      </trkpt>
      <trkpt lat="45.895901" lon="8.824450">
        <ele>464.102217</ele>
        <time>2024-03-20T16:22:36.429Z</time>
      </trkpt>
      <trkpt lat="45.894005" lon="8.826817">
        <ele>464.178649</ele>
        <time>2024-03-20T16:24:07.446Z</time>
      </trkpt>
      <trkpt lat="45.892941" lon="8.827440">
        <ele>463.726820</ele>
        <time>2024-03-20T16:24:49.774Z</time>
      </trkpt>
      <trkpt lat="45.891924" lon="8.828313">
        <ele>463.020148</ele>
        <time>2024-03-20T16:25:31.077Z</time>
      </trkpt>
      <trkpt lat="45.891629" lon="8.828441">
        <ele>462.877235</ele>
        <time>2024-03-20T16:25:41.400Z</time>
      </trkpt>
      <trkpt lat="45.891508" lon="8.828536">
        <ele>462.827844</ele>
        <time>2024-03-20T16:25:47.103Z</time>
      </trkpt>
      <trkpt lat="45.891285" lon="8.828760">
        <ele>462.730380</ele>
        <time>2024-03-20T16:25:56.352Z</time>
      </trkpt>
      <trkpt lat="45.890890" lon="8.829270">
        <ele>462.540153</ele>
        <time>2024-03-20T16:26:15.954Z</time>
      </trkpt>
      <trkpt lat="45.890550" lon="8.829652">
        <ele>462.385549</ele>
        <time>2024-03-20T16:26:31.597Z</time>
      </trkpt>
      <trkpt lat="45.889974" lon="8.830079">
        <ele>462.388755</ele>
        <time>2024-03-20T16:26:55.575Z</time>
      </trkpt>
      <trkpt lat="45.889680" lon="8.830576">
        <ele>462.497465</ele>
        <time>2024-03-20T16:27:14.027Z</time>
      </trkpt>
      <trkpt lat="45.888711" lon="8.831300">
        <ele>462.765667</ele>
        <time>2024-03-20T16:27:56.113Z</time>
      </trkpt>
      <trkpt lat="45.888361" lon="8.831376">
        <ele>462.867125</ele>
        <time>2024-03-20T16:28:08.836Z</time>
      </trkpt>
      <trkpt lat="45.887569" lon="8.831795">
        <ele>463.109033</ele>
        <time>2024-03-20T16:28:40.171Z</time>
      </trkpt>
      <trkpt lat="45.886684" lon="8.831747">
        <ele>463.724495</ele>
        <time>2024-03-20T16:29:17.490Z</time>
      </trkpt>
      <trkpt lat="45.886304" lon="8.831787">
        <ele>464.156881</ele>
        <time>2024-03-20T16:29:34.204Z</time>
      </trkpt>
      <trkpt lat="45.886077" lon="8.831903">
        <ele>464.430297</ele>
        <time>2024-03-20T16:29:45.074Z</time>
      </trkpt>
      <trkpt lat="45.885533" lon="8.832442">
        <ele>465.180226</ele>
        <time>2024-03-20T16:30:14.453Z</time>
      </trkpt>
      <trkpt lat="45.884449" lon="8.833697">
        <ele>465.508525</ele>
        <time>2024-03-20T16:31:07.514Z</time>
      </trkpt>
      <trkpt lat="45.884145" lon="8.833777">
        <ele>465.562312</ele>
        <time>2024-03-20T16:31:18.436Z</time>
      </trkpt>
      <trkpt lat="45.883608" lon="8.834119">
        <ele>465.715282</ele>
        <time>2024-03-20T16:31:39.839Z</time>
      </trkpt>
      <trkpt lat="45.883418" lon="8.834180">
        <ele>465.773828</ele>
        <time>2024-03-20T16:31:46.834Z</time>
      </trkpt>
      <trkpt lat="45.883356" lon="8.834378">
        <ele>465.819277</ele>
        <time>2024-03-20T16:31:52.863Z</time>
      </trkpt>
      <trkpt lat="45.883195" lon="8.834465">
        <ele>465.871005</ele>
        <time>2024-03-20T16:31:59.049Z</time>
      </trkpt>
      <trkpt lat="45.883071" lon="8.834385">
        <ele>465.911882</ele>
        <time>2024-03-20T16:32:04.966Z</time>
      </trkpt>
      <trkpt lat="45.882580" lon="8.834258">
        <ele>466.061910</ele>
        <time>2024-03-20T16:32:24.819Z</time>
      </trkpt>
      <trkpt lat="45.882261" lon="8.834205">
        <ele>466.210373</ele>
        <time>2024-03-20T16:32:38.125Z</time>
      </trkpt>
      <trkpt lat="45.882054" lon="8.834206">
        <ele>466.414596</ele>
        <time>2024-03-20T16:32:46.666Z</time>
      </trkpt>
      <trkpt lat="45.881854" lon="8.834230">
        <ele>466.612599</ele>
        <time>2024-03-20T16:32:55.070Z</time>
      </trkpt>
      <trkpt lat="45.881136" lon="8.834422">
        <ele>467.333133</ele>
        <time>2024-03-20T16:33:27.222Z</time>
      </trkpt>
      <trkpt lat="45.879531" lon="8.834913">
        <ele>468.815029</ele>
        <time>2024-03-20T16:34:33.738Z</time>
      </trkpt>
      <trkpt lat="45.879373" lon="8.834933">
        <ele>468.950925</ele>
        <time>2024-03-20T16:34:40.096Z</time>
      </trkpt>
      <trkpt lat="45.878543" lon="8.834875">
        <ele>469.878452</ele>
        <time>2024-03-20T16:35:15.303Z</time>
      </trkpt>
      <trkpt lat="45.878186" lon="8.834752">
        <ele>470.513394</ele>
        <time>2024-03-20T16:35:31.705Z</time>
      </trkpt>
      <trkpt lat="45.878110" lon="8.834754">
        <ele>470.644858</ele>
        <time>2024-03-20T16:35:35.050Z</time>
      </trkpt>
      <trkpt lat="45.877176" lon="8.834503">
        <ele>472.288235</ele>
        <time>2024-03-20T16:36:19.841Z</time>
      </trkpt>
      <trkpt lat="45.874167" lon="8.834002">
        <ele>477.745066</ele>
        <time>2024-03-20T16:38:44.387Z</time>
      </trkpt>
      <trkpt lat="45.872811" lon="8.833651">
        <ele>478.122712</ele>
        <time>2024-03-20T16:39:35.418Z</time>
      </trkpt>
      <trkpt lat="45.872282" lon="8.833493">
        <ele>477.679639</ele>
        <time>2024-03-20T16:39:53.612Z</time>
      </trkpt>
      <trkpt lat="45.870861" lon="8.833418">
        <ele>476.390401</ele>
        <time>2024-03-20T16:40:42.027Z</time>
      </trkpt>
      <trkpt lat="45.870262" lon="8.833201">
        <ele>475.790442</ele>
        <time>2024-03-20T16:41:03.618Z</time>
      </trkpt>
      <trkpt lat="45.870055" lon="8.832592">
        <ele>475.368051</ele>
        <time>2024-03-20T16:41:20.027Z</time>
      </trkpt>
      <trkpt lat="45.869388" lon="8.832909">
        <ele>474.923462</ele>
        <time>2024-03-20T16:41:44.864Z</time>
      </trkpt>
      <trkpt lat="45.868987" lon="8.832867">
        <ele>474.669034</ele>
        <time>2024-03-20T16:41:59.156Z</time>
      </trkpt>
      <trkpt lat="45.868982" lon="8.832971">
        <ele>474.623100</ele>
        <time>2024-03-20T16:42:01.843Z</time>
      </trkpt>
      <trkpt lat="45.868975" lon="8.833107">
        <ele>474.563012</ele>
        <time>2024-03-20T16:42:04.855Z</time>
      </trkpt>
      <trkpt lat="45.868972" lon="8.833169">
        <ele>474.535628</ele>
        <time>2024-03-20T16:42:05.807Z</time>
      </trkpt>
      <trkpt lat="45.867398" lon="8.832865">
        <ele>473.865809</ele>
        <time>2024-03-20T16:42:39.481Z</time>
      </trkpt>
      <trkpt lat="45.867463" lon="8.832773">
        <ele>473.833318</ele>
        <time>2024-03-20T16:42:44.349Z</time>
      </trkpt>
      <trkpt lat="45.867192" lon="8.832719">
        <ele>473.735910</ele>
        <time>2024-03-20T16:42:49.642Z</time>
      </trkpt>
      <trkpt lat="45.865365" lon="8.832389">
        <ele>472.731245</ele>
        <time>2024-03-20T16:43:28.781Z</time>
      </trkpt>
      <trkpt lat="45.864539" lon="8.832293">
        <ele>471.481341</ele>
        <time>2024-03-20T16:43:44.558Z</time>
      </trkpt>
      <trkpt lat="45.864263" lon="8.832315">
        <ele>470.992568</ele>
        <time>2024-03-20T16:43:49.604Z</time>
      </trkpt>
      <trkpt lat="45.863546" lon="8.832478">
        <ele>469.708984</ele>
        <time>2024-03-20T16:44:02.661Z</time>
      </trkpt>
      <trkpt lat="45.863370" lon="8.832518">
        <ele>469.410987</ele>
        <time>2024-03-20T16:44:05.940Z</time>
      </trkpt>
      <trkpt lat="45.863180" lon="8.832500">
        <ele>469.180656</ele>
        <time>2024-03-20T16:44:09.537Z</time>
      </trkpt>
      <trkpt lat="45.863022" lon="8.832440">
        <ele>468.982962</ele>
        <time>2024-03-20T16:44:12.649Z</time>
      </trkpt>
      <trkpt lat="45.862727" lon="8.832210">
        <ele>468.576914</ele>
        <time>2024-03-20T16:44:19.222Z</time>
      </trkpt>
      <trkpt lat="45.862574" lon="8.832001">
        <ele>468.321477</ele>
        <time>2024-03-20T16:44:23.299Z</time>
      </trkpt>
      <trkpt lat="45.862447" lon="8.831732">
        <ele>468.047712</ele>
        <time>2024-03-20T16:44:27.787Z</time>
      </trkpt>
      <trkpt lat="45.862102" lon="8.830334">
        <ele>466.863997</ele>
        <time>2024-03-20T16:44:48.541Z</time>
      </trkpt>
      <trkpt lat="45.861906" lon="8.829767">
        <ele>466.404663</ele>
        <time>2024-03-20T16:44:57.899Z</time>
      </trkpt>
      <trkpt lat="45.861719" lon="8.829489">
        <ele>466.124197</ele>
        <time>2024-03-20T16:45:03.718Z</time>
      </trkpt>
      <trkpt lat="45.861130" lon="8.828786">
        <ele>465.367517</ele>
        <time>2024-03-20T16:45:17.909Z</time>
      </trkpt>
      <trkpt lat="45.860739" lon="8.828322">
        <ele>465.142950</ele>
        <time>2024-03-20T16:45:27.488Z</time>
      </trkpt>
      <trkpt lat="45.860651" lon="8.828216">
        <ele>465.092098</ele>
        <time>2024-03-20T16:45:29.651Z</time>
      </trkpt>
      <trkpt lat="45.860419" lon="8.827961">
        <ele>464.962750</ele>
        <time>2024-03-20T16:45:35.760Z</time>
      </trkpt>
      <trkpt lat="45.860310" lon="8.827860">
        <ele>464.905318</ele>
        <time>2024-03-20T16:45:37.991Z</time>
      </trkpt>
      <trkpt lat="45.860030" lon="8.827660">
        <ele>464.766865</ele>
        <time>2024-03-20T16:45:46.850Z</time>
      </trkpt>
      <trkpt lat="45.859603" lon="8.827423">
        <ele>464.671002</ele>
        <time>2024-03-20T16:45:58.908Z</time>
      </trkpt>
      <trkpt lat="45.859487" lon="8.827319">
        <ele>464.782470</ele>
        <time>2024-03-20T16:46:04.959Z</time>
      </trkpt>
      <trkpt lat="45.859344" lon="8.827149">
        <ele>464.933793</ele>
        <time>2024-03-20T16:46:09.071Z</time>
      </trkpt>
      <trkpt lat="45.859054" lon="8.826710">
        <ele>465.277270</ele>
        <time>2024-03-20T16:46:22.999Z</time>
      </trkpt>
      <trkpt lat="45.858973" lon="8.826583">
        <ele>465.375027</ele>
        <time>2024-03-20T16:46:28.948Z</time>
      </trkpt>
      <trkpt lat="45.858386" lon="8.825616">
        <ele>465.836148</ele>
        <time>2024-03-20T16:46:50.683Z</time>
      </trkpt>
      <trkpt lat="45.858128" lon="8.825330">
        <ele>464.094554</ele>
        <time>2024-03-20T16:46:56.174Z</time>
      </trkpt>
      <trkpt lat="45.857925" lon="8.825197">
        <ele>462.902285</ele>
        <time>2024-03-20T16:46:59.932Z</time>
      </trkpt>
      <trkpt lat="45.857368" lon="8.825012">
        <ele>459.847484</ele>
        <time>2024-03-20T16:47:08.629Z</time>
      </trkpt>
      <trkpt lat="45.856735" lon="8.824915">
        <ele>456.445137</ele>
        <time>2024-03-20T16:47:18.042Z</time>
      </trkpt>
      <trkpt lat="45.856593" lon="8.824847">
        <ele>455.585754</ele>
        <time>2024-03-20T16:47:20.234Z</time>
      </trkpt>
      <trkpt lat="45.856405" lon="8.824703">
        <ele>454.362451</ele>
        <time>2024-03-20T16:47:23.388Z</time>
      </trkpt>
      <trkpt lat="45.856191" lon="8.824426">
        <ele>452.708313</ele>
        <time>2024-03-20T16:47:27.691Z</time>
      </trkpt>
      <trkpt lat="45.855576" lon="8.823365">
        <ele>447.188860</ele>
        <time>2024-03-20T16:47:42.689Z</time>
      </trkpt>
      <trkpt lat="45.855411" lon="8.823182">
        <ele>446.081029</ele>
        <time>2024-03-20T16:47:46.258Z</time>
      </trkpt>
      <trkpt lat="45.855202" lon="8.823077">
        <ele>445.624618</ele>
        <time>2024-03-20T16:47:50.079Z</time>
      </trkpt>
      <trkpt lat="45.854856" lon="8.823049">
        <ele>444.910296</ele>
        <time>2024-03-20T16:47:56.414Z</time>
      </trkpt>
      <trkpt lat="45.854483" lon="8.823148">
        <ele>444.128426</ele>
        <time>2024-03-20T16:48:03.629Z</time>
      </trkpt>
      <trkpt lat="45.854187" lon="8.823235">
        <ele>443.505645</ele>
        <time>2024-03-20T16:48:09.542Z</time>
      </trkpt>
      <trkpt lat="45.853746" lon="8.823253">
        <ele>442.596269</ele>
        <time>2024-03-20T16:48:18.385Z</time>
      </trkpt>
      <trkpt lat="45.852547" lon="8.823134">
        <ele>438.667355</ele>
        <time>2024-03-20T16:48:39.876Z</time>
      </trkpt>
      <trkpt lat="45.852222" lon="8.823021">
        <ele>437.543939</ele>
        <time>2024-03-20T16:48:45.315Z</time>
      </trkpt>
      <trkpt lat="45.851659" lon="8.822814">
        <ele>434.678535</ele>
        <time>2024-03-20T16:48:54.387Z</time>
      </trkpt>
      <trkpt lat="45.851575" lon="8.822821">
        <ele>434.068947</ele>
        <time>2024-03-20T16:48:55.709Z</time>
      </trkpt>
      <trkpt lat="45.851438" lon="8.822946">
        <ele>432.892935</ele>
        <time>2024-03-20T16:48:58.205Z</time>
      </trkpt>
      <trkpt lat="45.851150" lon="8.823437">
        <ele>429.653745</ele>
        <time>2024-03-20T16:49:04.863Z</time>
      </trkpt>
      <trkpt lat="45.851055" lon="8.823748">
        <ele>427.940092</ele>
        <time>2024-03-20T16:49:08.319Z</time>
      </trkpt>
      <trkpt lat="45.850998" lon="8.824065">
        <ele>426.288004</ele>
        <time>2024-03-20T16:49:11.594Z</time>
      </trkpt>
      <trkpt lat="45.850916" lon="8.824467">
        <ele>424.174230</ele>
        <time>2024-03-20T16:49:15.785Z</time>
      </trkpt>
      <trkpt lat="45.850886" lon="8.824639">
        <ele>423.282640</ele>
        <time>2024-03-20T16:49:17.634Z</time>
      </trkpt>
      <trkpt lat="45.850841" lon="8.824898">
        <ele>421.995873</ele>
        <time>2024-03-20T16:49:20.429Z</time>
      </trkpt>
      <trkpt lat="45.850809" lon="8.825086">
        <ele>421.062950</ele>
        <time>2024-03-20T16:49:22.385Z</time>
      </trkpt>
      <trkpt lat="45.850584" lon="8.826316">
        <ele>414.932644</ele>
        <time>2024-03-20T16:49:35.566Z</time>
      </trkpt>
      <trkpt lat="45.850447" lon="8.826576">
        <ele>413.361073</ele>
        <time>2024-03-20T16:49:39.043Z</time>
      </trkpt>
      <trkpt lat="45.850315" lon="8.826684">
        <ele>412.309598</ele>
        <time>2024-03-20T16:49:41.436Z</time>
      </trkpt>
      <trkpt lat="45.850285" lon="8.826691">
        <ele>412.099251</ele>
        <time>2024-03-20T16:49:41.916Z</time>
      </trkpt>
      <trkpt lat="45.850020" lon="8.826690">
        <ele>410.460493</ele>
        <time>2024-03-20T16:49:46.032Z</time>
      </trkpt>
      <trkpt lat="45.849213" lon="8.826594">
        <ele>406.574484</ele>
        <time>2024-03-20T16:49:58.989Z</time>
      </trkpt>
      <trkpt lat="45.849038" lon="8.826538">
        <ele>405.714062</ele>
        <time>2024-03-20T16:50:01.829Z</time>
      </trkpt>
      <trkpt lat="45.848551" lon="8.826166">
        <ele>403.066760</ele>
        <time>2024-03-20T16:50:10.532Z</time>
      </trkpt>
      <trkpt lat="45.847675" lon="8.825236">
        <ele>399.424594</ele>
        <time>2024-03-20T16:50:29.105Z</time>
      </trkpt>
      <trkpt lat="45.847551" lon="8.825164">
        <ele>399.012432</ele>
        <time>2024-03-20T16:50:31.351Z</time>
      </trkpt>
      <trkpt lat="45.847462" lon="8.825156">
        <ele>398.737651</ele>
        <time>2024-03-20T16:50:32.862Z</time>
      </trkpt>
      <trkpt lat="45.847264" lon="8.825242">
        <ele>398.100224</ele>
        <time>2024-03-20T16:50:36.310Z</time>
      </trkpt>
      <trkpt lat="45.847185" lon="8.825358">
        <ele>397.752013</ele>
        <time>2024-03-20T16:50:38.193Z</time>
      </trkpt>
      <trkpt lat="45.847121" lon="8.825509">
        <ele>397.372621</ele>
        <time>2024-03-20T16:50:40.563Z</time>
      </trkpt>
      <trkpt lat="45.847085" lon="8.825708">
        <ele>396.931314</ele>
        <time>2024-03-20T16:50:43.042Z</time>
      </trkpt>
      <trkpt lat="45.847072" lon="8.826267">
        <ele>396.172642</ele>
        <time>2024-03-20T16:50:50.694Z</time>
      </trkpt>
      <trkpt lat="45.847006" lon="8.826506">
        <ele>395.865265</ele>
        <time>2024-03-20T16:50:54.585Z</time>
      </trkpt>
      <trkpt lat="45.846706" lon="8.827203">
        <ele>394.885700</ele>
        <time>2024-03-20T16:51:05.443Z</time>
      </trkpt>
      <trkpt lat="45.846580" lon="8.827350">
        <ele>394.607030</ele>
        <time>2024-03-20T16:51:08.736Z</time>
      </trkpt>
      <trkpt lat="45.846068" lon="8.827784">
        <ele>393.555764</ele>
        <time>2024-03-20T16:51:19.498Z</time>
      </trkpt>
      <trkpt lat="45.845617" lon="8.828175">
        <ele>392.142433</ele>
        <time>2024-03-20T16:51:28.782Z</time>
      </trkpt>
      <trkpt lat="45.845413" lon="8.828230">
        <ele>391.585628</ele>
        <time>2024-03-20T16:51:32.582Z</time>
      </trkpt>
      <trkpt lat="45.845239" lon="8.828221">
        <ele>391.118564</ele>
        <time>2024-03-20T16:51:35.822Z</time>
      </trkpt>
      <trkpt lat="45.845084" lon="8.828159">
        <ele>390.686931</ele>
        <time>2024-03-20T16:51:38.749Z</time>
      </trkpt>
      <trkpt lat="45.845023" lon="8.828121">
        <ele>390.508553</ele>
        <time>2024-03-20T16:51:39.895Z</time>
      </trkpt>
      <trkpt lat="45.844366" lon="8.827737">
        <ele>388.558701</ele>
        <time>2024-03-20T16:51:51.791Z</time>
      </trkpt>
      <trkpt lat="45.843543" lon="8.826957">
        <ele>385.323279</ele>
        <time>2024-03-20T16:52:08.947Z</time>
      </trkpt>
      <trkpt lat="45.843327" lon="8.826706">
        <ele>384.411559</ele>
        <time>2024-03-20T16:52:13.662Z</time>
      </trkpt>
      <trkpt lat="45.843143" lon="8.826425">
        <ele>383.530179</ele>
        <time>2024-03-20T16:52:18.178Z</time>
      </trkpt>
      <trkpt lat="45.842979" lon="8.825999">
        <ele>382.475920</ele>
        <time>2024-03-20T16:52:23.787Z</time>
      </trkpt>
      <trkpt lat="45.842811" lon="8.825452">
        <ele>381.269278</ele>
        <time>2024-03-20T16:52:30.660Z</time>
      </trkpt>
      <trkpt lat="45.842586" lon="8.824978">
        <ele>380.111524</ele>
        <time>2024-03-20T16:52:37.397Z</time>
      </trkpt>
      <trkpt lat="45.842390" lon="8.824612">
        <ele>379.179706</ele>
        <time>2024-03-20T16:52:42.917Z</time>
      </trkpt>
      <trkpt lat="45.842130" lon="8.824310">
        <ele>378.210625</ele>
        <time>2024-03-20T16:52:48.785Z</time>
      </trkpt>
      <trkpt lat="45.841975" lon="8.824246">
        <ele>377.743306</ele>
        <time>2024-03-20T16:52:51.667Z</time>
      </trkpt>
      <trkpt lat="45.841975" lon="8.824246">
        <ele>377.743306</ele>
        <time>2024-03-20T16:52:51.671Z</time>
      </trkpt>
      <trkpt lat="45.841810" lon="8.824267">
        <ele>377.854688</ele>
        <time>2024-03-20T16:52:54.670Z</time>
      </trkpt>
      <trkpt lat="45.840378" lon="8.825458">
        <ele>379.509345</ele>
        <time>2024-03-20T16:53:43.692Z</time>
      </trkpt>
      <trkpt lat="45.840240" lon="8.825570">
        <ele>379.885470</ele>
        <time>2024-03-20T16:53:47.795Z</time>
      </trkpt>
      <trkpt lat="45.840163" lon="8.825389">
        <ele>380.236010</ele>
        <time>2024-03-20T16:53:55.898Z</time>
      </trkpt>
      <trkpt lat="45.839661" lon="8.826074">
        <ele>381.879326</ele>
        <time>2024-03-20T16:54:22.347Z</time>
      </trkpt>
      <trkpt lat="45.838934" lon="8.827033">
        <ele>383.770403</ele>
        <time>2024-03-20T16:54:53.661Z</time>
      </trkpt>
      <trkpt lat="45.838733" lon="8.827323">
        <ele>383.790042</ele>
        <time>2024-03-20T16:55:01.453Z</time>
      </trkpt>
      <trkpt lat="45.838693" lon="8.827364">
        <ele>383.793429</ele>
        <time>2024-03-20T16:55:03.048Z</time>
      </trkpt>
      <trkpt lat="45.838654" lon="8.827478">
        <ele>383.799527</ele>
        <time>2024-03-20T16:55:06.155Z</time>
      </trkpt>
      <trkpt lat="45.838538" lon="8.827614">
        <ele>383.809848</ele>
        <time>2024-03-20T16:55:08.756Z</time>
      </trkpt>
      <trkpt lat="45.837802" lon="8.828761">
        <ele>383.867888</ele>
        <time>2024-03-20T16:55:31.192Z</time>
      </trkpt>
      <trkpt lat="45.836717" lon="8.830589">
        <ele>383.481921</ele>
        <time>2024-03-20T16:56:06.554Z</time>
      </trkpt>
      <trkpt lat="45.836150" lon="8.831204">
        <ele>384.721852</ele>
        <time>2024-03-20T16:56:25.606Z</time>
      </trkpt>
      <trkpt lat="45.835526" lon="8.832294">
        <ele>386.646846</ele>
        <time>2024-03-20T16:56:59.835Z</time>
      </trkpt>
      <trkpt lat="45.835076" lon="8.832651">
        <ele>387.851131</ele>
        <time>2024-03-20T16:57:19.851Z</time>
      </trkpt>
      <trkpt lat="45.834753" lon="8.832870">
        <ele>388.758227</ele>
        <time>2024-03-20T16:57:33.739Z</time>
      </trkpt>
      <trkpt lat="45.834096" lon="8.833068">
        <ele>390.462910</ele>
        <time>2024-03-20T16:57:58.803Z</time>
      </trkpt>
      <trkpt lat="45.833725" lon="8.833126">
        <ele>391.410553</ele>
        <time>2024-03-20T16:58:11.259Z</time>
      </trkpt>
      <trkpt lat="45.833288" lon="8.833103">
        <ele>391.658829</ele>
        <time>2024-03-20T16:58:21.412Z</time>
      </trkpt>
      <trkpt lat="45.832644" lon="8.833007">
        <ele>391.834385</ele>
        <time>2024-03-20T16:58:35.557Z</time>
      </trkpt>
      <trkpt lat="45.832022" lon="8.832888">
        <ele>392.004528</ele>
        <time>2024-03-20T16:58:49.173Z</time>
      </trkpt>
      <trkpt lat="45.831406" lon="8.832753">
        <ele>392.653501</ele>
        <time>2024-03-20T16:59:03.894Z</time>
      </trkpt>
      <trkpt lat="45.831135" lon="8.832613">
        <ele>393.019884</ele>
        <time>2024-03-20T16:59:11.444Z</time>
      </trkpt>
      <trkpt lat="45.830672" lon="8.832199">
        <ele>393.713808</ele>
        <time>2024-03-20T16:59:27.168Z</time>
      </trkpt>
      <trkpt lat="45.830508" lon="8.832117">
        <ele>393.934725</ele>
        <time>2024-03-20T16:59:32.680Z</time>
      </trkpt>
      <trkpt lat="45.830497" lon="8.831837">
        <ele>394.183298</ele>
        <time>2024-03-20T16:59:39.000Z</time>
      </trkpt>
      <trkpt lat="45.830411" lon="8.829579">
        <ele>399.312536</ele>
        <time>2024-03-20T17:00:39.379Z</time>
      </trkpt>
      <trkpt lat="45.830384" lon="8.828861">
        <ele>401.177376</ele>
        <time>2024-03-20T17:01:01.924Z</time>
      </trkpt>
      <trkpt lat="45.829852" lon="8.829153">
        <ele>403.666552</ele>
        <time>2024-03-20T17:01:28.352Z</time>
      </trkpt>
      <trkpt lat="45.829694" lon="8.829164">
        <ele>404.357856</ele>
        <time>2024-03-20T17:01:35.535Z</time>
      </trkpt>
      <trkpt lat="45.829244" lon="8.829274">
        <ele>406.352769</ele>
        <time>2024-03-20T17:01:57.027Z</time>
      </trkpt>
      <trkpt lat="45.828582" lon="8.829052">
        <ele>409.151541</ele>
        <time>2024-03-20T17:02:26.380Z</time>
      </trkpt>
      <trkpt lat="45.828429" lon="8.828939">
        <ele>409.772993</ele>
        <time>2024-03-20T17:02:33.654Z</time>
      </trkpt>
      <trkpt lat="45.828221" lon="8.828688">
        <ele>410.754478</ele>
        <time>2024-03-20T17:02:44.808Z</time>
      </trkpt>
      <trkpt lat="45.827866" lon="8.828370">
        <ele>412.265851</ele>
        <time>2024-03-20T17:03:01.855Z</time>
      </trkpt>
      <trkpt lat="45.827732" lon="8.828252">
        <ele>412.833648</ele>
        <time>2024-03-20T17:03:07.655Z</time>
      </trkpt>
      <trkpt lat="45.827455" lon="8.828022">
        <ele>413.989438</ele>
        <time>2024-03-20T17:03:20.418Z</time>
      </trkpt>
      <trkpt lat="45.827189" lon="8.828032">
        <ele>414.897310</ele>
        <time>2024-03-20T17:03:32.278Z</time>
      </trkpt>
      <trkpt lat="45.826677" lon="8.828352">
        <ele>416.042379</ele>
        <time>2024-03-20T17:03:54.513Z</time>
      </trkpt>
      <trkpt lat="45.826085" lon="8.828507">
        <ele>417.276279</ele>
        <time>2024-03-20T17:04:15.739Z</time>
      </trkpt>
      <trkpt lat="45.825822" lon="8.828648">
        <ele>417.851950</ele>
        <time>2024-03-20T17:04:24.823Z</time>
      </trkpt>
      <trkpt lat="45.825482" lon="8.828958">
        <ele>418.154761</ele>
        <time>2024-03-20T17:04:35.015Z</time>
      </trkpt>
      <trkpt lat="45.825386" lon="8.829069">
        <ele>417.593121</ele>
        <time>2024-03-20T17:04:37.463Z</time>
      </trkpt>
      <trkpt lat="45.825272" lon="8.829203">
        <ele>416.921794</ele>
        <time>2024-03-20T17:04:40.438Z</time>
      </trkpt>
      <trkpt lat="45.825147" lon="8.829313">
        <ele>416.253792</ele>
        <time>2024-03-20T17:04:43.062Z</time>
      </trkpt>
      <trkpt lat="45.825094" lon="8.829448">
        <ele>415.761886</ele>
        <time>2024-03-20T17:04:44.961Z</time>
      </trkpt>
      <trkpt lat="45.825042" lon="8.829692">
        <ele>414.951866</ele>
        <time>2024-03-20T17:04:48.035Z</time>
      </trkpt>
      <trkpt lat="45.824971" lon="8.829797">
        <ele>414.487396</ele>
        <time>2024-03-20T17:04:49.670Z</time>
      </trkpt>
      <trkpt lat="45.824878" lon="8.829863">
        <ele>414.014742</ele>
        <time>2024-03-20T17:04:51.344Z</time>
      </trkpt>
      <trkpt lat="45.824731" lon="8.829870">
        <ele>413.344693</ele>
        <time>2024-03-20T17:04:53.692Z</time>
      </trkpt>
      <trkpt lat="45.824624" lon="8.829775">
        <ele>412.771484</ele>
        <time>2024-03-20T17:04:55.580Z</time>
      </trkpt>
      <trkpt lat="45.824535" lon="8.829619">
        <ele>412.131438</ele>
        <time>2024-03-20T17:04:57.671Z</time>
      </trkpt>
      <trkpt lat="45.824414" lon="8.829549">
        <ele>411.537096</ele>
        <time>2024-03-20T17:04:59.599Z</time>
      </trkpt>
      <trkpt lat="45.824259" lon="8.829573">
        <ele>410.826871</ele>
        <time>2024-03-20T17:05:01.845Z</time>
      </trkpt>
      <trkpt lat="45.824124" lon="8.829687">
        <ele>409.905456</ele>
        <time>2024-03-20T17:05:04.114Z</time>
      </trkpt>
      <trkpt lat="45.824020" lon="8.829900">
        <ele>408.255906</ele>
        <time>2024-03-20T17:05:06.693Z</time>
      </trkpt>
      <trkpt lat="45.823888" lon="8.829985">
        <ele>406.939099</ele>
        <time>2024-03-20T17:05:08.744Z</time>
      </trkpt>
      <trkpt lat="45.823509" lon="8.829994">
        <ele>403.489179</ele>
        <time>2024-03-20T17:05:14.069Z</time>
      </trkpt>
      <trkpt lat="45.822683" lon="8.829781">
        <ele>395.850962</ele>
        <time>2024-03-20T17:05:26.071Z</time>
      </trkpt>
      <trkpt lat="45.822608" lon="8.828881">
        <ele>392.037093</ele>
        <time>2024-03-20T17:05:35.434Z</time>
      </trkpt>
      <trkpt lat="45.822133" lon="8.828530">
        <ele>389.618968</ele>
        <time>2024-03-20T17:05:43.833Z</time>
      </trkpt>
      <trkpt lat="45.821922" lon="8.828356">
        <ele>388.517532</ele>
        <time>2024-03-20T17:05:47.843Z</time>
      </trkpt>
      <trkpt lat="45.822328" lon="8.827365">
        <ele>385.775145</ele>
        <time>2024-03-20T17:06:02.813Z</time>
      </trkpt>
      <trkpt lat="45.822377" lon="8.827247">
        <ele>385.758358</ele>
        <time>2024-03-20T17:06:04.952Z</time>
      </trkpt>
      <trkpt lat="45.822707" lon="8.826429">
        <ele>385.642853</ele>
        <time>2024-03-20T17:06:19.187Z</time>
      </trkpt>
      <trkpt lat="45.822809" lon="8.826175">
        <ele>385.607028</ele>
        <time>2024-03-20T17:06:23.911Z</time>
      </trkpt>
      <trkpt lat="45.823185" lon="8.825244">
        <ele>385.524896</ele>
        <time>2024-03-20T17:06:43.223Z</time>
      </trkpt>
      <trkpt lat="45.823194" lon="8.825060">
        <ele>385.558519</ele>
        <time>2024-03-20T17:06:46.642Z</time>
      </trkpt>
      <trkpt lat="45.823084" lon="8.824805">
        <ele>385.613185</ele>
        <time>2024-03-20T17:06:52.148Z</time>
      </trkpt>
      <trkpt lat="45.822327" lon="8.824021">
        <ele>385.857381</ele>
        <time>2024-03-20T17:07:13.638Z</time>
      </trkpt>
      <trkpt lat="45.822049" lon="8.823708">
        <ele>385.949810</ele>
        <time>2024-03-20T17:07:21.534Z</time>
      </trkpt>
      <trkpt lat="45.821950" lon="8.823626">
        <ele>385.942399</ele>
        <time>2024-03-20T17:07:24.331Z</time>
      </trkpt>
      <trkpt lat="45.821770" lon="8.823515">
        <ele>385.856011</ele>
        <time>2024-03-20T17:07:28.470Z</time>
      </trkpt>
      <trkpt lat="45.821166" lon="8.823146">
        <ele>385.566550</ele>
        <time>2024-03-20T17:07:42.548Z</time>
      </trkpt>
      <trkpt lat="45.820631" lon="8.822845">
        <ele>385.313162</ele>
        <time>2024-03-20T17:07:54.534Z</time>
      </trkpt>
      <trkpt lat="45.820203" lon="8.822614">
        <ele>385.172724</ele>
        <time>2024-03-20T17:08:03.559Z</time>
      </trkpt>
      <trkpt lat="45.819319" lon="8.822104">
        <ele>385.172724</ele>
        <time>2024-03-20T17:08:23.251Z</time>
      </trkpt>
      <trkpt lat="45.819261" lon="8.822256">
        <ele>385.172724</ele>
        <time>2024-03-20T17:08:26.461Z</time>
      </trkpt>
      <trkpt lat="45.819123" lon="8.822661">
        <ele>385.172724</ele>
        <time>2024-03-20T17:08:34.957Z</time>
      </trkpt>
      <trkpt lat="45.818919" lon="8.823252">
        <ele>385.172724</ele>
        <time>2024-03-20T17:08:47.393Z</time>
      </trkpt>
      <trkpt lat="45.818783" lon="8.823644">
        <ele>385.172724</ele>
        <time>2024-03-20T17:08:55.710Z</time>
      </trkpt>
      <trkpt lat="45.818771" lon="8.823682">
        <ele>385.172724</ele>
        <time>2024-03-20T17:08:56.531Z</time>
      </trkpt>
      <trkpt lat="45.818749" lon="8.823749">
        <ele>385.172724</ele>
        <time>2024-03-20T17:08:57.814Z</time>
      </trkpt>
      <trkpt lat="45.818631" lon="8.824092">
        <ele>385.172724</ele>
        <time>2024-03-20T17:09:05.155Z</time>
      </trkpt>
    </trkseg>
  </trk>
</gpx>